<?xml version="1.0" encoding="UTF-8" standalone="no" ?>
<gpx xmlns="http://www.topografix.com/GPX/1/1" xmlns:xsi="http://www.w3.org/2001/XMLSchema-instance" xsi:schemaLocation="http://www.topografix.com/GPX/1/1 http://www.topografix.com/GPX/1/1/gpx.xsd" version="1.1" creator="VisuGPX - https://www.visugpx.com">
  <metadata>
    <name>lundi 2015 06 01 lune</name>
    <desc><![CDATA[rando du lundi]]></desc>
  </metadata>
  <trk>
    <name><![CDATA[Paris]]></name>
    <trkseg>
      <trkpt lat="48.85722" lon="2.34753">
        <ele>35.799999237061</ele>
        <time>2015-06-01T18:16:56.000Z</time>
      </trkpt>
      <trkpt lat="48.85739" lon="2.34698">
        <ele>42.400001525879</ele>
        <time>2015-06-01T18:21:54.000Z</time>
      </trkpt>
      <trkpt lat="48.85733" lon="2.34697">
        <ele>43.400001525879</ele>
        <time>2015-06-01T18:22:01.000Z</time>
      </trkpt>
      <trkpt lat="48.85719" lon="2.34694">
        <ele>43.799999237061</ele>
        <time>2015-06-01T18:22:07.000Z</time>
      </trkpt>
      <trkpt lat="48.85706" lon="2.34688">
        <ele>44</ele>
        <time>2015-06-01T18:22:12.000Z</time>
      </trkpt>
      <trkpt lat="48.85694" lon="2.34679">
        <ele>44.200000762939</ele>
        <time>2015-06-01T18:22:17.000Z</time>
      </trkpt>
      <trkpt lat="48.85677" lon="2.34668">
        <ele>44.200000762939</ele>
        <time>2015-06-01T18:22:23.000Z</time>
      </trkpt>
      <trkpt lat="48.8566" lon="2.34657">
        <ele>44.200000762939</ele>
        <time>2015-06-01T18:22:29.000Z</time>
      </trkpt>
      <trkpt lat="48.85642" lon="2.34646">
        <ele>44.200000762939</ele>
        <time>2015-06-01T18:22:35.000Z</time>
      </trkpt>
      <trkpt lat="48.85629" lon="2.34636">
        <ele>44.200000762939</ele>
        <time>2015-06-01T18:22:40.000Z</time>
      </trkpt>
      <trkpt lat="48.85627" lon="2.34634">
        <ele>44.200000762939</ele>
        <time>2015-06-01T18:22:41.000Z</time>
      </trkpt>
      <trkpt lat="48.8559" lon="2.34618">
        <ele>44.200000762939</ele>
        <time>2015-06-01T18:22:51.000Z</time>
      </trkpt>
      <trkpt lat="48.85572" lon="2.34609">
        <ele>44.200000762939</ele>
        <time>2015-06-01T18:22:56.000Z</time>
      </trkpt>
      <trkpt lat="48.85569" lon="2.34608">
        <ele>44.200000762939</ele>
        <time>2015-06-01T18:22:57.000Z</time>
      </trkpt>
      <trkpt lat="48.85565" lon="2.34606">
        <ele>44.200000762939</ele>
        <time>2015-06-01T18:22:58.000Z</time>
      </trkpt>
      <trkpt lat="48.85548" lon="2.34597">
        <ele>44.200000762939</ele>
        <time>2015-06-01T18:23:02.000Z</time>
      </trkpt>
      <trkpt lat="48.85532" lon="2.34584">
        <ele>44.200000762939</ele>
        <time>2015-06-01T18:23:06.000Z</time>
      </trkpt>
      <trkpt lat="48.85523" lon="2.34578">
        <ele>44.200000762939</ele>
        <time>2015-06-01T18:23:08.000Z</time>
      </trkpt>
      <trkpt lat="48.85512" lon="2.34566">
        <ele>44.200000762939</ele>
        <time>2015-06-01T18:23:11.000Z</time>
      </trkpt>
      <trkpt lat="48.85491" lon="2.34548">
        <ele>44.200000762939</ele>
        <time>2015-06-01T18:23:16.000Z</time>
      </trkpt>
      <trkpt lat="48.85479" lon="2.34536">
        <ele>44.200000762939</ele>
        <time>2015-06-01T18:23:19.000Z</time>
      </trkpt>
      <trkpt lat="48.85458" lon="2.34515">
        <ele>45.200000762939</ele>
        <time>2015-06-01T18:23:24.000Z</time>
      </trkpt>
      <trkpt lat="48.8545" lon="2.34507">
        <ele>45.400001525879</ele>
        <time>2015-06-01T18:23:26.000Z</time>
      </trkpt>
      <trkpt lat="48.85431" lon="2.34488">
        <ele>45.799999237061</ele>
        <time>2015-06-01T18:23:31.000Z</time>
      </trkpt>
      <trkpt lat="48.85415" lon="2.34468">
        <ele>46</ele>
        <time>2015-06-01T18:23:36.000Z</time>
      </trkpt>
      <trkpt lat="48.85408" lon="2.34461">
        <ele>46</ele>
        <time>2015-06-01T18:23:38.000Z</time>
      </trkpt>
      <trkpt lat="48.85399" lon="2.34443">
        <ele>46.200000762939</ele>
        <time>2015-06-01T18:23:43.000Z</time>
      </trkpt>
      <trkpt lat="48.85395" lon="2.3443">
        <ele>46.200000762939</ele>
        <time>2015-06-01T18:23:48.000Z</time>
      </trkpt>
      <trkpt lat="48.85394" lon="2.3443">
        <ele>46.200000762939</ele>
        <time>2015-06-01T18:23:53.000Z</time>
      </trkpt>
      <trkpt lat="48.85394" lon="2.34431">
        <ele>46</ele>
        <time>2015-06-01T18:23:54.000Z</time>
      </trkpt>
      <trkpt lat="48.85387" lon="2.34428">
        <ele>45.200000762939</ele>
        <time>2015-06-01T18:24:00.000Z</time>
      </trkpt>
      <trkpt lat="48.85385" lon="2.34428">
        <ele>45</ele>
        <time>2015-06-01T18:24:02.000Z</time>
      </trkpt>
      <trkpt lat="48.85379" lon="2.34427">
        <ele>45.799999237061</ele>
        <time>2015-06-01T18:24:35.000Z</time>
      </trkpt>
      <trkpt lat="48.85364" lon="2.34413">
        <ele>46.799999237061</ele>
        <time>2015-06-01T18:24:40.000Z</time>
      </trkpt>
      <trkpt lat="48.85345" lon="2.34412">
        <ele>47.400001525879</ele>
        <time>2015-06-01T18:24:44.000Z</time>
      </trkpt>
      <trkpt lat="48.85334" lon="2.34411">
        <ele>48</ele>
        <time>2015-06-01T18:24:46.000Z</time>
      </trkpt>
      <trkpt lat="48.85307" lon="2.34399">
        <ele>49.200000762939</ele>
        <time>2015-06-01T18:24:51.000Z</time>
      </trkpt>
      <trkpt lat="48.85302" lon="2.34396">
        <ele>49.200000762939</ele>
        <time>2015-06-01T18:24:52.000Z</time>
      </trkpt>
      <trkpt lat="48.85281" lon="2.34386">
        <ele>50.200000762939</ele>
        <time>2015-06-01T18:24:56.000Z</time>
      </trkpt>
      <trkpt lat="48.85262" lon="2.34377">
        <ele>51</ele>
        <time>2015-06-01T18:25:00.000Z</time>
      </trkpt>
      <trkpt lat="48.85256" lon="2.34375">
        <ele>51.200000762939</ele>
        <time>2015-06-01T18:25:01.000Z</time>
      </trkpt>
      <trkpt lat="48.85238" lon="2.34365">
        <ele>51.599998474121</ele>
        <time>2015-06-01T18:25:05.000Z</time>
      </trkpt>
      <trkpt lat="48.85213" lon="2.34354">
        <ele>53</ele>
        <time>2015-06-01T18:25:10.000Z</time>
      </trkpt>
      <trkpt lat="48.85208" lon="2.34351">
        <ele>53.200000762939</ele>
        <time>2015-06-01T18:25:11.000Z</time>
      </trkpt>
      <trkpt lat="48.85185" lon="2.34341">
        <ele>54.599998474121</ele>
        <time>2015-06-01T18:25:16.000Z</time>
      </trkpt>
      <trkpt lat="48.85166" lon="2.34334">
        <ele>55.599998474121</ele>
        <time>2015-06-01T18:25:20.000Z</time>
      </trkpt>
      <trkpt lat="48.85162" lon="2.34333">
        <ele>56</ele>
        <time>2015-06-01T18:25:21.000Z</time>
      </trkpt>
      <trkpt lat="48.85153" lon="2.34328">
        <ele>56.799999237061</ele>
        <time>2015-06-01T18:25:24.000Z</time>
      </trkpt>
      <trkpt lat="48.85146" lon="2.34324">
        <ele>57.599998474121</ele>
        <time>2015-06-01T18:25:28.000Z</time>
      </trkpt>
      <trkpt lat="48.85141" lon="2.34321">
        <ele>58</ele>
        <time>2015-06-01T18:25:32.000Z</time>
      </trkpt>
      <trkpt lat="48.85123" lon="2.34311">
        <ele>58.400001525879</ele>
        <time>2015-06-01T18:25:38.000Z</time>
      </trkpt>
      <trkpt lat="48.85105" lon="2.34302">
        <ele>58.599998474121</ele>
        <time>2015-06-01T18:25:43.000Z</time>
      </trkpt>
      <trkpt lat="48.85086" lon="2.34294">
        <ele>58.799999237061</ele>
        <time>2015-06-01T18:25:48.000Z</time>
      </trkpt>
      <trkpt lat="48.85068" lon="2.34287">
        <ele>58.799999237061</ele>
        <time>2015-06-01T18:25:53.000Z</time>
      </trkpt>
      <trkpt lat="48.85048" lon="2.34278">
        <ele>59</ele>
        <time>2015-06-01T18:25:58.000Z</time>
      </trkpt>
      <trkpt lat="48.8503" lon="2.34268">
        <ele>59</ele>
        <time>2015-06-01T18:26:03.000Z</time>
      </trkpt>
      <trkpt lat="48.85011" lon="2.34256">
        <ele>59</ele>
        <time>2015-06-01T18:26:08.000Z</time>
      </trkpt>
      <trkpt lat="48.84991" lon="2.34243">
        <ele>59</ele>
        <time>2015-06-01T18:26:12.000Z</time>
      </trkpt>
      <trkpt lat="48.84978" lon="2.34234">
        <ele>59</ele>
        <time>2015-06-01T18:26:15.000Z</time>
      </trkpt>
      <trkpt lat="48.84962" lon="2.34224">
        <ele>59.599998474121</ele>
        <time>2015-06-01T18:26:19.000Z</time>
      </trkpt>
      <trkpt lat="48.84938" lon="2.34213">
        <ele>60.799999237061</ele>
        <time>2015-06-01T18:26:25.000Z</time>
      </trkpt>
      <trkpt lat="48.84918" lon="2.342">
        <ele>62</ele>
        <time>2015-06-01T18:26:30.000Z</time>
      </trkpt>
      <trkpt lat="48.84915" lon="2.34198">
        <ele>62.200000762939</ele>
        <time>2015-06-01T18:26:31.000Z</time>
      </trkpt>
      <trkpt lat="48.84893" lon="2.34187">
        <ele>63.599998474121</ele>
        <time>2015-06-01T18:26:37.000Z</time>
      </trkpt>
      <trkpt lat="48.84889" lon="2.34185">
        <ele>63.799999237061</ele>
        <time>2015-06-01T18:26:38.000Z</time>
      </trkpt>
      <trkpt lat="48.84871" lon="2.3417">
        <ele>65.400001525879</ele>
        <time>2015-06-01T18:26:44.000Z</time>
      </trkpt>
      <trkpt lat="48.84854" lon="2.34162">
        <ele>66.199996948242</ele>
        <time>2015-06-01T18:26:49.000Z</time>
      </trkpt>
      <trkpt lat="48.84832" lon="2.3415">
        <ele>66.599998474121</ele>
        <time>2015-06-01T18:26:54.000Z</time>
      </trkpt>
      <trkpt lat="48.84824" lon="2.34147">
        <ele>67</ele>
        <time>2015-06-01T18:26:56.000Z</time>
      </trkpt>
      <trkpt lat="48.84813" lon="2.34137">
        <ele>67.599998474121</ele>
        <time>2015-06-01T18:26:59.000Z</time>
      </trkpt>
      <trkpt lat="48.84805" lon="2.34132">
        <ele>68.199996948242</ele>
        <time>2015-06-01T18:27:01.000Z</time>
      </trkpt>
      <trkpt lat="48.84786" lon="2.34118">
        <ele>70.199996948242</ele>
        <time>2015-06-01T18:27:07.000Z</time>
      </trkpt>
      <trkpt lat="48.84773" lon="2.3411">
        <ele>72.199996948242</ele>
        <time>2015-06-01T18:27:12.000Z</time>
      </trkpt>
      <trkpt lat="48.84765" lon="2.34108">
        <ele>73.199996948242</ele>
        <time>2015-06-01T18:27:15.000Z</time>
      </trkpt>
      <trkpt lat="48.84755" lon="2.341">
        <ele>75</ele>
        <time>2015-06-01T18:27:20.000Z</time>
      </trkpt>
      <trkpt lat="48.84754" lon="2.341">
        <ele>75.400001525879</ele>
        <time>2015-06-01T18:27:21.000Z</time>
      </trkpt>
      <trkpt lat="48.84754" lon="2.34077">
        <ele>77.800003051758</ele>
        <time>2015-06-01T18:27:43.000Z</time>
      </trkpt>
      <trkpt lat="48.84753" lon="2.34075">
        <ele>77.800003051758</ele>
        <time>2015-06-01T18:27:44.000Z</time>
      </trkpt>
      <trkpt lat="48.84755" lon="2.34074">
        <ele>78</ele>
        <time>2015-06-01T18:27:52.000Z</time>
      </trkpt>
      <trkpt lat="48.84753" lon="2.34074">
        <ele>77.199996948242</ele>
        <time>2015-06-01T18:28:00.000Z</time>
      </trkpt>
      <trkpt lat="48.84744" lon="2.34074">
        <ele>76.599998474121</ele>
        <time>2015-06-01T18:28:05.000Z</time>
      </trkpt>
      <trkpt lat="48.84739" lon="2.34074">
        <ele>76</ele>
        <time>2015-06-01T18:28:07.000Z</time>
      </trkpt>
      <trkpt lat="48.84718" lon="2.34064">
        <ele>74.800003051758</ele>
        <time>2015-06-01T18:28:14.000Z</time>
      </trkpt>
      <trkpt lat="48.84701" lon="2.34056">
        <ele>73.599998474121</ele>
        <time>2015-06-01T18:28:19.000Z</time>
      </trkpt>
      <trkpt lat="48.84683" lon="2.34046">
        <ele>72.800003051758</ele>
        <time>2015-06-01T18:28:24.000Z</time>
      </trkpt>
      <trkpt lat="48.84663" lon="2.34036">
        <ele>72.400001525879</ele>
        <time>2015-06-01T18:28:29.000Z</time>
      </trkpt>
      <trkpt lat="48.84644" lon="2.34024">
        <ele>72</ele>
        <time>2015-06-01T18:28:34.000Z</time>
      </trkpt>
      <trkpt lat="48.84641" lon="2.34022">
        <ele>72</ele>
        <time>2015-06-01T18:28:35.000Z</time>
      </trkpt>
      <trkpt lat="48.84618" lon="2.34013">
        <ele>71.199996948242</ele>
        <time>2015-06-01T18:28:40.000Z</time>
      </trkpt>
      <trkpt lat="48.84601" lon="2.34004">
        <ele>70.599998474121</ele>
        <time>2015-06-01T18:28:44.000Z</time>
      </trkpt>
      <trkpt lat="48.84581" lon="2.33993">
        <ele>70.199996948242</ele>
        <time>2015-06-01T18:28:49.000Z</time>
      </trkpt>
      <trkpt lat="48.84564" lon="2.33985">
        <ele>70</ele>
        <time>2015-06-01T18:28:53.000Z</time>
      </trkpt>
      <trkpt lat="48.84552" lon="2.33981">
        <ele>69.800003051758</ele>
        <time>2015-06-01T18:28:56.000Z</time>
      </trkpt>
      <trkpt lat="48.84533" lon="2.33972">
        <ele>70.199996948242</ele>
        <time>2015-06-01T18:29:00.000Z</time>
      </trkpt>
      <trkpt lat="48.8451" lon="2.33961">
        <ele>70.800003051758</ele>
        <time>2015-06-01T18:29:05.000Z</time>
      </trkpt>
      <trkpt lat="48.84492" lon="2.33953">
        <ele>71.599998474121</ele>
        <time>2015-06-01T18:29:09.000Z</time>
      </trkpt>
      <trkpt lat="48.84475" lon="2.33945">
        <ele>72.400001525879</ele>
        <time>2015-06-01T18:29:13.000Z</time>
      </trkpt>
      <trkpt lat="48.84463" lon="2.33939">
        <ele>73.400001525879</ele>
        <time>2015-06-01T18:29:16.000Z</time>
      </trkpt>
      <trkpt lat="48.8444" lon="2.33928">
        <ele>75</ele>
        <time>2015-06-01T18:29:22.000Z</time>
      </trkpt>
      <trkpt lat="48.84423" lon="2.33919">
        <ele>76.400001525879</ele>
        <time>2015-06-01T18:29:27.000Z</time>
      </trkpt>
      <trkpt lat="48.84403" lon="2.33907">
        <ele>77.199996948242</ele>
        <time>2015-06-01T18:29:32.000Z</time>
      </trkpt>
      <trkpt lat="48.84386" lon="2.33898">
        <ele>77.599998474121</ele>
        <time>2015-06-01T18:29:37.000Z</time>
      </trkpt>
      <trkpt lat="48.84369" lon="2.3389">
        <ele>78</ele>
        <time>2015-06-01T18:29:42.000Z</time>
      </trkpt>
      <trkpt lat="48.84349" lon="2.3388">
        <ele>78.800003051758</ele>
        <time>2015-06-01T18:29:47.000Z</time>
      </trkpt>
      <trkpt lat="48.8432" lon="2.33862">
        <ele>80</ele>
        <time>2015-06-01T18:29:54.000Z</time>
      </trkpt>
      <trkpt lat="48.84315" lon="2.33859">
        <ele>80.400001525879</ele>
        <time>2015-06-01T18:29:55.000Z</time>
      </trkpt>
      <trkpt lat="48.84289" lon="2.33846">
        <ele>81.199996948242</ele>
        <time>2015-06-01T18:30:00.000Z</time>
      </trkpt>
      <trkpt lat="48.84272" lon="2.33839">
        <ele>81.800003051758</ele>
        <time>2015-06-01T18:30:03.000Z</time>
      </trkpt>
      <trkpt lat="48.84262" lon="2.33833">
        <ele>82.199996948242</ele>
        <time>2015-06-01T18:30:05.000Z</time>
      </trkpt>
      <trkpt lat="48.84248" lon="2.33824">
        <ele>82.800003051758</ele>
        <time>2015-06-01T18:30:08.000Z</time>
      </trkpt>
      <trkpt lat="48.84229" lon="2.3381">
        <ele>83.400001525879</ele>
        <time>2015-06-01T18:30:12.000Z</time>
      </trkpt>
      <trkpt lat="48.84204" lon="2.33799">
        <ele>83.800003051758</ele>
        <time>2015-06-01T18:30:17.000Z</time>
      </trkpt>
      <trkpt lat="48.842" lon="2.33796">
        <ele>84</ele>
        <time>2015-06-01T18:30:18.000Z</time>
      </trkpt>
      <trkpt lat="48.84183" lon="2.33786">
        <ele>84.199996948242</ele>
        <time>2015-06-01T18:30:22.000Z</time>
      </trkpt>
      <trkpt lat="48.84178" lon="2.33784">
        <ele>84.199996948242</ele>
        <time>2015-06-01T18:30:23.000Z</time>
      </trkpt>
      <trkpt lat="48.8417" lon="2.3378">
        <ele>84.199996948242</ele>
        <time>2015-06-01T18:30:25.000Z</time>
      </trkpt>
      <trkpt lat="48.84148" lon="2.33763">
        <ele>84.400001525879</ele>
        <time>2015-06-01T18:30:31.000Z</time>
      </trkpt>
      <trkpt lat="48.84144" lon="2.3376">
        <ele>84.400001525879</ele>
        <time>2015-06-01T18:30:32.000Z</time>
      </trkpt>
      <trkpt lat="48.84126" lon="2.33747">
        <ele>84.400001525879</ele>
        <time>2015-06-01T18:30:37.000Z</time>
      </trkpt>
      <trkpt lat="48.84104" lon="2.33735">
        <ele>84.400001525879</ele>
        <time>2015-06-01T18:30:42.000Z</time>
      </trkpt>
      <trkpt lat="48.841" lon="2.33733">
        <ele>84.400001525879</ele>
        <time>2015-06-01T18:30:43.000Z</time>
      </trkpt>
      <trkpt lat="48.84085" lon="2.33724">
        <ele>84.599998474121</ele>
        <time>2015-06-01T18:30:47.000Z</time>
      </trkpt>
      <trkpt lat="48.84075" lon="2.33713">
        <ele>84.599998474121</ele>
        <time>2015-06-01T18:30:50.000Z</time>
      </trkpt>
      <trkpt lat="48.84063" lon="2.33696">
        <ele>84.599998474121</ele>
        <time>2015-06-01T18:30:54.000Z</time>
      </trkpt>
      <trkpt lat="48.84053" lon="2.33693">
        <ele>84.599998474121</ele>
        <time>2015-06-01T18:30:57.000Z</time>
      </trkpt>
      <trkpt lat="48.84045" lon="2.33684">
        <ele>84.599998474121</ele>
        <time>2015-06-01T18:31:00.000Z</time>
      </trkpt>
      <trkpt lat="48.84036" lon="2.33673">
        <ele>84.599998474121</ele>
        <time>2015-06-01T18:31:04.000Z</time>
      </trkpt>
      <trkpt lat="48.84031" lon="2.33667">
        <ele>84.599998474121</ele>
        <time>2015-06-01T18:31:06.000Z</time>
      </trkpt>
      <trkpt lat="48.84014" lon="2.33663">
        <ele>84.599998474121</ele>
        <time>2015-06-01T18:31:13.000Z</time>
      </trkpt>
      <trkpt lat="48.83996" lon="2.33663">
        <ele>84.599998474121</ele>
        <time>2015-06-01T18:31:19.000Z</time>
      </trkpt>
      <trkpt lat="48.83983" lon="2.33663">
        <ele>84.599998474121</ele>
        <time>2015-06-01T18:31:24.000Z</time>
      </trkpt>
      <trkpt lat="48.83972" lon="2.33663">
        <ele>84.599998474121</ele>
        <time>2015-06-01T18:31:29.000Z</time>
      </trkpt>
      <trkpt lat="48.83954" lon="2.33662">
        <ele>84.599998474121</ele>
        <time>2015-06-01T18:31:36.000Z</time>
      </trkpt>
      <trkpt lat="48.83937" lon="2.33658">
        <ele>84.599998474121</ele>
        <time>2015-06-01T18:31:41.000Z</time>
      </trkpt>
      <trkpt lat="48.83921" lon="2.33657">
        <ele>84.599998474121</ele>
        <time>2015-06-01T18:31:45.000Z</time>
      </trkpt>
      <trkpt lat="48.83891" lon="2.33658">
        <ele>84.599998474121</ele>
        <time>2015-06-01T18:31:54.000Z</time>
      </trkpt>
      <trkpt lat="48.83875" lon="2.33659">
        <ele>84.599998474121</ele>
        <time>2015-06-01T18:31:59.000Z</time>
      </trkpt>
      <trkpt lat="48.83853" lon="2.33659">
        <ele>84.599998474121</ele>
        <time>2015-06-01T18:32:05.000Z</time>
      </trkpt>
      <trkpt lat="48.83837" lon="2.3365">
        <ele>85.199996948242</ele>
        <time>2015-06-01T18:32:09.000Z</time>
      </trkpt>
      <trkpt lat="48.83818" lon="2.33634">
        <ele>86.199996948242</ele>
        <time>2015-06-01T18:32:14.000Z</time>
      </trkpt>
      <trkpt lat="48.83802" lon="2.33618">
        <ele>87.199996948242</ele>
        <time>2015-06-01T18:32:18.000Z</time>
      </trkpt>
      <trkpt lat="48.83795" lon="2.3361">
        <ele>87.800003051758</ele>
        <time>2015-06-01T18:32:20.000Z</time>
      </trkpt>
      <trkpt lat="48.83783" lon="2.33598">
        <ele>88.599998474121</ele>
        <time>2015-06-01T18:32:23.000Z</time>
      </trkpt>
      <trkpt lat="48.83764" lon="2.33576">
        <ele>89.599998474121</ele>
        <time>2015-06-01T18:32:28.000Z</time>
      </trkpt>
      <trkpt lat="48.83749" lon="2.33557">
        <ele>90.199996948242</ele>
        <time>2015-06-01T18:32:32.000Z</time>
      </trkpt>
      <trkpt lat="48.83734" lon="2.3354">
        <ele>90.400001525879</ele>
        <time>2015-06-01T18:32:36.000Z</time>
      </trkpt>
      <trkpt lat="48.8373" lon="2.33535">
        <ele>90.599998474121</ele>
        <time>2015-06-01T18:32:37.000Z</time>
      </trkpt>
      <trkpt lat="48.83716" lon="2.33519">
        <ele>90.800003051758</ele>
        <time>2015-06-01T18:32:41.000Z</time>
      </trkpt>
      <trkpt lat="48.83698" lon="2.33502">
        <ele>90.599998474121</ele>
        <time>2015-06-01T18:32:46.000Z</time>
      </trkpt>
      <trkpt lat="48.83694" lon="2.33499">
        <ele>90.599998474121</ele>
        <time>2015-06-01T18:32:47.000Z</time>
      </trkpt>
      <trkpt lat="48.83679" lon="2.33483">
        <ele>90</ele>
        <time>2015-06-01T18:32:51.000Z</time>
      </trkpt>
      <trkpt lat="48.83665" lon="2.33468">
        <ele>89.800003051758</ele>
        <time>2015-06-01T18:32:55.000Z</time>
      </trkpt>
      <trkpt lat="48.83645" lon="2.33449">
        <ele>89.400001525879</ele>
        <time>2015-06-01T18:33:00.000Z</time>
      </trkpt>
      <trkpt lat="48.83629" lon="2.33433">
        <ele>88.599998474121</ele>
        <time>2015-06-01T18:33:04.000Z</time>
      </trkpt>
      <trkpt lat="48.83625" lon="2.33429">
        <ele>88.400001525879</ele>
        <time>2015-06-01T18:33:05.000Z</time>
      </trkpt>
      <trkpt lat="48.83605" lon="2.33408">
        <ele>88</ele>
        <time>2015-06-01T18:33:10.000Z</time>
      </trkpt>
      <trkpt lat="48.83588" lon="2.33392">
        <ele>87.599998474121</ele>
        <time>2015-06-01T18:33:14.000Z</time>
      </trkpt>
      <trkpt lat="48.83585" lon="2.33388">
        <ele>87.599998474121</ele>
        <time>2015-06-01T18:33:15.000Z</time>
      </trkpt>
      <trkpt lat="48.83563" lon="2.33369">
        <ele>87.400001525879</ele>
        <time>2015-06-01T18:33:20.000Z</time>
      </trkpt>
      <trkpt lat="48.83547" lon="2.33353">
        <ele>87.199996948242</ele>
        <time>2015-06-01T18:33:24.000Z</time>
      </trkpt>
      <trkpt lat="48.83531" lon="2.33338">
        <ele>87.199996948242</ele>
        <time>2015-06-01T18:33:28.000Z</time>
      </trkpt>
      <trkpt lat="48.83515" lon="2.33325">
        <ele>87.199996948242</ele>
        <time>2015-06-01T18:33:32.000Z</time>
      </trkpt>
      <trkpt lat="48.83496" lon="2.33309">
        <ele>87.599998474121</ele>
        <time>2015-06-01T18:33:37.000Z</time>
      </trkpt>
      <trkpt lat="48.83493" lon="2.33306">
        <ele>87.599998474121</ele>
        <time>2015-06-01T18:33:38.000Z</time>
      </trkpt>
      <trkpt lat="48.83466" lon="2.33283">
        <ele>88.599998474121</ele>
        <time>2015-06-01T18:33:48.000Z</time>
      </trkpt>
      <trkpt lat="48.83465" lon="2.33286">
        <ele>88.800003051758</ele>
        <time>2015-06-01T18:33:52.000Z</time>
      </trkpt>
      <trkpt lat="48.83467" lon="2.33285">
        <ele>89</ele>
        <time>2015-06-01T18:34:00.000Z</time>
      </trkpt>
      <trkpt lat="48.83467" lon="2.33284">
        <ele>89</ele>
        <time>2015-06-01T18:34:03.000Z</time>
      </trkpt>
      <trkpt lat="48.83464" lon="2.33294">
        <ele>88.199996948242</ele>
        <time>2015-06-01T18:34:08.000Z</time>
      </trkpt>
      <trkpt lat="48.83456" lon="2.33302">
        <ele>87.599998474121</ele>
        <time>2015-06-01T18:34:12.000Z</time>
      </trkpt>
      <trkpt lat="48.83452" lon="2.33304">
        <ele>87</ele>
        <time>2015-06-01T18:34:14.000Z</time>
      </trkpt>
      <trkpt lat="48.83448" lon="2.33301">
        <ele>86.400001525879</ele>
        <time>2015-06-01T18:34:17.000Z</time>
      </trkpt>
      <trkpt lat="48.83448" lon="2.33299">
        <ele>86.199996948242</ele>
        <time>2015-06-01T18:34:19.000Z</time>
      </trkpt>
      <trkpt lat="48.83444" lon="2.33298">
        <ele>84.599998474121</ele>
        <time>2015-06-01T18:34:25.000Z</time>
      </trkpt>
      <trkpt lat="48.83443" lon="2.33299">
        <ele>84.400001525879</ele>
        <time>2015-06-01T18:34:26.000Z</time>
      </trkpt>
      <trkpt lat="48.83437" lon="2.33303">
        <ele>83.400001525879</ele>
        <time>2015-06-01T18:34:29.000Z</time>
      </trkpt>
      <trkpt lat="48.83433" lon="2.33304">
        <ele>82.400001525879</ele>
        <time>2015-06-01T18:34:34.000Z</time>
      </trkpt>
      <trkpt lat="48.83433" lon="2.33307">
        <ele>78.599998474121</ele>
        <time>2015-06-01T18:34:50.000Z</time>
      </trkpt>
      <trkpt lat="48.8344" lon="2.3331">
        <ele>76.599998474121</ele>
        <time>2015-06-01T18:35:40.000Z</time>
      </trkpt>
      <trkpt lat="48.83439" lon="2.33313">
        <ele>72.599998474121</ele>
        <time>2015-06-01T18:36:36.000Z</time>
      </trkpt>
      <trkpt lat="48.83452" lon="2.33308">
        <ele>74.400001525879</ele>
        <time>2015-06-01T18:37:29.000Z</time>
      </trkpt>
      <trkpt lat="48.83459" lon="2.33304">
        <ele>74.400001525879</ele>
        <time>2015-06-01T18:37:34.000Z</time>
      </trkpt>
      <trkpt lat="48.83461" lon="2.33303">
        <ele>74.400001525879</ele>
        <time>2015-06-01T18:37:36.000Z</time>
      </trkpt>
      <trkpt lat="48.83465" lon="2.33304">
        <ele>74.400001525879</ele>
        <time>2015-06-01T18:37:43.000Z</time>
      </trkpt>
      <trkpt lat="48.83464" lon="2.33304">
        <ele>74.400001525879</ele>
        <time>2015-06-01T18:37:44.000Z</time>
      </trkpt>
      <trkpt lat="48.83461" lon="2.33302">
        <ele>74.400001525879</ele>
        <time>2015-06-01T18:37:53.000Z</time>
      </trkpt>
      <trkpt lat="48.83456" lon="2.33299">
        <ele>74.400001525879</ele>
        <time>2015-06-01T18:38:10.000Z</time>
      </trkpt>
      <trkpt lat="48.83455" lon="2.33298">
        <ele>74.400001525879</ele>
        <time>2015-06-01T18:38:15.000Z</time>
      </trkpt>
      <trkpt lat="48.83456" lon="2.33297">
        <ele>74.400001525879</ele>
        <time>2015-06-01T18:38:18.000Z</time>
      </trkpt>
      <trkpt lat="48.8346" lon="2.33293">
        <ele>74.400001525879</ele>
        <time>2015-06-01T18:38:23.000Z</time>
      </trkpt>
      <trkpt lat="48.83459" lon="2.3329">
        <ele>74.400001525879</ele>
        <time>2015-06-01T18:38:26.000Z</time>
      </trkpt>
      <trkpt lat="48.83457" lon="2.33285">
        <ele>74.400001525879</ele>
        <time>2015-06-01T18:38:29.000Z</time>
      </trkpt>
      <trkpt lat="48.83457" lon="2.33288">
        <ele>74.400001525879</ele>
        <time>2015-06-01T18:38:34.000Z</time>
      </trkpt>
      <trkpt lat="48.83455" lon="2.33283">
        <ele>74.400001525879</ele>
        <time>2015-06-01T18:38:38.000Z</time>
      </trkpt>
      <trkpt lat="48.83455" lon="2.3328">
        <ele>74.400001525879</ele>
        <time>2015-06-01T18:38:42.000Z</time>
      </trkpt>
      <trkpt lat="48.83458" lon="2.33291">
        <ele>74.400001525879</ele>
        <time>2015-06-01T18:39:20.000Z</time>
      </trkpt>
      <trkpt lat="48.83454" lon="2.33289">
        <ele>74.400001525879</ele>
        <time>2015-06-01T18:39:25.000Z</time>
      </trkpt>
      <trkpt lat="48.83453" lon="2.33288">
        <ele>74.400001525879</ele>
        <time>2015-06-01T18:39:33.000Z</time>
      </trkpt>
      <trkpt lat="48.83453" lon="2.33287">
        <ele>74.400001525879</ele>
        <time>2015-06-01T18:39:48.000Z</time>
      </trkpt>
      <trkpt lat="48.83452" lon="2.33284">
        <ele>74.400001525879</ele>
        <time>2015-06-01T18:40:18.000Z</time>
      </trkpt>
      <trkpt lat="48.83451" lon="2.33283">
        <ele>74.400001525879</ele>
        <time>2015-06-01T18:40:37.000Z</time>
      </trkpt>
      <trkpt lat="48.83456" lon="2.33286">
        <ele>74.400001525879</ele>
        <time>2015-06-01T18:40:43.000Z</time>
      </trkpt>
      <trkpt lat="48.83454" lon="2.33285">
        <ele>74.400001525879</ele>
        <time>2015-06-01T18:40:53.000Z</time>
      </trkpt>
      <trkpt lat="48.83455" lon="2.33286">
        <ele>74.400001525879</ele>
        <time>2015-06-01T18:41:31.000Z</time>
      </trkpt>
      <trkpt lat="48.83457" lon="2.33283">
        <ele>74.400001525879</ele>
        <time>2015-06-01T18:41:37.000Z</time>
      </trkpt>
      <trkpt lat="48.83458" lon="2.33282">
        <ele>74.400001525879</ele>
        <time>2015-06-01T18:41:38.000Z</time>
      </trkpt>
      <trkpt lat="48.83466" lon="2.33285">
        <ele>74.400001525879</ele>
        <time>2015-06-01T18:41:43.000Z</time>
      </trkpt>
      <trkpt lat="48.83477" lon="2.33292">
        <ele>74.400001525879</ele>
        <time>2015-06-01T18:41:49.000Z</time>
      </trkpt>
      <trkpt lat="48.83493" lon="2.33306">
        <ele>74.400001525879</ele>
        <time>2015-06-01T18:41:56.000Z</time>
      </trkpt>
      <trkpt lat="48.83499" lon="2.3331">
        <ele>74.400001525879</ele>
        <time>2015-06-01T18:41:58.000Z</time>
      </trkpt>
      <trkpt lat="48.8351" lon="2.33319">
        <ele>74.400001525879</ele>
        <time>2015-06-01T18:42:02.000Z</time>
      </trkpt>
      <trkpt lat="48.83528" lon="2.33335">
        <ele>75.199996948242</ele>
        <time>2015-06-01T18:42:08.000Z</time>
      </trkpt>
      <trkpt lat="48.83544" lon="2.33347">
        <ele>76</ele>
        <time>2015-06-01T18:42:13.000Z</time>
      </trkpt>
      <trkpt lat="48.83563" lon="2.33365">
        <ele>77.199996948242</ele>
        <time>2015-06-01T18:42:18.000Z</time>
      </trkpt>
      <trkpt lat="48.83582" lon="2.33384">
        <ele>77.599998474121</ele>
        <time>2015-06-01T18:42:22.000Z</time>
      </trkpt>
      <trkpt lat="48.83588" lon="2.33389">
        <ele>77.800003051758</ele>
        <time>2015-06-01T18:42:23.000Z</time>
      </trkpt>
      <trkpt lat="48.83604" lon="2.33405">
        <ele>78</ele>
        <time>2015-06-01T18:42:26.000Z</time>
      </trkpt>
      <trkpt lat="48.8361" lon="2.3341">
        <ele>78.199996948242</ele>
        <time>2015-06-01T18:42:27.000Z</time>
      </trkpt>
      <trkpt lat="48.83636" lon="2.33437">
        <ele>78.400001525879</ele>
        <time>2015-06-01T18:42:31.000Z</time>
      </trkpt>
      <trkpt lat="48.83656" lon="2.33458">
        <ele>78.400001525879</ele>
        <time>2015-06-01T18:42:34.000Z</time>
      </trkpt>
      <trkpt lat="48.83676" lon="2.33477">
        <ele>78.599998474121</ele>
        <time>2015-06-01T18:42:37.000Z</time>
      </trkpt>
      <trkpt lat="48.83696" lon="2.33499">
        <ele>78.599998474121</ele>
        <time>2015-06-01T18:42:40.000Z</time>
      </trkpt>
      <trkpt lat="48.83716" lon="2.33517">
        <ele>78.599998474121</ele>
        <time>2015-06-01T18:42:43.000Z</time>
      </trkpt>
      <trkpt lat="48.83735" lon="2.33535">
        <ele>78.400001525879</ele>
        <time>2015-06-01T18:42:46.000Z</time>
      </trkpt>
      <trkpt lat="48.83744" lon="2.3354">
        <ele>78.400001525879</ele>
        <time>2015-06-01T18:42:47.000Z</time>
      </trkpt>
      <trkpt lat="48.83763" lon="2.33559">
        <ele>77.800003051758</ele>
        <time>2015-06-01T18:42:50.000Z</time>
      </trkpt>
      <trkpt lat="48.83782" lon="2.33579">
        <ele>77.199996948242</ele>
        <time>2015-06-01T18:42:53.000Z</time>
      </trkpt>
      <trkpt lat="48.83801" lon="2.33599">
        <ele>76.400001525879</ele>
        <time>2015-06-01T18:42:56.000Z</time>
      </trkpt>
      <trkpt lat="48.83819" lon="2.33618">
        <ele>75.400001525879</ele>
        <time>2015-06-01T18:42:59.000Z</time>
      </trkpt>
      <trkpt lat="48.83836" lon="2.33638">
        <ele>74.599998474121</ele>
        <time>2015-06-01T18:43:02.000Z</time>
      </trkpt>
      <trkpt lat="48.83841" lon="2.33645">
        <ele>74.400001525879</ele>
        <time>2015-06-01T18:43:03.000Z</time>
      </trkpt>
      <trkpt lat="48.83865" lon="2.33664">
        <ele>73.199996948242</ele>
        <time>2015-06-01T18:43:07.000Z</time>
      </trkpt>
      <trkpt lat="48.83872" lon="2.33667">
        <ele>72.800003051758</ele>
        <time>2015-06-01T18:43:08.000Z</time>
      </trkpt>
      <trkpt lat="48.83886" lon="2.33673">
        <ele>72.199996948242</ele>
        <time>2015-06-01T18:43:10.000Z</time>
      </trkpt>
      <trkpt lat="48.83912" lon="2.33675">
        <ele>71.400001525879</ele>
        <time>2015-06-01T18:43:14.000Z</time>
      </trkpt>
      <trkpt lat="48.83917" lon="2.33676">
        <ele>71.400001525879</ele>
        <time>2015-06-01T18:43:15.000Z</time>
      </trkpt>
      <trkpt lat="48.83932" lon="2.33679">
        <ele>71</ele>
        <time>2015-06-01T18:43:18.000Z</time>
      </trkpt>
      <trkpt lat="48.83939" lon="2.33681">
        <ele>70.800003051758</ele>
        <time>2015-06-01T18:43:20.000Z</time>
      </trkpt>
      <trkpt lat="48.83952" lon="2.33684">
        <ele>70.400001525879</ele>
        <time>2015-06-01T18:43:24.000Z</time>
      </trkpt>
      <trkpt lat="48.83962" lon="2.3369">
        <ele>70.199996948242</ele>
        <time>2015-06-01T18:43:29.000Z</time>
      </trkpt>
      <trkpt lat="48.83963" lon="2.33692">
        <ele>70.199996948242</ele>
        <time>2015-06-01T18:43:30.000Z</time>
      </trkpt>
      <trkpt lat="48.83964" lon="2.33692">
        <ele>70.199996948242</ele>
        <time>2015-06-01T18:43:31.000Z</time>
      </trkpt>
      <trkpt lat="48.83967" lon="2.3369">
        <ele>70.199996948242</ele>
        <time>2015-06-01T18:43:34.000Z</time>
      </trkpt>
      <trkpt lat="48.83965" lon="2.33682">
        <ele>70</ele>
        <time>2015-06-01T18:44:07.000Z</time>
      </trkpt>
      <trkpt lat="48.8397" lon="2.33681">
        <ele>70</ele>
        <time>2015-06-01T18:44:28.000Z</time>
      </trkpt>
      <trkpt lat="48.83972" lon="2.33679">
        <ele>70</ele>
        <time>2015-06-01T18:44:29.000Z</time>
      </trkpt>
      <trkpt lat="48.83982" lon="2.33671">
        <ele>70</ele>
        <time>2015-06-01T18:44:33.000Z</time>
      </trkpt>
      <trkpt lat="48.83985" lon="2.33663">
        <ele>70</ele>
        <time>2015-06-01T18:44:36.000Z</time>
      </trkpt>
      <trkpt lat="48.83986" lon="2.33663">
        <ele>70</ele>
        <time>2015-06-01T18:44:37.000Z</time>
      </trkpt>
      <trkpt lat="48.83994" lon="2.33668">
        <ele>68.599998474121</ele>
        <time>2015-06-01T18:45:04.000Z</time>
      </trkpt>
      <trkpt lat="48.83996" lon="2.33669">
        <ele>68.400001525879</ele>
        <time>2015-06-01T18:45:05.000Z</time>
      </trkpt>
      <trkpt lat="48.84006" lon="2.33674">
        <ele>68.199996948242</ele>
        <time>2015-06-01T18:45:09.000Z</time>
      </trkpt>
      <trkpt lat="48.84008" lon="2.33678">
        <ele>68.199996948242</ele>
        <time>2015-06-01T18:45:10.000Z</time>
      </trkpt>
      <trkpt lat="48.84025" lon="2.33696">
        <ele>68</ele>
        <time>2015-06-01T18:45:15.000Z</time>
      </trkpt>
      <trkpt lat="48.84039" lon="2.33704">
        <ele>68</ele>
        <time>2015-06-01T18:45:18.000Z</time>
      </trkpt>
      <trkpt lat="48.84055" lon="2.3372">
        <ele>68</ele>
        <time>2015-06-01T18:45:22.000Z</time>
      </trkpt>
      <trkpt lat="48.84079" lon="2.33732">
        <ele>68</ele>
        <time>2015-06-01T18:45:27.000Z</time>
      </trkpt>
      <trkpt lat="48.84102" lon="2.33742">
        <ele>68</ele>
        <time>2015-06-01T18:45:31.000Z</time>
      </trkpt>
      <trkpt lat="48.8412" lon="2.33749">
        <ele>68</ele>
        <time>2015-06-01T18:45:34.000Z</time>
      </trkpt>
      <trkpt lat="48.84141" lon="2.33756">
        <ele>68</ele>
        <time>2015-06-01T18:45:37.000Z</time>
      </trkpt>
      <trkpt lat="48.84149" lon="2.33758">
        <ele>68</ele>
        <time>2015-06-01T18:45:38.000Z</time>
      </trkpt>
      <trkpt lat="48.84172" lon="2.33771">
        <ele>68</ele>
        <time>2015-06-01T18:45:41.000Z</time>
      </trkpt>
      <trkpt lat="48.8418" lon="2.33776">
        <ele>68</ele>
        <time>2015-06-01T18:45:42.000Z</time>
      </trkpt>
      <trkpt lat="48.84186" lon="2.33782">
        <ele>68</ele>
        <time>2015-06-01T18:45:43.000Z</time>
      </trkpt>
      <trkpt lat="48.84215" lon="2.33798">
        <ele>68</ele>
        <time>2015-06-01T18:45:47.000Z</time>
      </trkpt>
      <trkpt lat="48.84223" lon="2.33803">
        <ele>68</ele>
        <time>2015-06-01T18:45:48.000Z</time>
      </trkpt>
      <trkpt lat="48.8424" lon="2.33813">
        <ele>68</ele>
        <time>2015-06-01T18:45:50.000Z</time>
      </trkpt>
      <trkpt lat="48.84248" lon="2.33817">
        <ele>68</ele>
        <time>2015-06-01T18:45:51.000Z</time>
      </trkpt>
      <trkpt lat="48.84272" lon="2.3383">
        <ele>67.800003051758</ele>
        <time>2015-06-01T18:45:54.000Z</time>
      </trkpt>
      <trkpt lat="48.84293" lon="2.33841">
        <ele>67.599998474121</ele>
        <time>2015-06-01T18:45:57.000Z</time>
      </trkpt>
      <trkpt lat="48.84315" lon="2.33854">
        <ele>67.199996948242</ele>
        <time>2015-06-01T18:46:00.000Z</time>
      </trkpt>
      <trkpt lat="48.84332" lon="2.33868">
        <ele>66.800003051758</ele>
        <time>2015-06-01T18:46:03.000Z</time>
      </trkpt>
      <trkpt lat="48.84349" lon="2.3388">
        <ele>66.599998474121</ele>
        <time>2015-06-01T18:46:05.000Z</time>
      </trkpt>
      <trkpt lat="48.84365" lon="2.33894">
        <ele>66.400001525879</ele>
        <time>2015-06-01T18:46:07.000Z</time>
      </trkpt>
      <trkpt lat="48.84386" lon="2.33907">
        <ele>66.400001525879</ele>
        <time>2015-06-01T18:46:10.000Z</time>
      </trkpt>
      <trkpt lat="48.84393" lon="2.33909">
        <ele>66.199996948242</ele>
        <time>2015-06-01T18:46:11.000Z</time>
      </trkpt>
      <trkpt lat="48.84412" lon="2.33916">
        <ele>66.199996948242</ele>
        <time>2015-06-01T18:46:14.000Z</time>
      </trkpt>
      <trkpt lat="48.84423" lon="2.3392">
        <ele>66.199996948242</ele>
        <time>2015-06-01T18:46:16.000Z</time>
      </trkpt>
      <trkpt lat="48.84448" lon="2.33934">
        <ele>65.400001525879</ele>
        <time>2015-06-01T18:46:20.000Z</time>
      </trkpt>
      <trkpt lat="48.84469" lon="2.3395">
        <ele>65</ele>
        <time>2015-06-01T18:46:23.000Z</time>
      </trkpt>
      <trkpt lat="48.8449" lon="2.33965">
        <ele>64.599998474121</ele>
        <time>2015-06-01T18:46:26.000Z</time>
      </trkpt>
      <trkpt lat="48.84495" lon="2.33964">
        <ele>64.599998474121</ele>
        <time>2015-06-01T18:46:27.000Z</time>
      </trkpt>
      <trkpt lat="48.84516" lon="2.33966">
        <ele>64.199996948242</ele>
        <time>2015-06-01T18:46:31.000Z</time>
      </trkpt>
      <trkpt lat="48.84537" lon="2.33973">
        <ele>64.199996948242</ele>
        <time>2015-06-01T18:46:35.000Z</time>
      </trkpt>
      <trkpt lat="48.8455" lon="2.33977">
        <ele>64</ele>
        <time>2015-06-01T18:46:37.000Z</time>
      </trkpt>
      <trkpt lat="48.84573" lon="2.33996">
        <ele>64</ele>
        <time>2015-06-01T18:46:41.000Z</time>
      </trkpt>
      <trkpt lat="48.84579" lon="2.34001">
        <ele>64</ele>
        <time>2015-06-01T18:46:42.000Z</time>
      </trkpt>
      <trkpt lat="48.84596" lon="2.34009">
        <ele>64</ele>
        <time>2015-06-01T18:46:45.000Z</time>
      </trkpt>
      <trkpt lat="48.84617" lon="2.34021">
        <ele>64.400001525879</ele>
        <time>2015-06-01T18:46:49.000Z</time>
      </trkpt>
      <trkpt lat="48.84622" lon="2.34026">
        <ele>64.599998474121</ele>
        <time>2015-06-01T18:46:50.000Z</time>
      </trkpt>
      <trkpt lat="48.84626" lon="2.3403">
        <ele>64.800003051758</ele>
        <time>2015-06-01T18:46:51.000Z</time>
      </trkpt>
      <trkpt lat="48.84649" lon="2.34046">
        <ele>65.199996948242</ele>
        <time>2015-06-01T18:46:56.000Z</time>
      </trkpt>
      <trkpt lat="48.84652" lon="2.34047">
        <ele>65.199996948242</ele>
        <time>2015-06-01T18:46:57.000Z</time>
      </trkpt>
      <trkpt lat="48.84664" lon="2.34055">
        <ele>65.400001525879</ele>
        <time>2015-06-01T18:47:01.000Z</time>
      </trkpt>
      <trkpt lat="48.84672" lon="2.3406">
        <ele>65.599998474121</ele>
        <time>2015-06-01T18:47:05.000Z</time>
      </trkpt>
      <trkpt lat="48.84675" lon="2.34058">
        <ele>65.800003051758</ele>
        <time>2015-06-01T18:47:10.000Z</time>
      </trkpt>
      <trkpt lat="48.84678" lon="2.34057">
        <ele>65.800003051758</ele>
        <time>2015-06-01T18:47:22.000Z</time>
      </trkpt>
      <trkpt lat="48.84682" lon="2.3406">
        <ele>65.800003051758</ele>
        <time>2015-06-01T18:47:29.000Z</time>
      </trkpt>
      <trkpt lat="48.84685" lon="2.34061">
        <ele>65.800003051758</ele>
        <time>2015-06-01T18:47:41.000Z</time>
      </trkpt>
      <trkpt lat="48.84692" lon="2.34069">
        <ele>65.800003051758</ele>
        <time>2015-06-01T18:47:45.000Z</time>
      </trkpt>
      <trkpt lat="48.84704" lon="2.34075">
        <ele>65.800003051758</ele>
        <time>2015-06-01T18:47:49.000Z</time>
      </trkpt>
      <trkpt lat="48.84718" lon="2.34084">
        <ele>65.800003051758</ele>
        <time>2015-06-01T18:47:54.000Z</time>
      </trkpt>
      <trkpt lat="48.84722" lon="2.34086">
        <ele>65.800003051758</ele>
        <time>2015-06-01T18:47:59.000Z</time>
      </trkpt>
      <trkpt lat="48.84729" lon="2.34083">
        <ele>65.800003051758</ele>
        <time>2015-06-01T18:48:11.000Z</time>
      </trkpt>
      <trkpt lat="48.84739" lon="2.34079">
        <ele>65.800003051758</ele>
        <time>2015-06-01T18:48:32.000Z</time>
      </trkpt>
      <trkpt lat="48.84745" lon="2.34078">
        <ele>66.199996948242</ele>
        <time>2015-06-01T18:48:41.000Z</time>
      </trkpt>
      <trkpt lat="48.84757" lon="2.34087">
        <ele>66.800003051758</ele>
        <time>2015-06-01T18:48:45.000Z</time>
      </trkpt>
      <trkpt lat="48.84777" lon="2.34104">
        <ele>67.199996948242</ele>
        <time>2015-06-01T18:48:49.000Z</time>
      </trkpt>
      <trkpt lat="48.84798" lon="2.34119">
        <ele>67.400001525879</ele>
        <time>2015-06-01T18:48:52.000Z</time>
      </trkpt>
      <trkpt lat="48.8482" lon="2.34133">
        <ele>67.599998474121</ele>
        <time>2015-06-01T18:48:55.000Z</time>
      </trkpt>
      <trkpt lat="48.84838" lon="2.34144">
        <ele>67.599998474121</ele>
        <time>2015-06-01T18:48:57.000Z</time>
      </trkpt>
      <trkpt lat="48.84853" lon="2.34155">
        <ele>67.599998474121</ele>
        <time>2015-06-01T18:48:59.000Z</time>
      </trkpt>
      <trkpt lat="48.84878" lon="2.3417">
        <ele>67.800003051758</ele>
        <time>2015-06-01T18:49:02.000Z</time>
      </trkpt>
      <trkpt lat="48.84895" lon="2.34181">
        <ele>67.800003051758</ele>
        <time>2015-06-01T18:49:04.000Z</time>
      </trkpt>
      <trkpt lat="48.84918" lon="2.34192">
        <ele>67.800003051758</ele>
        <time>2015-06-01T18:49:07.000Z</time>
      </trkpt>
      <trkpt lat="48.84941" lon="2.342">
        <ele>67.800003051758</ele>
        <time>2015-06-01T18:49:10.000Z</time>
      </trkpt>
      <trkpt lat="48.84966" lon="2.34206">
        <ele>67.800003051758</ele>
        <time>2015-06-01T18:49:13.000Z</time>
      </trkpt>
      <trkpt lat="48.84974" lon="2.34211">
        <ele>67.800003051758</ele>
        <time>2015-06-01T18:49:14.000Z</time>
      </trkpt>
      <trkpt lat="48.84997" lon="2.34229">
        <ele>67.800003051758</ele>
        <time>2015-06-01T18:49:17.000Z</time>
      </trkpt>
      <trkpt lat="48.85006" lon="2.34238">
        <ele>68</ele>
        <time>2015-06-01T18:49:18.000Z</time>
      </trkpt>
      <trkpt lat="48.85039" lon="2.34257">
        <ele>68</ele>
        <time>2015-06-01T18:49:22.000Z</time>
      </trkpt>
      <trkpt lat="48.85046" lon="2.34262">
        <ele>68</ele>
        <time>2015-06-01T18:49:23.000Z</time>
      </trkpt>
      <trkpt lat="48.8506" lon="2.34271">
        <ele>68</ele>
        <time>2015-06-01T18:49:25.000Z</time>
      </trkpt>
      <trkpt lat="48.85089" lon="2.34283">
        <ele>68</ele>
        <time>2015-06-01T18:49:29.000Z</time>
      </trkpt>
      <trkpt lat="48.85097" lon="2.34287">
        <ele>68</ele>
        <time>2015-06-01T18:49:30.000Z</time>
      </trkpt>
      <trkpt lat="48.85104" lon="2.34293">
        <ele>68</ele>
        <time>2015-06-01T18:49:31.000Z</time>
      </trkpt>
      <trkpt lat="48.85129" lon="2.3431">
        <ele>67.199996948242</ele>
        <time>2015-06-01T18:49:35.000Z</time>
      </trkpt>
      <trkpt lat="48.85136" lon="2.34323">
        <ele>67</ele>
        <time>2015-06-01T18:49:37.000Z</time>
      </trkpt>
      <trkpt lat="48.85136" lon="2.34332">
        <ele>66.800003051758</ele>
        <time>2015-06-01T18:49:38.000Z</time>
      </trkpt>
      <trkpt lat="48.85134" lon="2.3434">
        <ele>66.800003051758</ele>
        <time>2015-06-01T18:49:39.000Z</time>
      </trkpt>
      <trkpt lat="48.85131" lon="2.34353">
        <ele>66.199996948242</ele>
        <time>2015-06-01T18:49:41.000Z</time>
      </trkpt>
      <trkpt lat="48.85122" lon="2.34371">
        <ele>65</ele>
        <time>2015-06-01T18:49:45.000Z</time>
      </trkpt>
      <trkpt lat="48.85129" lon="2.34357">
        <ele>63.599998474121</ele>
        <time>2015-06-01T18:49:49.000Z</time>
      </trkpt>
      <trkpt lat="48.85137" lon="2.34336">
        <ele>62.400001525879</ele>
        <time>2015-06-01T18:49:52.000Z</time>
      </trkpt>
      <trkpt lat="48.85155" lon="2.34328">
        <ele>60.599998474121</ele>
        <time>2015-06-01T18:49:56.000Z</time>
      </trkpt>
      <trkpt lat="48.85168" lon="2.34334">
        <ele>59.799999237061</ele>
        <time>2015-06-01T18:49:58.000Z</time>
      </trkpt>
      <trkpt lat="48.85181" lon="2.34342">
        <ele>59.400001525879</ele>
        <time>2015-06-01T18:50:00.000Z</time>
      </trkpt>
      <trkpt lat="48.85187" lon="2.34346">
        <ele>59</ele>
        <time>2015-06-01T18:50:01.000Z</time>
      </trkpt>
      <trkpt lat="48.85213" lon="2.34359">
        <ele>57.400001525879</ele>
        <time>2015-06-01T18:50:06.000Z</time>
      </trkpt>
      <trkpt lat="48.8523" lon="2.34371">
        <ele>56.799999237061</ele>
        <time>2015-06-01T18:50:09.000Z</time>
      </trkpt>
      <trkpt lat="48.85236" lon="2.34377">
        <ele>56.599998474121</ele>
        <time>2015-06-01T18:50:10.000Z</time>
      </trkpt>
      <trkpt lat="48.8526" lon="2.34388">
        <ele>56</ele>
        <time>2015-06-01T18:50:15.000Z</time>
      </trkpt>
      <trkpt lat="48.85265" lon="2.34389">
        <ele>55.799999237061</ele>
        <time>2015-06-01T18:50:16.000Z</time>
      </trkpt>
      <trkpt lat="48.85284" lon="2.34397">
        <ele>56.200000762939</ele>
        <time>2015-06-01T18:50:20.000Z</time>
      </trkpt>
      <trkpt lat="48.85296" lon="2.34402">
        <ele>56.400001525879</ele>
        <time>2015-06-01T18:50:23.000Z</time>
      </trkpt>
      <trkpt lat="48.85321" lon="2.34413">
        <ele>56.799999237061</ele>
        <time>2015-06-01T18:50:29.000Z</time>
      </trkpt>
      <trkpt lat="48.85325" lon="2.34415">
        <ele>56.799999237061</ele>
        <time>2015-06-01T18:50:30.000Z</time>
      </trkpt>
      <trkpt lat="48.85329" lon="2.34417">
        <ele>57</ele>
        <time>2015-06-01T18:50:33.000Z</time>
      </trkpt>
      <trkpt lat="48.85331" lon="2.34415">
        <ele>57.200000762939</ele>
        <time>2015-06-01T18:50:39.000Z</time>
      </trkpt>
      <trkpt lat="48.8533" lon="2.34412">
        <ele>57.200000762939</ele>
        <time>2015-06-01T18:50:41.000Z</time>
      </trkpt>
      <trkpt lat="48.85335" lon="2.34414">
        <ele>57.200000762939</ele>
        <time>2015-06-01T18:50:45.000Z</time>
      </trkpt>
      <trkpt lat="48.85346" lon="2.34421">
        <ele>57.200000762939</ele>
        <time>2015-06-01T18:50:49.000Z</time>
      </trkpt>
      <trkpt lat="48.85363" lon="2.34434">
        <ele>57.200000762939</ele>
        <time>2015-06-01T18:50:54.000Z</time>
      </trkpt>
      <trkpt lat="48.8537" lon="2.34439">
        <ele>57.200000762939</ele>
        <time>2015-06-01T18:50:57.000Z</time>
      </trkpt>
      <trkpt lat="48.85378" lon="2.34441">
        <ele>56</ele>
        <time>2015-06-01T18:51:19.000Z</time>
      </trkpt>
      <trkpt lat="48.8539" lon="2.34449">
        <ele>55.799999237061</ele>
        <time>2015-06-01T18:51:23.000Z</time>
      </trkpt>
      <trkpt lat="48.85406" lon="2.34465">
        <ele>55.400001525879</ele>
        <time>2015-06-01T18:51:28.000Z</time>
      </trkpt>
      <trkpt lat="48.85418" lon="2.34478">
        <ele>54.599998474121</ele>
        <time>2015-06-01T18:51:32.000Z</time>
      </trkpt>
      <trkpt lat="48.85435" lon="2.34496">
        <ele>54</ele>
        <time>2015-06-01T18:51:37.000Z</time>
      </trkpt>
      <trkpt lat="48.85439" lon="2.345">
        <ele>53.799999237061</ele>
        <time>2015-06-01T18:51:38.000Z</time>
      </trkpt>
      <trkpt lat="48.85452" lon="2.34518">
        <ele>52.599998474121</ele>
        <time>2015-06-01T18:51:43.000Z</time>
      </trkpt>
      <trkpt lat="48.85464" lon="2.34536">
        <ele>52</ele>
        <time>2015-06-01T18:51:47.000Z</time>
      </trkpt>
      <trkpt lat="48.8547" lon="2.34545">
        <ele>51.799999237061</ele>
        <time>2015-06-01T18:51:49.000Z</time>
      </trkpt>
      <trkpt lat="48.85476" lon="2.34553">
        <ele>51.599998474121</ele>
        <time>2015-06-01T18:51:51.000Z</time>
      </trkpt>
      <trkpt lat="48.85487" lon="2.34575">
        <ele>51.200000762939</ele>
        <time>2015-06-01T18:51:56.000Z</time>
      </trkpt>
      <trkpt lat="48.85505" lon="2.34591">
        <ele>51.200000762939</ele>
        <time>2015-06-01T18:52:00.000Z</time>
      </trkpt>
      <trkpt lat="48.85523" lon="2.34602">
        <ele>51</ele>
        <time>2015-06-01T18:52:03.000Z</time>
      </trkpt>
      <trkpt lat="48.85544" lon="2.34614">
        <ele>51</ele>
        <time>2015-06-01T18:52:07.000Z</time>
      </trkpt>
      <trkpt lat="48.85548" lon="2.34617">
        <ele>51</ele>
        <time>2015-06-01T18:52:08.000Z</time>
      </trkpt>
      <trkpt lat="48.85559" lon="2.3462">
        <ele>50.799999237061</ele>
        <time>2015-06-01T18:52:12.000Z</time>
      </trkpt>
      <trkpt lat="48.85571" lon="2.34626">
        <ele>50.799999237061</ele>
        <time>2015-06-01T18:52:16.000Z</time>
      </trkpt>
      <trkpt lat="48.85592" lon="2.34645">
        <ele>50.799999237061</ele>
        <time>2015-06-01T18:52:20.000Z</time>
      </trkpt>
      <trkpt lat="48.85599" lon="2.34651">
        <ele>50.799999237061</ele>
        <time>2015-06-01T18:52:21.000Z</time>
      </trkpt>
      <trkpt lat="48.85614" lon="2.34662">
        <ele>50.799999237061</ele>
        <time>2015-06-01T18:52:23.000Z</time>
      </trkpt>
      <trkpt lat="48.85627" lon="2.34672">
        <ele>50.400001525879</ele>
        <time>2015-06-01T18:52:25.000Z</time>
      </trkpt>
      <trkpt lat="48.85653" lon="2.34686">
        <ele>49.599998474121</ele>
        <time>2015-06-01T18:52:30.000Z</time>
      </trkpt>
      <trkpt lat="48.85657" lon="2.34688">
        <ele>49.400001525879</ele>
        <time>2015-06-01T18:52:31.000Z</time>
      </trkpt>
      <trkpt lat="48.8568" lon="2.34703">
        <ele>48</ele>
        <time>2015-06-01T18:52:37.000Z</time>
      </trkpt>
      <trkpt lat="48.85689" lon="2.34708">
        <ele>47.400001525879</ele>
        <time>2015-06-01T18:52:40.000Z</time>
      </trkpt>
      <trkpt lat="48.85702" lon="2.34717">
        <ele>46</ele>
        <time>2015-06-01T18:52:45.000Z</time>
      </trkpt>
      <trkpt lat="48.85703" lon="2.34718">
        <ele>46</ele>
        <time>2015-06-01T18:52:46.000Z</time>
      </trkpt>
      <trkpt lat="48.85704" lon="2.34725">
        <ele>45.400001525879</ele>
        <time>2015-06-01T18:52:50.000Z</time>
      </trkpt>
      <trkpt lat="48.85705" lon="2.34726">
        <ele>44.599998474121</ele>
        <time>2015-06-01T18:52:54.000Z</time>
      </trkpt>
      <trkpt lat="48.85711" lon="2.34734">
        <ele>43.799999237061</ele>
        <time>2015-06-01T18:52:58.000Z</time>
      </trkpt>
      <trkpt lat="48.85719" lon="2.34747">
        <ele>43.200000762939</ele>
        <time>2015-06-01T18:53:02.000Z</time>
      </trkpt>
      <trkpt lat="48.85735" lon="2.34764">
        <ele>42.799999237061</ele>
        <time>2015-06-01T18:53:08.000Z</time>
      </trkpt>
      <trkpt lat="48.85754" lon="2.34775">
        <ele>42.599998474121</ele>
        <time>2015-06-01T18:53:13.000Z</time>
      </trkpt>
      <trkpt lat="48.85767" lon="2.34787">
        <ele>42.400001525879</ele>
        <time>2015-06-01T18:53:17.000Z</time>
      </trkpt>
      <trkpt lat="48.85791" lon="2.34793">
        <ele>42.400001525879</ele>
        <time>2015-06-01T18:53:23.000Z</time>
      </trkpt>
      <trkpt lat="48.85807" lon="2.34803">
        <ele>42.200000762939</ele>
        <time>2015-06-01T18:53:27.000Z</time>
      </trkpt>
      <trkpt lat="48.85811" lon="2.34806">
        <ele>42.200000762939</ele>
        <time>2015-06-01T18:53:28.000Z</time>
      </trkpt>
      <trkpt lat="48.85815" lon="2.34809">
        <ele>42.200000762939</ele>
        <time>2015-06-01T18:53:29.000Z</time>
      </trkpt>
      <trkpt lat="48.8583" lon="2.34814">
        <ele>42.200000762939</ele>
        <time>2015-06-01T18:53:33.000Z</time>
      </trkpt>
      <trkpt lat="48.85834" lon="2.34815">
        <ele>42.200000762939</ele>
        <time>2015-06-01T18:53:34.000Z</time>
      </trkpt>
      <trkpt lat="48.85846" lon="2.34821">
        <ele>42.200000762939</ele>
        <time>2015-06-01T18:53:38.000Z</time>
      </trkpt>
      <trkpt lat="48.85847" lon="2.34825">
        <ele>42.200000762939</ele>
        <time>2015-06-01T18:53:43.000Z</time>
      </trkpt>
      <trkpt lat="48.85847" lon="2.34824">
        <ele>42.200000762939</ele>
        <time>2015-06-01T18:53:58.000Z</time>
      </trkpt>
      <trkpt lat="48.85857" lon="2.3483">
        <ele>42.200000762939</ele>
        <time>2015-06-01T18:54:03.000Z</time>
      </trkpt>
      <trkpt lat="48.8586" lon="2.34832">
        <ele>42.200000762939</ele>
        <time>2015-06-01T18:54:04.000Z</time>
      </trkpt>
      <trkpt lat="48.85872" lon="2.34841">
        <ele>42.200000762939</ele>
        <time>2015-06-01T18:54:08.000Z</time>
      </trkpt>
      <trkpt lat="48.85875" lon="2.34843">
        <ele>42.200000762939</ele>
        <time>2015-06-01T18:54:09.000Z</time>
      </trkpt>
      <trkpt lat="48.85885" lon="2.34848">
        <ele>42.200000762939</ele>
        <time>2015-06-01T18:54:12.000Z</time>
      </trkpt>
      <trkpt lat="48.85903" lon="2.3486">
        <ele>43</ele>
        <time>2015-06-01T18:54:17.000Z</time>
      </trkpt>
      <trkpt lat="48.85912" lon="2.34865">
        <ele>43.400001525879</ele>
        <time>2015-06-01T18:54:21.000Z</time>
      </trkpt>
      <trkpt lat="48.85916" lon="2.34867">
        <ele>43.599998474121</ele>
        <time>2015-06-01T18:54:22.000Z</time>
      </trkpt>
      <trkpt lat="48.85932" lon="2.34874">
        <ele>44.599998474121</ele>
        <time>2015-06-01T18:54:26.000Z</time>
      </trkpt>
      <trkpt lat="48.85936" lon="2.34876">
        <ele>44.599998474121</ele>
        <time>2015-06-01T18:54:27.000Z</time>
      </trkpt>
      <trkpt lat="48.85949" lon="2.34882">
        <ele>45.200000762939</ele>
        <time>2015-06-01T18:54:31.000Z</time>
      </trkpt>
      <trkpt lat="48.8597" lon="2.34895">
        <ele>46.400001525879</ele>
        <time>2015-06-01T18:54:36.000Z</time>
      </trkpt>
      <trkpt lat="48.85989" lon="2.34909">
        <ele>47.200000762939</ele>
        <time>2015-06-01T18:54:40.000Z</time>
      </trkpt>
      <trkpt lat="48.86006" lon="2.34917">
        <ele>47.799999237061</ele>
        <time>2015-06-01T18:54:44.000Z</time>
      </trkpt>
      <trkpt lat="48.8601" lon="2.3492">
        <ele>48.200000762939</ele>
        <time>2015-06-01T18:54:45.000Z</time>
      </trkpt>
      <trkpt lat="48.86013" lon="2.34922">
        <ele>48.400001525879</ele>
        <time>2015-06-01T18:54:46.000Z</time>
      </trkpt>
      <trkpt lat="48.86031" lon="2.34929">
        <ele>49.400001525879</ele>
        <time>2015-06-01T18:54:51.000Z</time>
      </trkpt>
      <trkpt lat="48.8604" lon="2.34934">
        <ele>50</ele>
        <time>2015-06-01T18:54:53.000Z</time>
      </trkpt>
      <trkpt lat="48.86057" lon="2.34939">
        <ele>51</ele>
        <time>2015-06-01T18:54:57.000Z</time>
      </trkpt>
      <trkpt lat="48.86066" lon="2.34942">
        <ele>51.200000762939</ele>
        <time>2015-06-01T18:54:59.000Z</time>
      </trkpt>
      <trkpt lat="48.86089" lon="2.34956">
        <ele>52.200000762939</ele>
        <time>2015-06-01T18:55:04.000Z</time>
      </trkpt>
      <trkpt lat="48.86096" lon="2.34961">
        <ele>52.799999237061</ele>
        <time>2015-06-01T18:55:05.000Z</time>
      </trkpt>
      <trkpt lat="48.86124" lon="2.34973">
        <ele>53.599998474121</ele>
        <time>2015-06-01T18:55:10.000Z</time>
      </trkpt>
      <trkpt lat="48.86129" lon="2.34977">
        <ele>53.799999237061</ele>
        <time>2015-06-01T18:55:11.000Z</time>
      </trkpt>
      <trkpt lat="48.86146" lon="2.3499">
        <ele>54.400001525879</ele>
        <time>2015-06-01T18:55:14.000Z</time>
      </trkpt>
      <trkpt lat="48.8615" lon="2.34995">
        <ele>54.599998474121</ele>
        <time>2015-06-01T18:55:15.000Z</time>
      </trkpt>
      <trkpt lat="48.86164" lon="2.35003">
        <ele>55.200000762939</ele>
        <time>2015-06-01T18:55:18.000Z</time>
      </trkpt>
      <trkpt lat="48.8618" lon="2.35016">
        <ele>55.799999237061</ele>
        <time>2015-06-01T18:55:21.000Z</time>
      </trkpt>
      <trkpt lat="48.86197" lon="2.35024">
        <ele>56.200000762939</ele>
        <time>2015-06-01T18:55:25.000Z</time>
      </trkpt>
      <trkpt lat="48.86204" lon="2.35024">
        <ele>56.599998474121</ele>
        <time>2015-06-01T18:55:27.000Z</time>
      </trkpt>
      <trkpt lat="48.86213" lon="2.35031">
        <ele>57.400001525879</ele>
        <time>2015-06-01T18:55:31.000Z</time>
      </trkpt>
      <trkpt lat="48.86226" lon="2.3504">
        <ele>58</ele>
        <time>2015-06-01T18:55:35.000Z</time>
      </trkpt>
      <trkpt lat="48.8624" lon="2.35046">
        <ele>58.200000762939</ele>
        <time>2015-06-01T18:55:38.000Z</time>
      </trkpt>
      <trkpt lat="48.86249" lon="2.3505">
        <ele>58.599998474121</ele>
        <time>2015-06-01T18:55:40.000Z</time>
      </trkpt>
      <trkpt lat="48.86268" lon="2.35067">
        <ele>59.599998474121</ele>
        <time>2015-06-01T18:55:45.000Z</time>
      </trkpt>
      <trkpt lat="48.86303" lon="2.35085">
        <ele>60.400001525879</ele>
        <time>2015-06-01T18:55:52.000Z</time>
      </trkpt>
      <trkpt lat="48.86314" lon="2.35096">
        <ele>60.799999237061</ele>
        <time>2015-06-01T18:55:56.000Z</time>
      </trkpt>
      <trkpt lat="48.86331" lon="2.35101">
        <ele>61</ele>
        <time>2015-06-01T18:56:02.000Z</time>
      </trkpt>
      <trkpt lat="48.86332" lon="2.351">
        <ele>61</ele>
        <time>2015-06-01T18:56:03.000Z</time>
      </trkpt>
      <trkpt lat="48.86332" lon="2.35097">
        <ele>61</ele>
        <time>2015-06-01T18:56:05.000Z</time>
      </trkpt>
      <trkpt lat="48.86339" lon="2.35098">
        <ele>61</ele>
        <time>2015-06-01T18:56:09.000Z</time>
      </trkpt>
      <trkpt lat="48.8636" lon="2.35109">
        <ele>61.200000762939</ele>
        <time>2015-06-01T18:56:14.000Z</time>
      </trkpt>
      <trkpt lat="48.86377" lon="2.35123">
        <ele>61.599998474121</ele>
        <time>2015-06-01T18:56:18.000Z</time>
      </trkpt>
      <trkpt lat="48.86397" lon="2.35133">
        <ele>62</ele>
        <time>2015-06-01T18:56:22.000Z</time>
      </trkpt>
      <trkpt lat="48.86416" lon="2.35144">
        <ele>62.400001525879</ele>
        <time>2015-06-01T18:56:26.000Z</time>
      </trkpt>
      <trkpt lat="48.8642" lon="2.35146">
        <ele>62.599998474121</ele>
        <time>2015-06-01T18:56:27.000Z</time>
      </trkpt>
      <trkpt lat="48.86437" lon="2.35155">
        <ele>63.400001525879</ele>
        <time>2015-06-01T18:56:31.000Z</time>
      </trkpt>
      <trkpt lat="48.86448" lon="2.35168">
        <ele>63.799999237061</ele>
        <time>2015-06-01T18:56:34.000Z</time>
      </trkpt>
      <trkpt lat="48.86453" lon="2.35172">
        <ele>64.199996948242</ele>
        <time>2015-06-01T18:56:36.000Z</time>
      </trkpt>
      <trkpt lat="48.86455" lon="2.35174">
        <ele>64.599998474121</ele>
        <time>2015-06-01T18:56:40.000Z</time>
      </trkpt>
      <trkpt lat="48.86456" lon="2.35173">
        <ele>65.199996948242</ele>
        <time>2015-06-01T18:56:44.000Z</time>
      </trkpt>
      <trkpt lat="48.86457" lon="2.35173">
        <ele>65.400001525879</ele>
        <time>2015-06-01T18:56:45.000Z</time>
      </trkpt>
      <trkpt lat="48.865" lon="2.35189">
        <ele>68.199996948242</ele>
        <time>2015-06-01T18:56:56.000Z</time>
      </trkpt>
      <trkpt lat="48.86506" lon="2.35194">
        <ele>68.599998474121</ele>
        <time>2015-06-01T18:56:57.000Z</time>
      </trkpt>
      <trkpt lat="48.86519" lon="2.35202">
        <ele>69.199996948242</ele>
        <time>2015-06-01T18:56:59.000Z</time>
      </trkpt>
      <trkpt lat="48.86531" lon="2.35208">
        <ele>69.800003051758</ele>
        <time>2015-06-01T18:57:01.000Z</time>
      </trkpt>
      <trkpt lat="48.86549" lon="2.35214">
        <ele>70.400001525879</ele>
        <time>2015-06-01T18:57:04.000Z</time>
      </trkpt>
      <trkpt lat="48.86576" lon="2.3523">
        <ele>71</ele>
        <time>2015-06-01T18:57:09.000Z</time>
      </trkpt>
      <trkpt lat="48.86595" lon="2.35245">
        <ele>71.599998474121</ele>
        <time>2015-06-01T18:57:13.000Z</time>
      </trkpt>
      <trkpt lat="48.86607" lon="2.35254">
        <ele>72.199996948242</ele>
        <time>2015-06-01T18:57:16.000Z</time>
      </trkpt>
      <trkpt lat="48.86618" lon="2.35262">
        <ele>72.800003051758</ele>
        <time>2015-06-01T18:57:20.000Z</time>
      </trkpt>
      <trkpt lat="48.8662" lon="2.35264">
        <ele>73</ele>
        <time>2015-06-01T18:57:21.000Z</time>
      </trkpt>
      <trkpt lat="48.86621" lon="2.35267">
        <ele>73</ele>
        <time>2015-06-01T18:57:22.000Z</time>
      </trkpt>
      <trkpt lat="48.8662" lon="2.35265">
        <ele>73.400001525879</ele>
        <time>2015-06-01T18:57:27.000Z</time>
      </trkpt>
      <trkpt lat="48.8662" lon="2.35262">
        <ele>73.599998474121</ele>
        <time>2015-06-01T18:57:31.000Z</time>
      </trkpt>
      <trkpt lat="48.8663" lon="2.35264">
        <ele>73.800003051758</ele>
        <time>2015-06-01T18:57:36.000Z</time>
      </trkpt>
      <trkpt lat="48.86641" lon="2.35272">
        <ele>73.599998474121</ele>
        <time>2015-06-01T18:57:40.000Z</time>
      </trkpt>
      <trkpt lat="48.86656" lon="2.35278">
        <ele>73</ele>
        <time>2015-06-01T18:57:44.000Z</time>
      </trkpt>
      <trkpt lat="48.86674" lon="2.35288">
        <ele>72.599998474121</ele>
        <time>2015-06-01T18:57:48.000Z</time>
      </trkpt>
      <trkpt lat="48.86688" lon="2.35297">
        <ele>72.400001525879</ele>
        <time>2015-06-01T18:57:52.000Z</time>
      </trkpt>
      <trkpt lat="48.86703" lon="2.35305">
        <ele>72.400001525879</ele>
        <time>2015-06-01T18:57:54.000Z</time>
      </trkpt>
      <trkpt lat="48.86738" lon="2.35328">
        <ele>72.199996948242</ele>
        <time>2015-06-01T18:58:01.000Z</time>
      </trkpt>
      <trkpt lat="48.86757" lon="2.35341">
        <ele>72.199996948242</ele>
        <time>2015-06-01T18:58:05.000Z</time>
      </trkpt>
      <trkpt lat="48.86761" lon="2.35344">
        <ele>72.199996948242</ele>
        <time>2015-06-01T18:58:06.000Z</time>
      </trkpt>
      <trkpt lat="48.86779" lon="2.35356">
        <ele>72</ele>
        <time>2015-06-01T18:58:11.000Z</time>
      </trkpt>
      <trkpt lat="48.86786" lon="2.35361">
        <ele>72.400001525879</ele>
        <time>2015-06-01T18:58:13.000Z</time>
      </trkpt>
      <trkpt lat="48.86793" lon="2.35363">
        <ele>72.800003051758</ele>
        <time>2015-06-01T18:58:15.000Z</time>
      </trkpt>
      <trkpt lat="48.86806" lon="2.35368">
        <ele>73.199996948242</ele>
        <time>2015-06-01T18:58:18.000Z</time>
      </trkpt>
      <trkpt lat="48.86816" lon="2.35376">
        <ele>73.199996948242</ele>
        <time>2015-06-01T18:58:20.000Z</time>
      </trkpt>
      <trkpt lat="48.86835" lon="2.35387">
        <ele>73.599998474121</ele>
        <time>2015-06-01T18:58:24.000Z</time>
      </trkpt>
      <trkpt lat="48.86855" lon="2.35392">
        <ele>73.800003051758</ele>
        <time>2015-06-01T18:58:29.000Z</time>
      </trkpt>
      <trkpt lat="48.86868" lon="2.35396">
        <ele>73.800003051758</ele>
        <time>2015-06-01T18:58:33.000Z</time>
      </trkpt>
      <trkpt lat="48.86871" lon="2.35397">
        <ele>73.800003051758</ele>
        <time>2015-06-01T18:58:34.000Z</time>
      </trkpt>
      <trkpt lat="48.86895" lon="2.35404">
        <ele>74</ele>
        <time>2015-06-01T18:58:41.000Z</time>
      </trkpt>
      <trkpt lat="48.86911" lon="2.35417">
        <ele>74</ele>
        <time>2015-06-01T18:58:47.000Z</time>
      </trkpt>
      <trkpt lat="48.86914" lon="2.35418">
        <ele>74</ele>
        <time>2015-06-01T18:58:51.000Z</time>
      </trkpt>
      <trkpt lat="48.86911" lon="2.35416">
        <ele>74</ele>
        <time>2015-06-01T18:58:54.000Z</time>
      </trkpt>
      <trkpt lat="48.86905" lon="2.35412">
        <ele>74</ele>
        <time>2015-06-01T18:59:00.000Z</time>
      </trkpt>
      <trkpt lat="48.86904" lon="2.3541">
        <ele>73.800003051758</ele>
        <time>2015-06-01T18:59:02.000Z</time>
      </trkpt>
      <trkpt lat="48.86901" lon="2.35397">
        <ele>73.400001525879</ele>
        <time>2015-06-01T18:59:05.000Z</time>
      </trkpt>
      <trkpt lat="48.86904" lon="2.35364">
        <ele>72.599998474121</ele>
        <time>2015-06-01T18:59:12.000Z</time>
      </trkpt>
      <trkpt lat="48.86907" lon="2.35337">
        <ele>72</ele>
        <time>2015-06-01T18:59:17.000Z</time>
      </trkpt>
      <trkpt lat="48.86912" lon="2.35323">
        <ele>71.400001525879</ele>
        <time>2015-06-01T18:59:20.000Z</time>
      </trkpt>
      <trkpt lat="48.8691" lon="2.35296">
        <ele>70.599998474121</ele>
        <time>2015-06-01T18:59:25.000Z</time>
      </trkpt>
      <trkpt lat="48.86911" lon="2.35274">
        <ele>69.599998474121</ele>
        <time>2015-06-01T18:59:29.000Z</time>
      </trkpt>
      <trkpt lat="48.86916" lon="2.35247">
        <ele>68</ele>
        <time>2015-06-01T18:59:35.000Z</time>
      </trkpt>
      <trkpt lat="48.86927" lon="2.3524">
        <ele>67.199996948242</ele>
        <time>2015-06-01T18:59:39.000Z</time>
      </trkpt>
      <trkpt lat="48.86929" lon="2.35241">
        <ele>67</ele>
        <time>2015-06-01T18:59:40.000Z</time>
      </trkpt>
      <trkpt lat="48.86929" lon="2.35231">
        <ele>66.599998474121</ele>
        <time>2015-06-01T18:59:44.000Z</time>
      </trkpt>
      <trkpt lat="48.86928" lon="2.35228">
        <ele>66.400001525879</ele>
        <time>2015-06-01T18:59:45.000Z</time>
      </trkpt>
      <trkpt lat="48.86922" lon="2.35213">
        <ele>66</ele>
        <time>2015-06-01T18:59:51.000Z</time>
      </trkpt>
      <trkpt lat="48.86918" lon="2.35201">
        <ele>66.199996948242</ele>
        <time>2015-06-01T18:59:55.000Z</time>
      </trkpt>
      <trkpt lat="48.86912" lon="2.3518">
        <ele>67</ele>
        <time>2015-06-01T19:00:01.000Z</time>
      </trkpt>
      <trkpt lat="48.86909" lon="2.35174">
        <ele>67.400001525879</ele>
        <time>2015-06-01T19:00:03.000Z</time>
      </trkpt>
      <trkpt lat="48.8691" lon="2.35172">
        <ele>68.400001525879</ele>
        <time>2015-06-01T19:00:08.000Z</time>
      </trkpt>
      <trkpt lat="48.86919" lon="2.35161">
        <ele>69</ele>
        <time>2015-06-01T19:00:15.000Z</time>
      </trkpt>
      <trkpt lat="48.86926" lon="2.35154">
        <ele>69.199996948242</ele>
        <time>2015-06-01T19:00:19.000Z</time>
      </trkpt>
      <trkpt lat="48.86927" lon="2.35152">
        <ele>69.400001525879</ele>
        <time>2015-06-01T19:00:20.000Z</time>
      </trkpt>
      <trkpt lat="48.86935" lon="2.35148">
        <ele>69.599998474121</ele>
        <time>2015-06-01T19:00:26.000Z</time>
      </trkpt>
      <trkpt lat="48.86947" lon="2.35143">
        <ele>69.599998474121</ele>
        <time>2015-06-01T19:00:31.000Z</time>
      </trkpt>
      <trkpt lat="48.86949" lon="2.35141">
        <ele>69.599998474121</ele>
        <time>2015-06-01T19:00:32.000Z</time>
      </trkpt>
      <trkpt lat="48.86949" lon="2.35137">
        <ele>69.599998474121</ele>
        <time>2015-06-01T19:00:33.000Z</time>
      </trkpt>
      <trkpt lat="48.86951" lon="2.35134">
        <ele>69.599998474121</ele>
        <time>2015-06-01T19:00:34.000Z</time>
      </trkpt>
      <trkpt lat="48.86951" lon="2.35116">
        <ele>69.599998474121</ele>
        <time>2015-06-01T19:00:40.000Z</time>
      </trkpt>
      <trkpt lat="48.86951" lon="2.35105">
        <ele>69.800003051758</ele>
        <time>2015-06-01T19:00:44.000Z</time>
      </trkpt>
      <trkpt lat="48.86951" lon="2.35098">
        <ele>69.800003051758</ele>
        <time>2015-06-01T19:00:47.000Z</time>
      </trkpt>
      <trkpt lat="48.8695" lon="2.35095">
        <ele>69.800003051758</ele>
        <time>2015-06-01T19:00:49.000Z</time>
      </trkpt>
      <trkpt lat="48.86948" lon="2.35075">
        <ele>69.800003051758</ele>
        <time>2015-06-01T19:00:54.000Z</time>
      </trkpt>
      <trkpt lat="48.86946" lon="2.35071">
        <ele>69.800003051758</ele>
        <time>2015-06-01T19:00:55.000Z</time>
      </trkpt>
      <trkpt lat="48.86941" lon="2.35046">
        <ele>69.599998474121</ele>
        <time>2015-06-01T19:01:00.000Z</time>
      </trkpt>
      <trkpt lat="48.86941" lon="2.35044">
        <ele>69.400001525879</ele>
        <time>2015-06-01T19:01:01.000Z</time>
      </trkpt>
      <trkpt lat="48.86938" lon="2.35028">
        <ele>68.599998474121</ele>
        <time>2015-06-01T19:01:07.000Z</time>
      </trkpt>
      <trkpt lat="48.86936" lon="2.35021">
        <ele>68.400001525879</ele>
        <time>2015-06-01T19:01:09.000Z</time>
      </trkpt>
      <trkpt lat="48.86934" lon="2.35007">
        <ele>68.199996948242</ele>
        <time>2015-06-01T19:01:12.000Z</time>
      </trkpt>
      <trkpt lat="48.86932" lon="2.35">
        <ele>67.800003051758</ele>
        <time>2015-06-01T19:01:14.000Z</time>
      </trkpt>
      <trkpt lat="48.86936" lon="2.34997">
        <ele>67</ele>
        <time>2015-06-01T19:01:18.000Z</time>
      </trkpt>
      <trkpt lat="48.86937" lon="2.34997">
        <ele>66.800003051758</ele>
        <time>2015-06-01T19:01:19.000Z</time>
      </trkpt>
      <trkpt lat="48.86939" lon="2.34997">
        <ele>66.599998474121</ele>
        <time>2015-06-01T19:01:20.000Z</time>
      </trkpt>
      <trkpt lat="48.86949" lon="2.34999">
        <ele>66</ele>
        <time>2015-06-01T19:01:26.000Z</time>
      </trkpt>
      <trkpt lat="48.86957" lon="2.34998">
        <ele>65.800003051758</ele>
        <time>2015-06-01T19:01:29.000Z</time>
      </trkpt>
      <trkpt lat="48.86964" lon="2.34997">
        <ele>65.800003051758</ele>
        <time>2015-06-01T19:01:31.000Z</time>
      </trkpt>
      <trkpt lat="48.86972" lon="2.35004">
        <ele>65.599998474121</ele>
        <time>2015-06-01T19:01:35.000Z</time>
      </trkpt>
      <trkpt lat="48.86973" lon="2.35005">
        <ele>65.599998474121</ele>
        <time>2015-06-01T19:01:36.000Z</time>
      </trkpt>
      <trkpt lat="48.86974" lon="2.35008">
        <ele>65.400001525879</ele>
        <time>2015-06-01T19:01:42.000Z</time>
      </trkpt>
      <trkpt lat="48.86975" lon="2.35008">
        <ele>65.400001525879</ele>
        <time>2015-06-01T19:01:43.000Z</time>
      </trkpt>
      <trkpt lat="48.86978" lon="2.35008">
        <ele>65.400001525879</ele>
        <time>2015-06-01T19:01:48.000Z</time>
      </trkpt>
      <trkpt lat="48.86979" lon="2.35002">
        <ele>65.400001525879</ele>
        <time>2015-06-01T19:01:58.000Z</time>
      </trkpt>
      <trkpt lat="48.86979" lon="2.34998">
        <ele>65.400001525879</ele>
        <time>2015-06-01T19:02:07.000Z</time>
      </trkpt>
      <trkpt lat="48.86981" lon="2.34997">
        <ele>65.400001525879</ele>
        <time>2015-06-01T19:02:17.000Z</time>
      </trkpt>
      <trkpt lat="48.8698" lon="2.34995">
        <ele>65.400001525879</ele>
        <time>2015-06-01T19:02:30.000Z</time>
      </trkpt>
      <trkpt lat="48.8698" lon="2.34995">
        <ele>65.400001525879</ele>
        <time>2015-06-01T19:02:32.000Z</time>
      </trkpt>
      <trkpt lat="48.86982" lon="2.34995">
        <ele>65.400001525879</ele>
        <time>2015-06-01T19:02:38.000Z</time>
      </trkpt>
      <trkpt lat="48.86987" lon="2.35">
        <ele>67.400001525879</ele>
        <time>2015-06-01T19:03:33.000Z</time>
      </trkpt>
      <trkpt lat="48.86984" lon="2.34998">
        <ele>67.400001525879</ele>
        <time>2015-06-01T19:03:40.000Z</time>
      </trkpt>
      <trkpt lat="48.86981" lon="2.34998">
        <ele>67.400001525879</ele>
        <time>2015-06-01T19:04:01.000Z</time>
      </trkpt>
      <trkpt lat="48.86981" lon="2.34996">
        <ele>65.599998474121</ele>
        <time>2015-06-01T19:04:39.000Z</time>
      </trkpt>
      <trkpt lat="48.86979" lon="2.34995">
        <ele>65.400001525879</ele>
        <time>2015-06-01T19:04:52.000Z</time>
      </trkpt>
      <trkpt lat="48.86979" lon="2.34998">
        <ele>65.199996948242</ele>
        <time>2015-06-01T19:05:13.000Z</time>
      </trkpt>
      <trkpt lat="48.86976" lon="2.34993">
        <ele>65.199996948242</ele>
        <time>2015-06-01T19:05:22.000Z</time>
      </trkpt>
      <trkpt lat="48.86975" lon="2.34994">
        <ele>65.199996948242</ele>
        <time>2015-06-01T19:05:29.000Z</time>
      </trkpt>
      <trkpt lat="48.86978" lon="2.34997">
        <ele>65.199996948242</ele>
        <time>2015-06-01T19:05:47.000Z</time>
      </trkpt>
      <trkpt lat="48.86976" lon="2.34999">
        <ele>65.199996948242</ele>
        <time>2015-06-01T19:06:04.000Z</time>
      </trkpt>
      <trkpt lat="48.86976" lon="2.34994">
        <ele>65.199996948242</ele>
        <time>2015-06-01T19:06:12.000Z</time>
      </trkpt>
      <trkpt lat="48.86978" lon="2.34998">
        <ele>65.199996948242</ele>
        <time>2015-06-01T19:06:35.000Z</time>
      </trkpt>
      <trkpt lat="48.86977" lon="2.34998">
        <ele>66</ele>
        <time>2015-06-01T19:06:53.000Z</time>
      </trkpt>
      <trkpt lat="48.86974" lon="2.34996">
        <ele>71.400001525879</ele>
        <time>2015-06-01T19:08:04.000Z</time>
      </trkpt>
      <trkpt lat="48.86978" lon="2.34997">
        <ele>69.599998474121</ele>
        <time>2015-06-01T19:09:04.000Z</time>
      </trkpt>
      <trkpt lat="48.86979" lon="2.34997">
        <ele>69.599998474121</ele>
        <time>2015-06-01T19:09:14.000Z</time>
      </trkpt>
      <trkpt lat="48.86979" lon="2.34996">
        <ele>69.400001525879</ele>
        <time>2015-06-01T19:09:30.000Z</time>
      </trkpt>
      <trkpt lat="48.86976" lon="2.34997">
        <ele>71.199996948242</ele>
        <time>2015-06-01T19:09:54.000Z</time>
      </trkpt>
      <trkpt lat="48.86977" lon="2.34997">
        <ele>71.400001525879</ele>
        <time>2015-06-01T19:10:02.000Z</time>
      </trkpt>
      <trkpt lat="48.86975" lon="2.34997">
        <ele>73.199996948242</ele>
        <time>2015-06-01T19:10:26.000Z</time>
      </trkpt>
      <trkpt lat="48.86975" lon="2.34999">
        <ele>73.400001525879</ele>
        <time>2015-06-01T19:10:34.000Z</time>
      </trkpt>
      <trkpt lat="48.86977" lon="2.35002">
        <ele>75.199996948242</ele>
        <time>2015-06-01T19:10:52.000Z</time>
      </trkpt>
      <trkpt lat="48.86973" lon="2.35002">
        <ele>75.400001525879</ele>
        <time>2015-06-01T19:11:02.000Z</time>
      </trkpt>
      <trkpt lat="48.86975" lon="2.35004">
        <ele>75.400001525879</ele>
        <time>2015-06-01T19:11:08.000Z</time>
      </trkpt>
      <trkpt lat="48.8698" lon="2.35011">
        <ele>75.400001525879</ele>
        <time>2015-06-01T19:11:13.000Z</time>
      </trkpt>
      <trkpt lat="48.86983" lon="2.35009">
        <ele>75.400001525879</ele>
        <time>2015-06-01T19:11:19.000Z</time>
      </trkpt>
      <trkpt lat="48.86984" lon="2.35009">
        <ele>75.400001525879</ele>
        <time>2015-06-01T19:11:20.000Z</time>
      </trkpt>
      <trkpt lat="48.86989" lon="2.35008">
        <ele>75.400001525879</ele>
        <time>2015-06-01T19:11:25.000Z</time>
      </trkpt>
      <trkpt lat="48.86991" lon="2.35008">
        <ele>75.400001525879</ele>
        <time>2015-06-01T19:11:26.000Z</time>
      </trkpt>
      <trkpt lat="48.86998" lon="2.35001">
        <ele>75.400001525879</ele>
        <time>2015-06-01T19:11:32.000Z</time>
      </trkpt>
      <trkpt lat="48.86998" lon="2.34998">
        <ele>75.400001525879</ele>
        <time>2015-06-01T19:11:34.000Z</time>
      </trkpt>
      <trkpt lat="48.87" lon="2.34997">
        <ele>75.400001525879</ele>
        <time>2015-06-01T19:11:35.000Z</time>
      </trkpt>
      <trkpt lat="48.87003" lon="2.34994">
        <ele>75.400001525879</ele>
        <time>2015-06-01T19:11:37.000Z</time>
      </trkpt>
      <trkpt lat="48.87008" lon="2.34993">
        <ele>75.599998474121</ele>
        <time>2015-06-01T19:11:44.000Z</time>
      </trkpt>
      <trkpt lat="48.87005" lon="2.34991">
        <ele>76.599998474121</ele>
        <time>2015-06-01T19:11:50.000Z</time>
      </trkpt>
      <trkpt lat="48.87004" lon="2.34992">
        <ele>77.199996948242</ele>
        <time>2015-06-01T19:12:03.000Z</time>
      </trkpt>
      <trkpt lat="48.87009" lon="2.34994">
        <ele>77.400001525879</ele>
        <time>2015-06-01T19:12:08.000Z</time>
      </trkpt>
      <trkpt lat="48.87007" lon="2.34992">
        <ele>77.400001525879</ele>
        <time>2015-06-01T19:12:09.000Z</time>
      </trkpt>
      <trkpt lat="48.87004" lon="2.3499">
        <ele>77.400001525879</ele>
        <time>2015-06-01T19:12:13.000Z</time>
      </trkpt>
      <trkpt lat="48.87002" lon="2.34982">
        <ele>77.400001525879</ele>
        <time>2015-06-01T19:12:28.000Z</time>
      </trkpt>
      <trkpt lat="48.86998" lon="2.34975">
        <ele>77.400001525879</ele>
        <time>2015-06-01T19:12:32.000Z</time>
      </trkpt>
      <trkpt lat="48.86996" lon="2.34973">
        <ele>77.400001525879</ele>
        <time>2015-06-01T19:12:34.000Z</time>
      </trkpt>
      <trkpt lat="48.86993" lon="2.34977">
        <ele>76.400001525879</ele>
        <time>2015-06-01T19:12:43.000Z</time>
      </trkpt>
      <trkpt lat="48.86993" lon="2.34979">
        <ele>76</ele>
        <time>2015-06-01T19:12:49.000Z</time>
      </trkpt>
      <trkpt lat="48.86995" lon="2.34981">
        <ele>75.800003051758</ele>
        <time>2015-06-01T19:12:52.000Z</time>
      </trkpt>
      <trkpt lat="48.86996" lon="2.34985">
        <ele>74.800003051758</ele>
        <time>2015-06-01T19:12:59.000Z</time>
      </trkpt>
      <trkpt lat="48.87006" lon="2.34986">
        <ele>73.800003051758</ele>
        <time>2015-06-01T19:13:11.000Z</time>
      </trkpt>
      <trkpt lat="48.87007" lon="2.34986">
        <ele>73.800003051758</ele>
        <time>2015-06-01T19:13:12.000Z</time>
      </trkpt>
      <trkpt lat="48.87008" lon="2.34985">
        <ele>73.599998474121</ele>
        <time>2015-06-01T19:13:17.000Z</time>
      </trkpt>
      <trkpt lat="48.86998" lon="2.34982">
        <ele>73.599998474121</ele>
        <time>2015-06-01T19:13:26.000Z</time>
      </trkpt>
      <trkpt lat="48.86993" lon="2.34979">
        <ele>73.599998474121</ele>
        <time>2015-06-01T19:13:29.000Z</time>
      </trkpt>
      <trkpt lat="48.86987" lon="2.34977">
        <ele>73.599998474121</ele>
        <time>2015-06-01T19:13:35.000Z</time>
      </trkpt>
      <trkpt lat="48.86986" lon="2.34978">
        <ele>73.599998474121</ele>
        <time>2015-06-01T19:13:36.000Z</time>
      </trkpt>
      <trkpt lat="48.86983" lon="2.3498">
        <ele>73.400001525879</ele>
        <time>2015-06-01T19:13:40.000Z</time>
      </trkpt>
      <trkpt lat="48.8698" lon="2.34978">
        <ele>74.400001525879</ele>
        <time>2015-06-01T19:13:46.000Z</time>
      </trkpt>
      <trkpt lat="48.86982" lon="2.34977">
        <ele>74.800003051758</ele>
        <time>2015-06-01T19:13:50.000Z</time>
      </trkpt>
      <trkpt lat="48.86986" lon="2.34975">
        <ele>75</ele>
        <time>2015-06-01T19:13:54.000Z</time>
      </trkpt>
      <trkpt lat="48.86987" lon="2.34977">
        <ele>75</ele>
        <time>2015-06-01T19:13:55.000Z</time>
      </trkpt>
      <trkpt lat="48.86988" lon="2.34977">
        <ele>75</ele>
        <time>2015-06-01T19:13:56.000Z</time>
      </trkpt>
      <trkpt lat="48.86986" lon="2.34979">
        <ele>75.199996948242</ele>
        <time>2015-06-01T19:13:59.000Z</time>
      </trkpt>
      <trkpt lat="48.86986" lon="2.34998">
        <ele>75.400001525879</ele>
        <time>2015-06-01T19:14:13.000Z</time>
      </trkpt>
      <trkpt lat="48.86986" lon="2.35004">
        <ele>75.400001525879</ele>
        <time>2015-06-01T19:14:18.000Z</time>
      </trkpt>
      <trkpt lat="48.86982" lon="2.35005">
        <ele>76.800003051758</ele>
        <time>2015-06-01T19:14:27.000Z</time>
      </trkpt>
      <trkpt lat="48.86979" lon="2.35004">
        <ele>77</ele>
        <time>2015-06-01T19:14:31.000Z</time>
      </trkpt>
      <trkpt lat="48.86978" lon="2.35005">
        <ele>77.199996948242</ele>
        <time>2015-06-01T19:14:36.000Z</time>
      </trkpt>
      <trkpt lat="48.86978" lon="2.35008">
        <ele>77.400001525879</ele>
        <time>2015-06-01T19:14:37.000Z</time>
      </trkpt>
      <trkpt lat="48.86976" lon="2.35024">
        <ele>77.400001525879</ele>
        <time>2015-06-01T19:14:43.000Z</time>
      </trkpt>
      <trkpt lat="48.86977" lon="2.35048">
        <ele>77.599998474121</ele>
        <time>2015-06-01T19:14:50.000Z</time>
      </trkpt>
      <trkpt lat="48.86979" lon="2.35077">
        <ele>77.599998474121</ele>
        <time>2015-06-01T19:14:56.000Z</time>
      </trkpt>
      <trkpt lat="48.86981" lon="2.35107">
        <ele>76.800003051758</ele>
        <time>2015-06-01T19:15:01.000Z</time>
      </trkpt>
      <trkpt lat="48.86982" lon="2.35119">
        <ele>76.400001525879</ele>
        <time>2015-06-01T19:15:04.000Z</time>
      </trkpt>
      <trkpt lat="48.86982" lon="2.35125">
        <ele>76.199996948242</ele>
        <time>2015-06-01T19:15:06.000Z</time>
      </trkpt>
      <trkpt lat="48.8699" lon="2.35148">
        <ele>76</ele>
        <time>2015-06-01T19:15:11.000Z</time>
      </trkpt>
      <trkpt lat="48.86999" lon="2.35161">
        <ele>75.199996948242</ele>
        <time>2015-06-01T19:15:15.000Z</time>
      </trkpt>
      <trkpt lat="48.87" lon="2.35165">
        <ele>75</ele>
        <time>2015-06-01T19:15:16.000Z</time>
      </trkpt>
      <trkpt lat="48.87" lon="2.35189">
        <ele>74</ele>
        <time>2015-06-01T19:15:21.000Z</time>
      </trkpt>
      <trkpt lat="48.86994" lon="2.35217">
        <ele>72.599998474121</ele>
        <time>2015-06-01T19:15:27.000Z</time>
      </trkpt>
      <trkpt lat="48.86992" lon="2.35239">
        <ele>71.199996948242</ele>
        <time>2015-06-01T19:15:32.000Z</time>
      </trkpt>
      <trkpt lat="48.86991" lon="2.35243">
        <ele>69.199996948242</ele>
        <time>2015-06-01T19:15:38.000Z</time>
      </trkpt>
      <trkpt lat="48.86987" lon="2.35248">
        <ele>68.199996948242</ele>
        <time>2015-06-01T19:15:41.000Z</time>
      </trkpt>
      <trkpt lat="48.8697" lon="2.35253">
        <ele>65.800003051758</ele>
        <time>2015-06-01T19:15:47.000Z</time>
      </trkpt>
      <trkpt lat="48.86952" lon="2.35244">
        <ele>63.799999237061</ele>
        <time>2015-06-01T19:15:52.000Z</time>
      </trkpt>
      <trkpt lat="48.86934" lon="2.35265">
        <ele>59.200000762939</ele>
        <time>2015-06-01T19:16:03.000Z</time>
      </trkpt>
      <trkpt lat="48.86929" lon="2.35285">
        <ele>58.200000762939</ele>
        <time>2015-06-01T19:16:07.000Z</time>
      </trkpt>
      <trkpt lat="48.86924" lon="2.35303">
        <ele>57.200000762939</ele>
        <time>2015-06-01T19:16:11.000Z</time>
      </trkpt>
      <trkpt lat="48.8692" lon="2.35326">
        <ele>56</ele>
        <time>2015-06-01T19:16:16.000Z</time>
      </trkpt>
      <trkpt lat="48.86916" lon="2.35349">
        <ele>55.200000762939</ele>
        <time>2015-06-01T19:16:21.000Z</time>
      </trkpt>
      <trkpt lat="48.86908" lon="2.35375">
        <ele>54.599998474121</ele>
        <time>2015-06-01T19:16:27.000Z</time>
      </trkpt>
      <trkpt lat="48.86902" lon="2.35392">
        <ele>53.599998474121</ele>
        <time>2015-06-01T19:16:33.000Z</time>
      </trkpt>
      <trkpt lat="48.86899" lon="2.35397">
        <ele>53.200000762939</ele>
        <time>2015-06-01T19:16:36.000Z</time>
      </trkpt>
      <trkpt lat="48.86896" lon="2.35404">
        <ele>52.799999237061</ele>
        <time>2015-06-01T19:16:39.000Z</time>
      </trkpt>
      <trkpt lat="48.86887" lon="2.35415">
        <ele>52.400001525879</ele>
        <time>2015-06-01T19:16:45.000Z</time>
      </trkpt>
      <trkpt lat="48.86888" lon="2.35417">
        <ele>52.400001525879</ele>
        <time>2015-06-01T19:16:46.000Z</time>
      </trkpt>
      <trkpt lat="48.8689" lon="2.35438">
        <ele>52.200000762939</ele>
        <time>2015-06-01T19:16:53.000Z</time>
      </trkpt>
      <trkpt lat="48.8689" lon="2.35442">
        <ele>52</ele>
        <time>2015-06-01T19:16:54.000Z</time>
      </trkpt>
      <trkpt lat="48.86889" lon="2.3545">
        <ele>52</ele>
        <time>2015-06-01T19:16:57.000Z</time>
      </trkpt>
      <trkpt lat="48.86889" lon="2.35474">
        <ele>52</ele>
        <time>2015-06-01T19:17:03.000Z</time>
      </trkpt>
      <trkpt lat="48.86887" lon="2.35486">
        <ele>52</ele>
        <time>2015-06-01T19:17:06.000Z</time>
      </trkpt>
      <trkpt lat="48.8688" lon="2.35512">
        <ele>52</ele>
        <time>2015-06-01T19:17:12.000Z</time>
      </trkpt>
      <trkpt lat="48.86875" lon="2.35529">
        <ele>52</ele>
        <time>2015-06-01T19:17:17.000Z</time>
      </trkpt>
      <trkpt lat="48.86875" lon="2.35532">
        <ele>52</ele>
        <time>2015-06-01T19:17:18.000Z</time>
      </trkpt>
      <trkpt lat="48.86872" lon="2.3554">
        <ele>52</ele>
        <time>2015-06-01T19:17:23.000Z</time>
      </trkpt>
      <trkpt lat="48.86872" lon="2.3554">
        <ele>52</ele>
        <time>2015-06-01T19:17:24.000Z</time>
      </trkpt>
      <trkpt lat="48.86864" lon="2.35541">
        <ele>53.400001525879</ele>
        <time>2015-06-01T19:17:37.000Z</time>
      </trkpt>
      <trkpt lat="48.86851" lon="2.35534">
        <ele>54.200000762939</ele>
        <time>2015-06-01T19:17:44.000Z</time>
      </trkpt>
      <trkpt lat="48.86822" lon="2.35518">
        <ele>56</ele>
        <time>2015-06-01T19:17:54.000Z</time>
      </trkpt>
      <trkpt lat="48.86802" lon="2.35509">
        <ele>57</ele>
        <time>2015-06-01T19:18:00.000Z</time>
      </trkpt>
      <trkpt lat="48.86784" lon="2.355">
        <ele>58</ele>
        <time>2015-06-01T19:18:05.000Z</time>
      </trkpt>
      <trkpt lat="48.86765" lon="2.35488">
        <ele>58.799999237061</ele>
        <time>2015-06-01T19:18:10.000Z</time>
      </trkpt>
      <trkpt lat="48.86746" lon="2.35475">
        <ele>59.400001525879</ele>
        <time>2015-06-01T19:18:15.000Z</time>
      </trkpt>
      <trkpt lat="48.86728" lon="2.35462">
        <ele>59.599998474121</ele>
        <time>2015-06-01T19:18:20.000Z</time>
      </trkpt>
      <trkpt lat="48.86709" lon="2.35448">
        <ele>59.799999237061</ele>
        <time>2015-06-01T19:18:25.000Z</time>
      </trkpt>
      <trkpt lat="48.86691" lon="2.35436">
        <ele>60</ele>
        <time>2015-06-01T19:18:30.000Z</time>
      </trkpt>
      <trkpt lat="48.8667" lon="2.35424">
        <ele>59</ele>
        <time>2015-06-01T19:18:36.000Z</time>
      </trkpt>
      <trkpt lat="48.86653" lon="2.35413">
        <ele>58.200000762939</ele>
        <time>2015-06-01T19:18:40.000Z</time>
      </trkpt>
      <trkpt lat="48.86635" lon="2.35402">
        <ele>57.200000762939</ele>
        <time>2015-06-01T19:18:46.000Z</time>
      </trkpt>
      <trkpt lat="48.86618" lon="2.35393">
        <ele>56</ele>
        <time>2015-06-01T19:18:51.000Z</time>
      </trkpt>
      <trkpt lat="48.86614" lon="2.35391">
        <ele>55.400001525879</ele>
        <time>2015-06-01T19:18:54.000Z</time>
      </trkpt>
      <trkpt lat="48.86608" lon="2.35391">
        <ele>54.400001525879</ele>
        <time>2015-06-01T19:19:01.000Z</time>
      </trkpt>
      <trkpt lat="48.86605" lon="2.35391">
        <ele>54.400001525879</ele>
        <time>2015-06-01T19:19:05.000Z</time>
      </trkpt>
      <trkpt lat="48.86599" lon="2.35394">
        <ele>55</ele>
        <time>2015-06-01T19:19:11.000Z</time>
      </trkpt>
      <trkpt lat="48.86591" lon="2.35397">
        <ele>55.799999237061</ele>
        <time>2015-06-01T19:19:15.000Z</time>
      </trkpt>
      <trkpt lat="48.86588" lon="2.35405">
        <ele>56.200000762939</ele>
        <time>2015-06-01T19:19:17.000Z</time>
      </trkpt>
      <trkpt lat="48.86591" lon="2.35418">
        <ele>56.799999237061</ele>
        <time>2015-06-01T19:19:20.000Z</time>
      </trkpt>
      <trkpt lat="48.86589" lon="2.35436">
        <ele>57.200000762939</ele>
        <time>2015-06-01T19:19:24.000Z</time>
      </trkpt>
      <trkpt lat="48.86584" lon="2.35459">
        <ele>58.200000762939</ele>
        <time>2015-06-01T19:19:29.000Z</time>
      </trkpt>
      <trkpt lat="48.86584" lon="2.35466">
        <ele>58.599998474121</ele>
        <time>2015-06-01T19:19:31.000Z</time>
      </trkpt>
      <trkpt lat="48.86587" lon="2.35488">
        <ele>59.200000762939</ele>
        <time>2015-06-01T19:19:36.000Z</time>
      </trkpt>
      <trkpt lat="48.86585" lon="2.3551">
        <ele>59.400001525879</ele>
        <time>2015-06-01T19:19:41.000Z</time>
      </trkpt>
      <trkpt lat="48.86585" lon="2.35534">
        <ele>59.599998474121</ele>
        <time>2015-06-01T19:19:46.000Z</time>
      </trkpt>
      <trkpt lat="48.86576" lon="2.35561">
        <ele>59.599998474121</ele>
        <time>2015-06-01T19:19:52.000Z</time>
      </trkpt>
      <trkpt lat="48.86566" lon="2.35583">
        <ele>58.799999237061</ele>
        <time>2015-06-01T19:19:58.000Z</time>
      </trkpt>
      <trkpt lat="48.86559" lon="2.35607">
        <ele>57.400001525879</ele>
        <time>2015-06-01T19:20:04.000Z</time>
      </trkpt>
      <trkpt lat="48.86554" lon="2.3563">
        <ele>56.400001525879</ele>
        <time>2015-06-01T19:20:09.000Z</time>
      </trkpt>
      <trkpt lat="48.86552" lon="2.35651">
        <ele>55.400001525879</ele>
        <time>2015-06-01T19:20:13.000Z</time>
      </trkpt>
      <trkpt lat="48.86548" lon="2.35672">
        <ele>54.799999237061</ele>
        <time>2015-06-01T19:20:17.000Z</time>
      </trkpt>
      <trkpt lat="48.86548" lon="2.35693">
        <ele>54.400001525879</ele>
        <time>2015-06-01T19:20:21.000Z</time>
      </trkpt>
      <trkpt lat="48.86543" lon="2.35716">
        <ele>54.200000762939</ele>
        <time>2015-06-01T19:20:25.000Z</time>
      </trkpt>
      <trkpt lat="48.86535" lon="2.35744">
        <ele>53.799999237061</ele>
        <time>2015-06-01T19:20:30.000Z</time>
      </trkpt>
      <trkpt lat="48.86531" lon="2.35772">
        <ele>52.799999237061</ele>
        <time>2015-06-01T19:20:35.000Z</time>
      </trkpt>
      <trkpt lat="48.86527" lon="2.358">
        <ele>52.400001525879</ele>
        <time>2015-06-01T19:20:40.000Z</time>
      </trkpt>
      <trkpt lat="48.8652" lon="2.35826">
        <ele>52</ele>
        <time>2015-06-01T19:20:45.000Z</time>
      </trkpt>
      <trkpt lat="48.86515" lon="2.35855">
        <ele>51.799999237061</ele>
        <time>2015-06-01T19:20:51.000Z</time>
      </trkpt>
      <trkpt lat="48.86509" lon="2.35882">
        <ele>51.799999237061</ele>
        <time>2015-06-01T19:20:56.000Z</time>
      </trkpt>
      <trkpt lat="48.86499" lon="2.35911">
        <ele>51.599998474121</ele>
        <time>2015-06-01T19:21:01.000Z</time>
      </trkpt>
      <trkpt lat="48.86491" lon="2.35936">
        <ele>51.599998474121</ele>
        <time>2015-06-01T19:21:05.000Z</time>
      </trkpt>
      <trkpt lat="48.86488" lon="2.35943">
        <ele>51.599998474121</ele>
        <time>2015-06-01T19:21:06.000Z</time>
      </trkpt>
      <trkpt lat="48.86494" lon="2.35981">
        <ele>51.599998474121</ele>
        <time>2015-06-01T19:21:11.000Z</time>
      </trkpt>
      <trkpt lat="48.86502" lon="2.35992">
        <ele>51.599998474121</ele>
        <time>2015-06-01T19:21:13.000Z</time>
      </trkpt>
      <trkpt lat="48.86515" lon="2.36005">
        <ele>51.200000762939</ele>
        <time>2015-06-01T19:21:16.000Z</time>
      </trkpt>
      <trkpt lat="48.86537" lon="2.36029">
        <ele>50.599998474121</ele>
        <time>2015-06-01T19:21:20.000Z</time>
      </trkpt>
      <trkpt lat="48.86557" lon="2.36048">
        <ele>50.400001525879</ele>
        <time>2015-06-01T19:21:23.000Z</time>
      </trkpt>
      <trkpt lat="48.8657" lon="2.36062">
        <ele>50</ele>
        <time>2015-06-01T19:21:25.000Z</time>
      </trkpt>
      <trkpt lat="48.86589" lon="2.36086">
        <ele>49.200000762939</ele>
        <time>2015-06-01T19:21:28.000Z</time>
      </trkpt>
      <trkpt lat="48.86618" lon="2.36116">
        <ele>48.599998474121</ele>
        <time>2015-06-01T19:21:32.000Z</time>
      </trkpt>
      <trkpt lat="48.86638" lon="2.36138">
        <ele>47.799999237061</ele>
        <time>2015-06-01T19:21:35.000Z</time>
      </trkpt>
      <trkpt lat="48.86644" lon="2.36145">
        <ele>47.400001525879</ele>
        <time>2015-06-01T19:21:36.000Z</time>
      </trkpt>
      <trkpt lat="48.86664" lon="2.3617">
        <ele>46.799999237061</ele>
        <time>2015-06-01T19:21:39.000Z</time>
      </trkpt>
      <trkpt lat="48.8667" lon="2.36179">
        <ele>46.799999237061</ele>
        <time>2015-06-01T19:21:40.000Z</time>
      </trkpt>
      <trkpt lat="48.86686" lon="2.36215">
        <ele>46.200000762939</ele>
        <time>2015-06-01T19:21:44.000Z</time>
      </trkpt>
      <trkpt lat="48.86696" lon="2.36239">
        <ele>46</ele>
        <time>2015-06-01T19:21:47.000Z</time>
      </trkpt>
      <trkpt lat="48.86706" lon="2.36262">
        <ele>45.799999237061</ele>
        <time>2015-06-01T19:21:50.000Z</time>
      </trkpt>
      <trkpt lat="48.86709" lon="2.36269">
        <ele>45.799999237061</ele>
        <time>2015-06-01T19:21:51.000Z</time>
      </trkpt>
      <trkpt lat="48.86717" lon="2.36286">
        <ele>45.599998474121</ele>
        <time>2015-06-01T19:21:54.000Z</time>
      </trkpt>
      <trkpt lat="48.86724" lon="2.36309">
        <ele>45.400001525879</ele>
        <time>2015-06-01T19:21:58.000Z</time>
      </trkpt>
      <trkpt lat="48.86725" lon="2.36321">
        <ele>45.400001525879</ele>
        <time>2015-06-01T19:22:02.000Z</time>
      </trkpt>
      <trkpt lat="48.86729" lon="2.36333">
        <ele>45.400001525879</ele>
        <time>2015-06-01T19:22:08.000Z</time>
      </trkpt>
      <trkpt lat="48.86728" lon="2.36334">
        <ele>45.200000762939</ele>
        <time>2015-06-01T19:22:18.000Z</time>
      </trkpt>
      <trkpt lat="48.86729" lon="2.3634">
        <ele>47.200000762939</ele>
        <time>2015-06-01T19:22:49.000Z</time>
      </trkpt>
      <trkpt lat="48.86731" lon="2.36341">
        <ele>47.200000762939</ele>
        <time>2015-06-01T19:22:50.000Z</time>
      </trkpt>
      <trkpt lat="48.86732" lon="2.36349">
        <ele>47.200000762939</ele>
        <time>2015-06-01T19:22:53.000Z</time>
      </trkpt>
      <trkpt lat="48.86734" lon="2.36355">
        <ele>47.200000762939</ele>
        <time>2015-06-01T19:22:55.000Z</time>
      </trkpt>
      <trkpt lat="48.86736" lon="2.3636">
        <ele>47.200000762939</ele>
        <time>2015-06-01T19:22:57.000Z</time>
      </trkpt>
      <trkpt lat="48.86742" lon="2.36364">
        <ele>47.200000762939</ele>
        <time>2015-06-01T19:23:01.000Z</time>
      </trkpt>
      <trkpt lat="48.86749" lon="2.36364">
        <ele>47.200000762939</ele>
        <time>2015-06-01T19:23:05.000Z</time>
      </trkpt>
      <trkpt lat="48.86758" lon="2.36358">
        <ele>47.400001525879</ele>
        <time>2015-06-01T19:23:10.000Z</time>
      </trkpt>
      <trkpt lat="48.86767" lon="2.36356">
        <ele>47.400001525879</ele>
        <time>2015-06-01T19:23:15.000Z</time>
      </trkpt>
      <trkpt lat="48.86769" lon="2.36355">
        <ele>47.400001525879</ele>
        <time>2015-06-01T19:23:16.000Z</time>
      </trkpt>
      <trkpt lat="48.86771" lon="2.36353">
        <ele>47.400001525879</ele>
        <time>2015-06-01T19:23:17.000Z</time>
      </trkpt>
      <trkpt lat="48.86779" lon="2.36343">
        <ele>46.599998474121</ele>
        <time>2015-06-01T19:23:23.000Z</time>
      </trkpt>
      <trkpt lat="48.86784" lon="2.36329">
        <ele>46</ele>
        <time>2015-06-01T19:23:28.000Z</time>
      </trkpt>
      <trkpt lat="48.86791" lon="2.36325">
        <ele>45.799999237061</ele>
        <time>2015-06-01T19:23:32.000Z</time>
      </trkpt>
      <trkpt lat="48.86797" lon="2.36324">
        <ele>45.599998474121</ele>
        <time>2015-06-01T19:23:35.000Z</time>
      </trkpt>
      <trkpt lat="48.86807" lon="2.3631">
        <ele>45.400001525879</ele>
        <time>2015-06-01T19:23:41.000Z</time>
      </trkpt>
      <trkpt lat="48.86813" lon="2.36301">
        <ele>45.400001525879</ele>
        <time>2015-06-01T19:23:45.000Z</time>
      </trkpt>
      <trkpt lat="48.86815" lon="2.36301">
        <ele>45.400001525879</ele>
        <time>2015-06-01T19:23:46.000Z</time>
      </trkpt>
      <trkpt lat="48.86818" lon="2.363">
        <ele>45.200000762939</ele>
        <time>2015-06-01T19:23:48.000Z</time>
      </trkpt>
      <trkpt lat="48.86827" lon="2.36307">
        <ele>44.200000762939</ele>
        <time>2015-06-01T19:23:56.000Z</time>
      </trkpt>
      <trkpt lat="48.86842" lon="2.36312">
        <ele>43.599998474121</ele>
        <time>2015-06-01T19:24:04.000Z</time>
      </trkpt>
      <trkpt lat="48.86851" lon="2.36307">
        <ele>43.400001525879</ele>
        <time>2015-06-01T19:24:09.000Z</time>
      </trkpt>
      <trkpt lat="48.86853" lon="2.36305">
        <ele>43.400001525879</ele>
        <time>2015-06-01T19:24:10.000Z</time>
      </trkpt>
      <trkpt lat="48.86865" lon="2.36305">
        <ele>43.400001525879</ele>
        <time>2015-06-01T19:24:15.000Z</time>
      </trkpt>
      <trkpt lat="48.86869" lon="2.36307">
        <ele>43.400001525879</ele>
        <time>2015-06-01T19:24:17.000Z</time>
      </trkpt>
      <trkpt lat="48.86881" lon="2.36311">
        <ele>43.400001525879</ele>
        <time>2015-06-01T19:24:22.000Z</time>
      </trkpt>
      <trkpt lat="48.86894" lon="2.36317">
        <ele>43.400001525879</ele>
        <time>2015-06-01T19:24:26.000Z</time>
      </trkpt>
      <trkpt lat="48.86913" lon="2.36329">
        <ele>43.400001525879</ele>
        <time>2015-06-01T19:24:31.000Z</time>
      </trkpt>
      <trkpt lat="48.86929" lon="2.36335">
        <ele>43.200000762939</ele>
        <time>2015-06-01T19:24:35.000Z</time>
      </trkpt>
      <trkpt lat="48.86947" lon="2.36341">
        <ele>43.200000762939</ele>
        <time>2015-06-01T19:24:40.000Z</time>
      </trkpt>
      <trkpt lat="48.86967" lon="2.36351">
        <ele>43.200000762939</ele>
        <time>2015-06-01T19:24:45.000Z</time>
      </trkpt>
      <trkpt lat="48.86982" lon="2.36363">
        <ele>43.200000762939</ele>
        <time>2015-06-01T19:24:49.000Z</time>
      </trkpt>
      <trkpt lat="48.86985" lon="2.36366">
        <ele>43.200000762939</ele>
        <time>2015-06-01T19:24:50.000Z</time>
      </trkpt>
      <trkpt lat="48.86992" lon="2.3638">
        <ele>43.200000762939</ele>
        <time>2015-06-01T19:24:53.000Z</time>
      </trkpt>
      <trkpt lat="48.86996" lon="2.36388">
        <ele>43.200000762939</ele>
        <time>2015-06-01T19:24:55.000Z</time>
      </trkpt>
      <trkpt lat="48.87" lon="2.36401">
        <ele>43.200000762939</ele>
        <time>2015-06-01T19:25:00.000Z</time>
      </trkpt>
      <trkpt lat="48.87008" lon="2.36415">
        <ele>43.200000762939</ele>
        <time>2015-06-01T19:25:04.000Z</time>
      </trkpt>
      <trkpt lat="48.87014" lon="2.36431">
        <ele>43.200000762939</ele>
        <time>2015-06-01T19:25:08.000Z</time>
      </trkpt>
      <trkpt lat="48.87022" lon="2.36447">
        <ele>43.200000762939</ele>
        <time>2015-06-01T19:25:12.000Z</time>
      </trkpt>
      <trkpt lat="48.87031" lon="2.36468">
        <ele>43.200000762939</ele>
        <time>2015-06-01T19:25:17.000Z</time>
      </trkpt>
      <trkpt lat="48.87041" lon="2.3649">
        <ele>43.200000762939</ele>
        <time>2015-06-01T19:25:22.000Z</time>
      </trkpt>
      <trkpt lat="48.87052" lon="2.36511">
        <ele>43.200000762939</ele>
        <time>2015-06-01T19:25:26.000Z</time>
      </trkpt>
      <trkpt lat="48.87062" lon="2.36527">
        <ele>42.799999237061</ele>
        <time>2015-06-01T19:25:30.000Z</time>
      </trkpt>
      <trkpt lat="48.87064" lon="2.3653">
        <ele>42.599998474121</ele>
        <time>2015-06-01T19:25:31.000Z</time>
      </trkpt>
      <trkpt lat="48.87068" lon="2.36537">
        <ele>42.200000762939</ele>
        <time>2015-06-01T19:25:34.000Z</time>
      </trkpt>
      <trkpt lat="48.87073" lon="2.36545">
        <ele>41.400001525879</ele>
        <time>2015-06-01T19:25:41.000Z</time>
      </trkpt>
      <trkpt lat="48.87074" lon="2.36546">
        <ele>41.200000762939</ele>
        <time>2015-06-01T19:25:42.000Z</time>
      </trkpt>
      <trkpt lat="48.8708" lon="2.36551">
        <ele>40.200000762939</ele>
        <time>2015-06-01T19:25:48.000Z</time>
      </trkpt>
      <trkpt lat="48.87082" lon="2.36556">
        <ele>46.799999237061</ele>
        <time>2015-06-01T19:26:33.000Z</time>
      </trkpt>
      <trkpt lat="48.87083" lon="2.36558">
        <ele>47.200000762939</ele>
        <time>2015-06-01T19:26:34.000Z</time>
      </trkpt>
      <trkpt lat="48.87089" lon="2.36572">
        <ele>48.599998474121</ele>
        <time>2015-06-01T19:26:41.000Z</time>
      </trkpt>
      <trkpt lat="48.8709" lon="2.36575">
        <ele>49.599998474121</ele>
        <time>2015-06-01T19:26:46.000Z</time>
      </trkpt>
      <trkpt lat="48.87094" lon="2.36586">
        <ele>51.799999237061</ele>
        <time>2015-06-01T19:27:10.000Z</time>
      </trkpt>
      <trkpt lat="48.87105" lon="2.36582">
        <ele>51.799999237061</ele>
        <time>2015-06-01T19:27:14.000Z</time>
      </trkpt>
      <trkpt lat="48.87125" lon="2.36566">
        <ele>51</ele>
        <time>2015-06-01T19:27:20.000Z</time>
      </trkpt>
      <trkpt lat="48.87137" lon="2.36553">
        <ele>50.200000762939</ele>
        <time>2015-06-01T19:27:23.000Z</time>
      </trkpt>
      <trkpt lat="48.87149" lon="2.36536">
        <ele>48.799999237061</ele>
        <time>2015-06-01T19:27:28.000Z</time>
      </trkpt>
      <trkpt lat="48.87154" lon="2.36531">
        <ele>48</ele>
        <time>2015-06-01T19:27:30.000Z</time>
      </trkpt>
      <trkpt lat="48.87168" lon="2.36518">
        <ele>46.799999237061</ele>
        <time>2015-06-01T19:27:34.000Z</time>
      </trkpt>
      <trkpt lat="48.87182" lon="2.36511">
        <ele>45.200000762939</ele>
        <time>2015-06-01T19:27:39.000Z</time>
      </trkpt>
      <trkpt lat="48.87192" lon="2.36502">
        <ele>44.400001525879</ele>
        <time>2015-06-01T19:27:44.000Z</time>
      </trkpt>
      <trkpt lat="48.87202" lon="2.36492">
        <ele>43</ele>
        <time>2015-06-01T19:27:47.000Z</time>
      </trkpt>
      <trkpt lat="48.87217" lon="2.36481">
        <ele>42</ele>
        <time>2015-06-01T19:27:54.000Z</time>
      </trkpt>
      <trkpt lat="48.87227" lon="2.36471">
        <ele>41.200000762939</ele>
        <time>2015-06-01T19:27:58.000Z</time>
      </trkpt>
      <trkpt lat="48.87242" lon="2.36457">
        <ele>40.200000762939</ele>
        <time>2015-06-01T19:28:04.000Z</time>
      </trkpt>
      <trkpt lat="48.8725" lon="2.3645">
        <ele>39.799999237061</ele>
        <time>2015-06-01T19:28:06.000Z</time>
      </trkpt>
      <trkpt lat="48.87263" lon="2.36432">
        <ele>39.200000762939</ele>
        <time>2015-06-01T19:28:13.000Z</time>
      </trkpt>
      <trkpt lat="48.87268" lon="2.36425">
        <ele>39</ele>
        <time>2015-06-01T19:28:15.000Z</time>
      </trkpt>
      <trkpt lat="48.8728" lon="2.36414">
        <ele>39.200000762939</ele>
        <time>2015-06-01T19:28:21.000Z</time>
      </trkpt>
      <trkpt lat="48.87285" lon="2.36408">
        <ele>39.400001525879</ele>
        <time>2015-06-01T19:28:23.000Z</time>
      </trkpt>
      <trkpt lat="48.87291" lon="2.36404">
        <ele>39.799999237061</ele>
        <time>2015-06-01T19:28:27.000Z</time>
      </trkpt>
      <trkpt lat="48.87295" lon="2.36401">
        <ele>40.799999237061</ele>
        <time>2015-06-01T19:28:31.000Z</time>
      </trkpt>
      <trkpt lat="48.87304" lon="2.36401">
        <ele>43.400001525879</ele>
        <time>2015-06-01T19:28:51.000Z</time>
      </trkpt>
      <trkpt lat="48.87305" lon="2.36399">
        <ele>43.599998474121</ele>
        <time>2015-06-01T19:28:52.000Z</time>
      </trkpt>
      <trkpt lat="48.87318" lon="2.36395">
        <ele>44.200000762939</ele>
        <time>2015-06-01T19:28:58.000Z</time>
      </trkpt>
      <trkpt lat="48.87331" lon="2.3639">
        <ele>44.400001525879</ele>
        <time>2015-06-01T19:29:05.000Z</time>
      </trkpt>
      <trkpt lat="48.87337" lon="2.36381">
        <ele>44.599998474121</ele>
        <time>2015-06-01T19:29:08.000Z</time>
      </trkpt>
      <trkpt lat="48.87349" lon="2.36372">
        <ele>44.599998474121</ele>
        <time>2015-06-01T19:29:13.000Z</time>
      </trkpt>
      <trkpt lat="48.87362" lon="2.36364">
        <ele>44.400001525879</ele>
        <time>2015-06-01T19:29:19.000Z</time>
      </trkpt>
      <trkpt lat="48.87377" lon="2.36361">
        <ele>43.799999237061</ele>
        <time>2015-06-01T19:29:23.000Z</time>
      </trkpt>
      <trkpt lat="48.87392" lon="2.36353">
        <ele>43.200000762939</ele>
        <time>2015-06-01T19:29:27.000Z</time>
      </trkpt>
      <trkpt lat="48.8741" lon="2.3634">
        <ele>42.400001525879</ele>
        <time>2015-06-01T19:29:31.000Z</time>
      </trkpt>
      <trkpt lat="48.87415" lon="2.36339">
        <ele>42.200000762939</ele>
        <time>2015-06-01T19:29:32.000Z</time>
      </trkpt>
      <trkpt lat="48.87436" lon="2.36336">
        <ele>41.599998474121</ele>
        <time>2015-06-01T19:29:36.000Z</time>
      </trkpt>
      <trkpt lat="48.87441" lon="2.36336">
        <ele>41.599998474121</ele>
        <time>2015-06-01T19:29:38.000Z</time>
      </trkpt>
      <trkpt lat="48.87456" lon="2.36341">
        <ele>41</ele>
        <time>2015-06-01T19:29:41.000Z</time>
      </trkpt>
      <trkpt lat="48.87465" lon="2.36346">
        <ele>40.599998474121</ele>
        <time>2015-06-01T19:29:43.000Z</time>
      </trkpt>
      <trkpt lat="48.87476" lon="2.36354">
        <ele>40</ele>
        <time>2015-06-01T19:29:46.000Z</time>
      </trkpt>
      <trkpt lat="48.8749" lon="2.36366">
        <ele>39.599998474121</ele>
        <time>2015-06-01T19:29:49.000Z</time>
      </trkpt>
      <trkpt lat="48.87499" lon="2.36375">
        <ele>39.200000762939</ele>
        <time>2015-06-01T19:29:52.000Z</time>
      </trkpt>
      <trkpt lat="48.87514" lon="2.36388">
        <ele>39</ele>
        <time>2015-06-01T19:29:56.000Z</time>
      </trkpt>
      <trkpt lat="48.87535" lon="2.36407">
        <ele>38.799999237061</ele>
        <time>2015-06-01T19:30:02.000Z</time>
      </trkpt>
      <trkpt lat="48.87554" lon="2.36425">
        <ele>38.599998474121</ele>
        <time>2015-06-01T19:30:08.000Z</time>
      </trkpt>
      <trkpt lat="48.87567" lon="2.36437">
        <ele>38.599998474121</ele>
        <time>2015-06-01T19:30:12.000Z</time>
      </trkpt>
      <trkpt lat="48.87588" lon="2.36451">
        <ele>38.599998474121</ele>
        <time>2015-06-01T19:30:18.000Z</time>
      </trkpt>
      <trkpt lat="48.87606" lon="2.36465">
        <ele>38.599998474121</ele>
        <time>2015-06-01T19:30:24.000Z</time>
      </trkpt>
      <trkpt lat="48.87626" lon="2.36481">
        <ele>39.400001525879</ele>
        <time>2015-06-01T19:30:29.000Z</time>
      </trkpt>
      <trkpt lat="48.87637" lon="2.36491">
        <ele>39.599998474121</ele>
        <time>2015-06-01T19:30:32.000Z</time>
      </trkpt>
      <trkpt lat="48.87654" lon="2.36506">
        <ele>40.200000762939</ele>
        <time>2015-06-01T19:30:37.000Z</time>
      </trkpt>
      <trkpt lat="48.87674" lon="2.36522">
        <ele>41.599998474121</ele>
        <time>2015-06-01T19:30:44.000Z</time>
      </trkpt>
      <trkpt lat="48.87688" lon="2.36535">
        <ele>42.799999237061</ele>
        <time>2015-06-01T19:30:49.000Z</time>
      </trkpt>
      <trkpt lat="48.87698" lon="2.36544">
        <ele>43.400001525879</ele>
        <time>2015-06-01T19:30:53.000Z</time>
      </trkpt>
      <trkpt lat="48.87711" lon="2.36556">
        <ele>44.400001525879</ele>
        <time>2015-06-01T19:30:58.000Z</time>
      </trkpt>
      <trkpt lat="48.87719" lon="2.36564">
        <ele>45.200000762939</ele>
        <time>2015-06-01T19:31:02.000Z</time>
      </trkpt>
      <trkpt lat="48.87723" lon="2.36571">
        <ele>45.799999237061</ele>
        <time>2015-06-01T19:31:07.000Z</time>
      </trkpt>
      <trkpt lat="48.87724" lon="2.36572">
        <ele>46</ele>
        <time>2015-06-01T19:31:08.000Z</time>
      </trkpt>
      <trkpt lat="48.87726" lon="2.36575">
        <ele>46.599998474121</ele>
        <time>2015-06-01T19:31:20.000Z</time>
      </trkpt>
      <trkpt lat="48.87731" lon="2.3658">
        <ele>48.599998474121</ele>
        <time>2015-06-01T19:31:39.000Z</time>
      </trkpt>
      <trkpt lat="48.87738" lon="2.36585">
        <ele>48.599998474121</ele>
        <time>2015-06-01T19:31:44.000Z</time>
      </trkpt>
      <trkpt lat="48.87748" lon="2.36594">
        <ele>48.799999237061</ele>
        <time>2015-06-01T19:31:49.000Z</time>
      </trkpt>
      <trkpt lat="48.87761" lon="2.36602">
        <ele>48.799999237061</ele>
        <time>2015-06-01T19:31:54.000Z</time>
      </trkpt>
      <trkpt lat="48.87774" lon="2.36615">
        <ele>48.799999237061</ele>
        <time>2015-06-01T19:32:01.000Z</time>
      </trkpt>
      <trkpt lat="48.87786" lon="2.36626">
        <ele>48.799999237061</ele>
        <time>2015-06-01T19:32:06.000Z</time>
      </trkpt>
      <trkpt lat="48.87799" lon="2.36635">
        <ele>49</ele>
        <time>2015-06-01T19:32:11.000Z</time>
      </trkpt>
      <trkpt lat="48.87807" lon="2.36643">
        <ele>49</ele>
        <time>2015-06-01T19:32:14.000Z</time>
      </trkpt>
      <trkpt lat="48.87819" lon="2.36652">
        <ele>49</ele>
        <time>2015-06-01T19:32:19.000Z</time>
      </trkpt>
      <trkpt lat="48.87828" lon="2.3666">
        <ele>49</ele>
        <time>2015-06-01T19:32:22.000Z</time>
      </trkpt>
      <trkpt lat="48.87837" lon="2.36667">
        <ele>49</ele>
        <time>2015-06-01T19:32:25.000Z</time>
      </trkpt>
      <trkpt lat="48.8784" lon="2.36669">
        <ele>49</ele>
        <time>2015-06-01T19:32:26.000Z</time>
      </trkpt>
      <trkpt lat="48.87852" lon="2.36679">
        <ele>49</ele>
        <time>2015-06-01T19:32:31.000Z</time>
      </trkpt>
      <trkpt lat="48.87864" lon="2.36688">
        <ele>49.200000762939</ele>
        <time>2015-06-01T19:32:36.000Z</time>
      </trkpt>
      <trkpt lat="48.87877" lon="2.36698">
        <ele>50</ele>
        <time>2015-06-01T19:32:41.000Z</time>
      </trkpt>
      <trkpt lat="48.87886" lon="2.36711">
        <ele>51</ele>
        <time>2015-06-01T19:32:45.000Z</time>
      </trkpt>
      <trkpt lat="48.87899" lon="2.36721">
        <ele>52</ele>
        <time>2015-06-01T19:32:49.000Z</time>
      </trkpt>
      <trkpt lat="48.87918" lon="2.36733">
        <ele>53</ele>
        <time>2015-06-01T19:32:53.000Z</time>
      </trkpt>
      <trkpt lat="48.87929" lon="2.36751">
        <ele>55</ele>
        <time>2015-06-01T19:32:59.000Z</time>
      </trkpt>
      <trkpt lat="48.87934" lon="2.36761">
        <ele>56.200000762939</ele>
        <time>2015-06-01T19:33:02.000Z</time>
      </trkpt>
      <trkpt lat="48.87945" lon="2.36776">
        <ele>67.199996948242</ele>
        <time>2015-06-01T19:33:50.000Z</time>
      </trkpt>
      <trkpt lat="48.87946" lon="2.36787">
        <ele>67.599998474121</ele>
        <time>2015-06-01T19:33:54.000Z</time>
      </trkpt>
      <trkpt lat="48.87947" lon="2.3679">
        <ele>67.599998474121</ele>
        <time>2015-06-01T19:33:56.000Z</time>
      </trkpt>
      <trkpt lat="48.87956" lon="2.36799">
        <ele>67.800003051758</ele>
        <time>2015-06-01T19:34:01.000Z</time>
      </trkpt>
      <trkpt lat="48.87958" lon="2.36801">
        <ele>68</ele>
        <time>2015-06-01T19:34:02.000Z</time>
      </trkpt>
      <trkpt lat="48.87965" lon="2.36806">
        <ele>68</ele>
        <time>2015-06-01T19:34:05.000Z</time>
      </trkpt>
      <trkpt lat="48.87972" lon="2.3681">
        <ele>68</ele>
        <time>2015-06-01T19:34:09.000Z</time>
      </trkpt>
      <trkpt lat="48.87977" lon="2.36813">
        <ele>68.199996948242</ele>
        <time>2015-06-01T19:34:11.000Z</time>
      </trkpt>
      <trkpt lat="48.87991" lon="2.36824">
        <ele>69</ele>
        <time>2015-06-01T19:34:16.000Z</time>
      </trkpt>
      <trkpt lat="48.88007" lon="2.36837">
        <ele>69.599998474121</ele>
        <time>2015-06-01T19:34:21.000Z</time>
      </trkpt>
      <trkpt lat="48.8802" lon="2.36848">
        <ele>69.800003051758</ele>
        <time>2015-06-01T19:34:26.000Z</time>
      </trkpt>
      <trkpt lat="48.88032" lon="2.36859">
        <ele>70</ele>
        <time>2015-06-01T19:34:29.000Z</time>
      </trkpt>
      <trkpt lat="48.88044" lon="2.36871">
        <ele>70</ele>
        <time>2015-06-01T19:34:33.000Z</time>
      </trkpt>
      <trkpt lat="48.88062" lon="2.36885">
        <ele>70.199996948242</ele>
        <time>2015-06-01T19:34:40.000Z</time>
      </trkpt>
      <trkpt lat="48.88077" lon="2.36897">
        <ele>70.199996948242</ele>
        <time>2015-06-01T19:34:45.000Z</time>
      </trkpt>
      <trkpt lat="48.8809" lon="2.36908">
        <ele>70.199996948242</ele>
        <time>2015-06-01T19:34:49.000Z</time>
      </trkpt>
      <trkpt lat="48.88107" lon="2.36923">
        <ele>70.199996948242</ele>
        <time>2015-06-01T19:34:55.000Z</time>
      </trkpt>
      <trkpt lat="48.88121" lon="2.36935">
        <ele>70.199996948242</ele>
        <time>2015-06-01T19:35:00.000Z</time>
      </trkpt>
      <trkpt lat="48.88137" lon="2.36954">
        <ele>70.199996948242</ele>
        <time>2015-06-01T19:35:05.000Z</time>
      </trkpt>
      <trkpt lat="48.88148" lon="2.36972">
        <ele>69.400001525879</ele>
        <time>2015-06-01T19:35:09.000Z</time>
      </trkpt>
      <trkpt lat="48.88149" lon="2.36975">
        <ele>68.599998474121</ele>
        <time>2015-06-01T19:35:11.000Z</time>
      </trkpt>
      <trkpt lat="48.8815" lon="2.3698">
        <ele>66.400001525879</ele>
        <time>2015-06-01T19:35:19.000Z</time>
      </trkpt>
      <trkpt lat="48.88151" lon="2.36982">
        <ele>65</ele>
        <time>2015-06-01T19:35:24.000Z</time>
      </trkpt>
      <trkpt lat="48.88152" lon="2.36996">
        <ele>63.799999237061</ele>
        <time>2015-06-01T19:35:30.000Z</time>
      </trkpt>
      <trkpt lat="48.8815" lon="2.3701">
        <ele>62.799999237061</ele>
        <time>2015-06-01T19:35:33.000Z</time>
      </trkpt>
      <trkpt lat="48.8815" lon="2.37014">
        <ele>62.599998474121</ele>
        <time>2015-06-01T19:35:34.000Z</time>
      </trkpt>
      <trkpt lat="48.8815" lon="2.37016">
        <ele>62.599998474121</ele>
        <time>2015-06-01T19:35:35.000Z</time>
      </trkpt>
      <trkpt lat="48.88156" lon="2.37025">
        <ele>62</ele>
        <time>2015-06-01T19:35:40.000Z</time>
      </trkpt>
      <trkpt lat="48.88176" lon="2.3703">
        <ele>61.599998474121</ele>
        <time>2015-06-01T19:35:46.000Z</time>
      </trkpt>
      <trkpt lat="48.88196" lon="2.37031">
        <ele>61.400001525879</ele>
        <time>2015-06-01T19:35:53.000Z</time>
      </trkpt>
      <trkpt lat="48.88208" lon="2.37032">
        <ele>61.200000762939</ele>
        <time>2015-06-01T19:35:56.000Z</time>
      </trkpt>
      <trkpt lat="48.88226" lon="2.37034">
        <ele>61.200000762939</ele>
        <time>2015-06-01T19:36:02.000Z</time>
      </trkpt>
      <trkpt lat="48.88241" lon="2.37033">
        <ele>61.200000762939</ele>
        <time>2015-06-01T19:36:08.000Z</time>
      </trkpt>
      <trkpt lat="48.88261" lon="2.37029">
        <ele>61.200000762939</ele>
        <time>2015-06-01T19:36:15.000Z</time>
      </trkpt>
      <trkpt lat="48.88274" lon="2.3703">
        <ele>61.200000762939</ele>
        <time>2015-06-01T19:36:20.000Z</time>
      </trkpt>
      <trkpt lat="48.88285" lon="2.37036">
        <ele>61.200000762939</ele>
        <time>2015-06-01T19:36:25.000Z</time>
      </trkpt>
      <trkpt lat="48.88286" lon="2.37037">
        <ele>61.200000762939</ele>
        <time>2015-06-01T19:36:26.000Z</time>
      </trkpt>
      <trkpt lat="48.88291" lon="2.37036">
        <ele>61.200000762939</ele>
        <time>2015-06-01T19:36:32.000Z</time>
      </trkpt>
      <trkpt lat="48.88292" lon="2.37035">
        <ele>61.200000762939</ele>
        <time>2015-06-01T19:36:33.000Z</time>
      </trkpt>
      <trkpt lat="48.88297" lon="2.37029">
        <ele>61.200000762939</ele>
        <time>2015-06-01T19:37:16.000Z</time>
      </trkpt>
      <trkpt lat="48.88299" lon="2.37025">
        <ele>61.200000762939</ele>
        <time>2015-06-01T19:37:20.000Z</time>
      </trkpt>
      <trkpt lat="48.88307" lon="2.37014">
        <ele>61.200000762939</ele>
        <time>2015-06-01T19:37:28.000Z</time>
      </trkpt>
      <trkpt lat="48.88314" lon="2.37003">
        <ele>61.200000762939</ele>
        <time>2015-06-01T19:37:35.000Z</time>
      </trkpt>
      <trkpt lat="48.88315" lon="2.37002">
        <ele>61.200000762939</ele>
        <time>2015-06-01T19:37:36.000Z</time>
      </trkpt>
      <trkpt lat="48.88325" lon="2.36995">
        <ele>61.200000762939</ele>
        <time>2015-06-01T19:37:43.000Z</time>
      </trkpt>
      <trkpt lat="48.88339" lon="2.36992">
        <ele>61.200000762939</ele>
        <time>2015-06-01T19:37:49.000Z</time>
      </trkpt>
      <trkpt lat="48.88349" lon="2.36989">
        <ele>61.200000762939</ele>
        <time>2015-06-01T19:37:53.000Z</time>
      </trkpt>
      <trkpt lat="48.88364" lon="2.36979">
        <ele>61.200000762939</ele>
        <time>2015-06-01T19:38:00.000Z</time>
      </trkpt>
      <trkpt lat="48.88371" lon="2.36962">
        <ele>61.200000762939</ele>
        <time>2015-06-01T19:38:05.000Z</time>
      </trkpt>
      <trkpt lat="48.88378" lon="2.36943">
        <ele>60.799999237061</ele>
        <time>2015-06-01T19:38:10.000Z</time>
      </trkpt>
      <trkpt lat="48.88386" lon="2.36924">
        <ele>60</ele>
        <time>2015-06-01T19:38:15.000Z</time>
      </trkpt>
      <trkpt lat="48.88399" lon="2.36913">
        <ele>59.599998474121</ele>
        <time>2015-06-01T19:38:20.000Z</time>
      </trkpt>
      <trkpt lat="48.88413" lon="2.36914">
        <ele>59.400001525879</ele>
        <time>2015-06-01T19:38:25.000Z</time>
      </trkpt>
      <trkpt lat="48.88418" lon="2.36918">
        <ele>59.400001525879</ele>
        <time>2015-06-01T19:38:27.000Z</time>
      </trkpt>
      <trkpt lat="48.88422" lon="2.36946">
        <ele>59.200000762939</ele>
        <time>2015-06-01T19:38:33.000Z</time>
      </trkpt>
      <trkpt lat="48.88422" lon="2.36951">
        <ele>59.200000762939</ele>
        <time>2015-06-01T19:38:34.000Z</time>
      </trkpt>
      <trkpt lat="48.88426" lon="2.3698">
        <ele>59.200000762939</ele>
        <time>2015-06-01T19:38:40.000Z</time>
      </trkpt>
      <trkpt lat="48.88434" lon="2.37009">
        <ele>59</ele>
        <time>2015-06-01T19:38:46.000Z</time>
      </trkpt>
      <trkpt lat="48.88443" lon="2.37031">
        <ele>59</ele>
        <time>2015-06-01T19:38:51.000Z</time>
      </trkpt>
      <trkpt lat="48.88452" lon="2.37046">
        <ele>59</ele>
        <time>2015-06-01T19:38:56.000Z</time>
      </trkpt>
      <trkpt lat="48.88461" lon="2.3706">
        <ele>59</ele>
        <time>2015-06-01T19:39:01.000Z</time>
      </trkpt>
      <trkpt lat="48.88473" lon="2.37081">
        <ele>59</ele>
        <time>2015-06-01T19:39:06.000Z</time>
      </trkpt>
      <trkpt lat="48.88486" lon="2.37102">
        <ele>59</ele>
        <time>2015-06-01T19:39:11.000Z</time>
      </trkpt>
      <trkpt lat="48.88495" lon="2.3712">
        <ele>58.599998474121</ele>
        <time>2015-06-01T19:39:14.000Z</time>
      </trkpt>
      <trkpt lat="48.88506" lon="2.37133">
        <ele>58</ele>
        <time>2015-06-01T19:39:19.000Z</time>
      </trkpt>
      <trkpt lat="48.88517" lon="2.37156">
        <ele>57.599998474121</ele>
        <time>2015-06-01T19:39:25.000Z</time>
      </trkpt>
      <trkpt lat="48.88525" lon="2.3717">
        <ele>57.400001525879</ele>
        <time>2015-06-01T19:39:29.000Z</time>
      </trkpt>
      <trkpt lat="48.88528" lon="2.37176">
        <ele>57.200000762939</ele>
        <time>2015-06-01T19:39:31.000Z</time>
      </trkpt>
      <trkpt lat="48.88537" lon="2.37199">
        <ele>57.200000762939</ele>
        <time>2015-06-01T19:39:36.000Z</time>
      </trkpt>
      <trkpt lat="48.88547" lon="2.37221">
        <ele>56.400001525879</ele>
        <time>2015-06-01T19:39:42.000Z</time>
      </trkpt>
      <trkpt lat="48.88557" lon="2.37242">
        <ele>55.799999237061</ele>
        <time>2015-06-01T19:39:47.000Z</time>
      </trkpt>
      <trkpt lat="48.88567" lon="2.37261">
        <ele>55.400001525879</ele>
        <time>2015-06-01T19:39:51.000Z</time>
      </trkpt>
      <trkpt lat="48.88579" lon="2.37282">
        <ele>55.200000762939</ele>
        <time>2015-06-01T19:39:57.000Z</time>
      </trkpt>
      <trkpt lat="48.88591" lon="2.37304">
        <ele>55.200000762939</ele>
        <time>2015-06-01T19:40:02.000Z</time>
      </trkpt>
      <trkpt lat="48.88601" lon="2.3732">
        <ele>54.799999237061</ele>
        <time>2015-06-01T19:40:06.000Z</time>
      </trkpt>
      <trkpt lat="48.8861" lon="2.37337">
        <ele>54.200000762939</ele>
        <time>2015-06-01T19:40:10.000Z</time>
      </trkpt>
      <trkpt lat="48.88621" lon="2.3736">
        <ele>53.599998474121</ele>
        <time>2015-06-01T19:40:15.000Z</time>
      </trkpt>
      <trkpt lat="48.88629" lon="2.3738">
        <ele>53.400001525879</ele>
        <time>2015-06-01T19:40:19.000Z</time>
      </trkpt>
      <trkpt lat="48.88641" lon="2.37404">
        <ele>53.200000762939</ele>
        <time>2015-06-01T19:40:25.000Z</time>
      </trkpt>
      <trkpt lat="48.88654" lon="2.37428">
        <ele>53.200000762939</ele>
        <time>2015-06-01T19:40:30.000Z</time>
      </trkpt>
      <trkpt lat="48.88665" lon="2.37452">
        <ele>53</ele>
        <time>2015-06-01T19:40:35.000Z</time>
      </trkpt>
      <trkpt lat="48.88677" lon="2.37476">
        <ele>53</ele>
        <time>2015-06-01T19:40:40.000Z</time>
      </trkpt>
      <trkpt lat="48.8869" lon="2.37501">
        <ele>53</ele>
        <time>2015-06-01T19:40:45.000Z</time>
      </trkpt>
      <trkpt lat="48.887" lon="2.37519">
        <ele>53</ele>
        <time>2015-06-01T19:40:48.000Z</time>
      </trkpt>
      <trkpt lat="48.8871" lon="2.37542">
        <ele>53</ele>
        <time>2015-06-01T19:40:53.000Z</time>
      </trkpt>
      <trkpt lat="48.88715" lon="2.37552">
        <ele>53</ele>
        <time>2015-06-01T19:40:55.000Z</time>
      </trkpt>
      <trkpt lat="48.88718" lon="2.37559">
        <ele>53</ele>
        <time>2015-06-01T19:40:56.000Z</time>
      </trkpt>
      <trkpt lat="48.88734" lon="2.37587">
        <ele>53</ele>
        <time>2015-06-01T19:41:01.000Z</time>
      </trkpt>
      <trkpt lat="48.88736" lon="2.37592">
        <ele>53</ele>
        <time>2015-06-01T19:41:03.000Z</time>
      </trkpt>
      <trkpt lat="48.88745" lon="2.37613">
        <ele>53.599998474121</ele>
        <time>2015-06-01T19:41:07.000Z</time>
      </trkpt>
      <trkpt lat="48.88756" lon="2.37637">
        <ele>54.200000762939</ele>
        <time>2015-06-01T19:41:11.000Z</time>
      </trkpt>
      <trkpt lat="48.88762" lon="2.37647">
        <ele>54.400001525879</ele>
        <time>2015-06-01T19:41:13.000Z</time>
      </trkpt>
      <trkpt lat="48.8877" lon="2.37663">
        <ele>54.599998474121</ele>
        <time>2015-06-01T19:41:16.000Z</time>
      </trkpt>
      <trkpt lat="48.8878" lon="2.37684">
        <ele>54.799999237061</ele>
        <time>2015-06-01T19:41:20.000Z</time>
      </trkpt>
      <trkpt lat="48.88785" lon="2.37694">
        <ele>54.799999237061</ele>
        <time>2015-06-01T19:41:21.000Z</time>
      </trkpt>
      <trkpt lat="48.88794" lon="2.3772">
        <ele>55</ele>
        <time>2015-06-01T19:41:26.000Z</time>
      </trkpt>
      <trkpt lat="48.88796" lon="2.37725">
        <ele>55</ele>
        <time>2015-06-01T19:41:27.000Z</time>
      </trkpt>
      <trkpt lat="48.88804" lon="2.37744">
        <ele>55</ele>
        <time>2015-06-01T19:41:31.000Z</time>
      </trkpt>
      <trkpt lat="48.88818" lon="2.37771">
        <ele>55</ele>
        <time>2015-06-01T19:41:37.000Z</time>
      </trkpt>
      <trkpt lat="48.88831" lon="2.37793">
        <ele>55</ele>
        <time>2015-06-01T19:41:42.000Z</time>
      </trkpt>
      <trkpt lat="48.88843" lon="2.37816">
        <ele>55</ele>
        <time>2015-06-01T19:41:47.000Z</time>
      </trkpt>
      <trkpt lat="48.88852" lon="2.37837">
        <ele>55</ele>
        <time>2015-06-01T19:41:52.000Z</time>
      </trkpt>
      <trkpt lat="48.88865" lon="2.37863">
        <ele>55</ele>
        <time>2015-06-01T19:41:58.000Z</time>
      </trkpt>
      <trkpt lat="48.88869" lon="2.37869">
        <ele>54.599998474121</ele>
        <time>2015-06-01T19:42:00.000Z</time>
      </trkpt>
      <trkpt lat="48.88874" lon="2.37879">
        <ele>54.200000762939</ele>
        <time>2015-06-01T19:42:04.000Z</time>
      </trkpt>
      <trkpt lat="48.88876" lon="2.37878">
        <ele>53.400001525879</ele>
        <time>2015-06-01T19:42:14.000Z</time>
      </trkpt>
      <trkpt lat="48.88878" lon="2.37879">
        <ele>53.200000762939</ele>
        <time>2015-06-01T19:42:21.000Z</time>
      </trkpt>
      <trkpt lat="48.88881" lon="2.37883">
        <ele>57</ele>
        <time>2015-06-01T19:42:43.000Z</time>
      </trkpt>
      <trkpt lat="48.88882" lon="2.37883">
        <ele>59</ele>
        <time>2015-06-01T19:42:49.000Z</time>
      </trkpt>
      <trkpt lat="48.88885" lon="2.37902">
        <ele>60.599998474121</ele>
        <time>2015-06-01T19:42:56.000Z</time>
      </trkpt>
      <trkpt lat="48.88885" lon="2.37905">
        <ele>61</ele>
        <time>2015-06-01T19:42:57.000Z</time>
      </trkpt>
      <trkpt lat="48.8888" lon="2.37915">
        <ele>62</ele>
        <time>2015-06-01T19:43:02.000Z</time>
      </trkpt>
      <trkpt lat="48.88872" lon="2.37922">
        <ele>62.599998474121</ele>
        <time>2015-06-01T19:43:07.000Z</time>
      </trkpt>
      <trkpt lat="48.88866" lon="2.37932">
        <ele>63.200000762939</ele>
        <time>2015-06-01T19:43:13.000Z</time>
      </trkpt>
      <trkpt lat="48.88864" lon="2.37933">
        <ele>63.200000762939</ele>
        <time>2015-06-01T19:43:14.000Z</time>
      </trkpt>
      <trkpt lat="48.88858" lon="2.37936">
        <ele>63.400001525879</ele>
        <time>2015-06-01T19:43:19.000Z</time>
      </trkpt>
      <trkpt lat="48.88857" lon="2.37936">
        <ele>63.400001525879</ele>
        <time>2015-06-01T19:43:20.000Z</time>
      </trkpt>
      <trkpt lat="48.88854" lon="2.37937">
        <ele>63.400001525879</ele>
        <time>2015-06-01T19:43:22.000Z</time>
      </trkpt>
      <trkpt lat="48.8885" lon="2.37937">
        <ele>63.599998474121</ele>
        <time>2015-06-01T19:43:26.000Z</time>
      </trkpt>
      <trkpt lat="48.88848" lon="2.37937">
        <ele>63.599998474121</ele>
        <time>2015-06-01T19:43:29.000Z</time>
      </trkpt>
      <trkpt lat="48.88844" lon="2.37942">
        <ele>63.599998474121</ele>
        <time>2015-06-01T19:43:35.000Z</time>
      </trkpt>
      <trkpt lat="48.88834" lon="2.37954">
        <ele>63.599998474121</ele>
        <time>2015-06-01T19:43:42.000Z</time>
      </trkpt>
      <trkpt lat="48.88832" lon="2.37957">
        <ele>63.599998474121</ele>
        <time>2015-06-01T19:43:46.000Z</time>
      </trkpt>
      <trkpt lat="48.88832" lon="2.37958">
        <ele>63.599998474121</ele>
        <time>2015-06-01T19:43:51.000Z</time>
      </trkpt>
      <trkpt lat="48.88832" lon="2.37957">
        <ele>63.599998474121</ele>
        <time>2015-06-01T19:43:58.000Z</time>
      </trkpt>
      <trkpt lat="48.88831" lon="2.37964">
        <ele>63.599998474121</ele>
        <time>2015-06-01T19:44:19.000Z</time>
      </trkpt>
      <trkpt lat="48.88835" lon="2.37981">
        <ele>63.599998474121</ele>
        <time>2015-06-01T19:44:25.000Z</time>
      </trkpt>
      <trkpt lat="48.88842" lon="2.37997">
        <ele>63.599998474121</ele>
        <time>2015-06-01T19:44:31.000Z</time>
      </trkpt>
      <trkpt lat="48.8885" lon="2.38011">
        <ele>63.599998474121</ele>
        <time>2015-06-01T19:44:36.000Z</time>
      </trkpt>
      <trkpt lat="48.88858" lon="2.38029">
        <ele>63</ele>
        <time>2015-06-01T19:44:42.000Z</time>
      </trkpt>
      <trkpt lat="48.88868" lon="2.38049">
        <ele>62.400001525879</ele>
        <time>2015-06-01T19:44:48.000Z</time>
      </trkpt>
      <trkpt lat="48.88883" lon="2.38067">
        <ele>62</ele>
        <time>2015-06-01T19:44:55.000Z</time>
      </trkpt>
      <trkpt lat="48.88896" lon="2.38088">
        <ele>61.799999237061</ele>
        <time>2015-06-01T19:45:02.000Z</time>
      </trkpt>
      <trkpt lat="48.88904" lon="2.38104">
        <ele>61.599998474121</ele>
        <time>2015-06-01T19:45:07.000Z</time>
      </trkpt>
      <trkpt lat="48.88917" lon="2.38128">
        <ele>61.599998474121</ele>
        <time>2015-06-01T19:45:14.000Z</time>
      </trkpt>
      <trkpt lat="48.8893" lon="2.3815">
        <ele>61.599998474121</ele>
        <time>2015-06-01T19:45:20.000Z</time>
      </trkpt>
      <trkpt lat="48.8894" lon="2.38171">
        <ele>61.599998474121</ele>
        <time>2015-06-01T19:45:25.000Z</time>
      </trkpt>
      <trkpt lat="48.88954" lon="2.38195">
        <ele>61.599998474121</ele>
        <time>2015-06-01T19:45:31.000Z</time>
      </trkpt>
      <trkpt lat="48.88964" lon="2.38215">
        <ele>61.599998474121</ele>
        <time>2015-06-01T19:45:36.000Z</time>
      </trkpt>
      <trkpt lat="48.88966" lon="2.38219">
        <ele>61.599998474121</ele>
        <time>2015-06-01T19:45:37.000Z</time>
      </trkpt>
      <trkpt lat="48.8898" lon="2.38243">
        <ele>61.599998474121</ele>
        <time>2015-06-01T19:45:43.000Z</time>
      </trkpt>
      <trkpt lat="48.88998" lon="2.38283">
        <ele>61.599998474121</ele>
        <time>2015-06-01T19:45:55.000Z</time>
      </trkpt>
      <trkpt lat="48.88998" lon="2.38285">
        <ele>61.599998474121</ele>
        <time>2015-06-01T19:45:56.000Z</time>
      </trkpt>
      <trkpt lat="48.89001" lon="2.38295">
        <ele>61.599998474121</ele>
        <time>2015-06-01T19:46:01.000Z</time>
      </trkpt>
      <trkpt lat="48.89001" lon="2.38298">
        <ele>61.599998474121</ele>
        <time>2015-06-01T19:46:02.000Z</time>
      </trkpt>
      <trkpt lat="48.89007" lon="2.3832">
        <ele>61.599998474121</ele>
        <time>2015-06-01T19:46:08.000Z</time>
      </trkpt>
      <trkpt lat="48.89013" lon="2.38335">
        <ele>61.599998474121</ele>
        <time>2015-06-01T19:46:12.000Z</time>
      </trkpt>
      <trkpt lat="48.89021" lon="2.38353">
        <ele>61.599998474121</ele>
        <time>2015-06-01T19:46:17.000Z</time>
      </trkpt>
      <trkpt lat="48.8903" lon="2.38368">
        <ele>61.599998474121</ele>
        <time>2015-06-01T19:46:22.000Z</time>
      </trkpt>
      <trkpt lat="48.89041" lon="2.38389">
        <ele>61.599998474121</ele>
        <time>2015-06-01T19:46:29.000Z</time>
      </trkpt>
      <trkpt lat="48.89053" lon="2.38411">
        <ele>61.599998474121</ele>
        <time>2015-06-01T19:46:36.000Z</time>
      </trkpt>
      <trkpt lat="48.89062" lon="2.38435">
        <ele>60.799999237061</ele>
        <time>2015-06-01T19:46:42.000Z</time>
      </trkpt>
      <trkpt lat="48.89072" lon="2.3846">
        <ele>60.200000762939</ele>
        <time>2015-06-01T19:46:48.000Z</time>
      </trkpt>
      <trkpt lat="48.89078" lon="2.38477">
        <ele>60</ele>
        <time>2015-06-01T19:46:52.000Z</time>
      </trkpt>
      <trkpt lat="48.89091" lon="2.38503">
        <ele>59.799999237061</ele>
        <time>2015-06-01T19:46:57.000Z</time>
      </trkpt>
      <trkpt lat="48.89096" lon="2.38513">
        <ele>59.799999237061</ele>
        <time>2015-06-01T19:46:59.000Z</time>
      </trkpt>
      <trkpt lat="48.89112" lon="2.38545">
        <ele>59.599998474121</ele>
        <time>2015-06-01T19:47:06.000Z</time>
      </trkpt>
      <trkpt lat="48.89124" lon="2.38569">
        <ele>59.599998474121</ele>
        <time>2015-06-01T19:47:10.000Z</time>
      </trkpt>
      <trkpt lat="48.89136" lon="2.38591">
        <ele>59.599998474121</ele>
        <time>2015-06-01T19:47:16.000Z</time>
      </trkpt>
      <trkpt lat="48.89148" lon="2.38615">
        <ele>59.599998474121</ele>
        <time>2015-06-01T19:47:21.000Z</time>
      </trkpt>
      <trkpt lat="48.89159" lon="2.38634">
        <ele>59.599998474121</ele>
        <time>2015-06-01T19:47:27.000Z</time>
      </trkpt>
      <trkpt lat="48.89168" lon="2.38655">
        <ele>59.599998474121</ele>
        <time>2015-06-01T19:47:33.000Z</time>
      </trkpt>
      <trkpt lat="48.89177" lon="2.38671">
        <ele>59.599998474121</ele>
        <time>2015-06-01T19:47:39.000Z</time>
      </trkpt>
      <trkpt lat="48.89184" lon="2.38671">
        <ele>59.599998474121</ele>
        <time>2015-06-01T19:47:42.000Z</time>
      </trkpt>
      <trkpt lat="48.89192" lon="2.38681">
        <ele>59.599998474121</ele>
        <time>2015-06-01T19:47:47.000Z</time>
      </trkpt>
      <trkpt lat="48.89195" lon="2.38684">
        <ele>59.599998474121</ele>
        <time>2015-06-01T19:47:48.000Z</time>
      </trkpt>
      <trkpt lat="48.89206" lon="2.38699">
        <ele>59</ele>
        <time>2015-06-01T19:47:53.000Z</time>
      </trkpt>
      <trkpt lat="48.89214" lon="2.38723">
        <ele>58.400001525879</ele>
        <time>2015-06-01T19:48:00.000Z</time>
      </trkpt>
      <trkpt lat="48.89221" lon="2.38739">
        <ele>58.200000762939</ele>
        <time>2015-06-01T19:48:03.000Z</time>
      </trkpt>
      <trkpt lat="48.89231" lon="2.38759">
        <ele>57.799999237061</ele>
        <time>2015-06-01T19:48:09.000Z</time>
      </trkpt>
      <trkpt lat="48.89241" lon="2.38777">
        <ele>57.599998474121</ele>
        <time>2015-06-01T19:48:14.000Z</time>
      </trkpt>
      <trkpt lat="48.89245" lon="2.3879">
        <ele>57.599998474121</ele>
        <time>2015-06-01T19:48:19.000Z</time>
      </trkpt>
      <trkpt lat="48.89247" lon="2.38796">
        <ele>57.599998474121</ele>
        <time>2015-06-01T19:48:23.000Z</time>
      </trkpt>
      <trkpt lat="48.89247" lon="2.38807">
        <ele>57.599998474121</ele>
        <time>2015-06-01T19:48:29.000Z</time>
      </trkpt>
      <trkpt lat="48.89241" lon="2.38816">
        <ele>57.400001525879</ele>
        <time>2015-06-01T19:48:35.000Z</time>
      </trkpt>
      <trkpt lat="48.89231" lon="2.38825">
        <ele>56.799999237061</ele>
        <time>2015-06-01T19:48:40.000Z</time>
      </trkpt>
      <trkpt lat="48.89229" lon="2.38827">
        <ele>56.599998474121</ele>
        <time>2015-06-01T19:48:41.000Z</time>
      </trkpt>
      <trkpt lat="48.89227" lon="2.38831">
        <ele>56.400001525879</ele>
        <time>2015-06-01T19:48:43.000Z</time>
      </trkpt>
      <trkpt lat="48.89222" lon="2.38842">
        <ele>55.400001525879</ele>
        <time>2015-06-01T19:48:48.000Z</time>
      </trkpt>
      <trkpt lat="48.89221" lon="2.38843">
        <ele>55.200000762939</ele>
        <time>2015-06-01T19:48:49.000Z</time>
      </trkpt>
      <trkpt lat="48.8922" lon="2.38847">
        <ele>54.400001525879</ele>
        <time>2015-06-01T19:48:55.000Z</time>
      </trkpt>
      <trkpt lat="48.89215" lon="2.38855">
        <ele>53.799999237061</ele>
        <time>2015-06-01T19:49:02.000Z</time>
      </trkpt>
      <trkpt lat="48.89207" lon="2.38866">
        <ele>53.599998474121</ele>
        <time>2015-06-01T19:49:08.000Z</time>
      </trkpt>
      <trkpt lat="48.89196" lon="2.38879">
        <ele>53.400001525879</ele>
        <time>2015-06-01T19:49:14.000Z</time>
      </trkpt>
      <trkpt lat="48.89187" lon="2.38893">
        <ele>53.400001525879</ele>
        <time>2015-06-01T19:49:19.000Z</time>
      </trkpt>
      <trkpt lat="48.89179" lon="2.38904">
        <ele>53.400001525879</ele>
        <time>2015-06-01T19:49:23.000Z</time>
      </trkpt>
      <trkpt lat="48.89166" lon="2.38923">
        <ele>54</ele>
        <time>2015-06-01T19:49:28.000Z</time>
      </trkpt>
      <trkpt lat="48.8915" lon="2.38941">
        <ele>54.400001525879</ele>
        <time>2015-06-01T19:49:33.000Z</time>
      </trkpt>
      <trkpt lat="48.89142" lon="2.38949">
        <ele>54.599998474121</ele>
        <time>2015-06-01T19:49:35.000Z</time>
      </trkpt>
      <trkpt lat="48.89132" lon="2.38959">
        <ele>54.799999237061</ele>
        <time>2015-06-01T19:49:39.000Z</time>
      </trkpt>
      <trkpt lat="48.89114" lon="2.38969">
        <ele>55.799999237061</ele>
        <time>2015-06-01T19:49:46.000Z</time>
      </trkpt>
      <trkpt lat="48.891" lon="2.38983">
        <ele>56.599998474121</ele>
        <time>2015-06-01T19:49:51.000Z</time>
      </trkpt>
      <trkpt lat="48.89089" lon="2.38989">
        <ele>57.200000762939</ele>
        <time>2015-06-01T19:49:54.000Z</time>
      </trkpt>
      <trkpt lat="48.89075" lon="2.39001">
        <ele>58.400001525879</ele>
        <time>2015-06-01T19:50:01.000Z</time>
      </trkpt>
      <trkpt lat="48.89061" lon="2.39014">
        <ele>58.799999237061</ele>
        <time>2015-06-01T19:50:06.000Z</time>
      </trkpt>
      <trkpt lat="48.8905" lon="2.39027">
        <ele>59</ele>
        <time>2015-06-01T19:50:09.000Z</time>
      </trkpt>
      <trkpt lat="48.89035" lon="2.39049">
        <ele>59.200000762939</ele>
        <time>2015-06-01T19:50:15.000Z</time>
      </trkpt>
      <trkpt lat="48.89018" lon="2.39069">
        <ele>59.400001525879</ele>
        <time>2015-06-01T19:50:19.000Z</time>
      </trkpt>
      <trkpt lat="48.89002" lon="2.39087">
        <ele>59.400001525879</ele>
        <time>2015-06-01T19:50:23.000Z</time>
      </trkpt>
      <trkpt lat="48.88998" lon="2.39091">
        <ele>59.400001525879</ele>
        <time>2015-06-01T19:50:24.000Z</time>
      </trkpt>
      <trkpt lat="48.88978" lon="2.39117">
        <ele>60.400001525879</ele>
        <time>2015-06-01T19:50:30.000Z</time>
      </trkpt>
      <trkpt lat="48.88969" lon="2.39128">
        <ele>60.799999237061</ele>
        <time>2015-06-01T19:50:33.000Z</time>
      </trkpt>
      <trkpt lat="48.88958" lon="2.3914">
        <ele>61</ele>
        <time>2015-06-01T19:50:38.000Z</time>
      </trkpt>
      <trkpt lat="48.88958" lon="2.3914">
        <ele>61.200000762939</ele>
        <time>2015-06-01T19:50:39.000Z</time>
      </trkpt>
      <trkpt lat="48.88947" lon="2.39147">
        <ele>61.200000762939</ele>
        <time>2015-06-01T19:50:42.000Z</time>
      </trkpt>
      <trkpt lat="48.88943" lon="2.3915">
        <ele>61.200000762939</ele>
        <time>2015-06-01T19:50:43.000Z</time>
      </trkpt>
      <trkpt lat="48.88927" lon="2.39163">
        <ele>61.400001525879</ele>
        <time>2015-06-01T19:50:46.000Z</time>
      </trkpt>
      <trkpt lat="48.88923" lon="2.39166">
        <ele>61.400001525879</ele>
        <time>2015-06-01T19:50:48.000Z</time>
      </trkpt>
      <trkpt lat="48.88912" lon="2.39171">
        <ele>61.400001525879</ele>
        <time>2015-06-01T19:50:51.000Z</time>
      </trkpt>
      <trkpt lat="48.88899" lon="2.3919">
        <ele>61</ele>
        <time>2015-06-01T19:50:56.000Z</time>
      </trkpt>
      <trkpt lat="48.88886" lon="2.39212">
        <ele>60.400001525879</ele>
        <time>2015-06-01T19:51:01.000Z</time>
      </trkpt>
      <trkpt lat="48.88881" lon="2.39225">
        <ele>60</ele>
        <time>2015-06-01T19:51:06.000Z</time>
      </trkpt>
      <trkpt lat="48.88878" lon="2.39227">
        <ele>59.599998474121</ele>
        <time>2015-06-01T19:51:21.000Z</time>
      </trkpt>
      <trkpt lat="48.88877" lon="2.39231">
        <ele>62</ele>
        <time>2015-06-01T19:51:52.000Z</time>
      </trkpt>
      <trkpt lat="48.88885" lon="2.39261">
        <ele>63.200000762939</ele>
        <time>2015-06-01T19:52:07.000Z</time>
      </trkpt>
      <trkpt lat="48.88888" lon="2.39279">
        <ele>63.400001525879</ele>
        <time>2015-06-01T19:52:11.000Z</time>
      </trkpt>
      <trkpt lat="48.88895" lon="2.39294">
        <ele>63.400001525879</ele>
        <time>2015-06-01T19:52:15.000Z</time>
      </trkpt>
      <trkpt lat="48.88903" lon="2.39312">
        <ele>62.599998474121</ele>
        <time>2015-06-01T19:52:21.000Z</time>
      </trkpt>
      <trkpt lat="48.88906" lon="2.3933">
        <ele>62.200000762939</ele>
        <time>2015-06-01T19:52:25.000Z</time>
      </trkpt>
      <trkpt lat="48.8891" lon="2.39356">
        <ele>62</ele>
        <time>2015-06-01T19:52:31.000Z</time>
      </trkpt>
      <trkpt lat="48.88916" lon="2.39381">
        <ele>61.799999237061</ele>
        <time>2015-06-01T19:52:36.000Z</time>
      </trkpt>
      <trkpt lat="48.88923" lon="2.39405">
        <ele>61.599998474121</ele>
        <time>2015-06-01T19:52:41.000Z</time>
      </trkpt>
      <trkpt lat="48.88928" lon="2.39433">
        <ele>61.599998474121</ele>
        <time>2015-06-01T19:52:46.000Z</time>
      </trkpt>
      <trkpt lat="48.88934" lon="2.3946">
        <ele>61.599998474121</ele>
        <time>2015-06-01T19:52:51.000Z</time>
      </trkpt>
      <trkpt lat="48.88941" lon="2.395">
        <ele>62.400001525879</ele>
        <time>2015-06-01T19:53:01.000Z</time>
      </trkpt>
      <trkpt lat="48.88955" lon="2.3953">
        <ele>63.799999237061</ele>
        <time>2015-06-01T19:53:09.000Z</time>
      </trkpt>
      <trkpt lat="48.8897" lon="2.39535">
        <ele>64.400001525879</ele>
        <time>2015-06-01T19:53:14.000Z</time>
      </trkpt>
      <trkpt lat="48.88985" lon="2.39534">
        <ele>65</ele>
        <time>2015-06-01T19:53:19.000Z</time>
      </trkpt>
      <trkpt lat="48.88998" lon="2.39525">
        <ele>65.199996948242</ele>
        <time>2015-06-01T19:53:24.000Z</time>
      </trkpt>
      <trkpt lat="48.89014" lon="2.39516">
        <ele>65.400001525879</ele>
        <time>2015-06-01T19:53:30.000Z</time>
      </trkpt>
      <trkpt lat="48.89026" lon="2.39511">
        <ele>65.599998474121</ele>
        <time>2015-06-01T19:53:33.000Z</time>
      </trkpt>
      <trkpt lat="48.89038" lon="2.3951">
        <ele>65.599998474121</ele>
        <time>2015-06-01T19:53:39.000Z</time>
      </trkpt>
      <trkpt lat="48.89049" lon="2.39504">
        <ele>65.599998474121</ele>
        <time>2015-06-01T19:53:44.000Z</time>
      </trkpt>
      <trkpt lat="48.89052" lon="2.39503">
        <ele>65.599998474121</ele>
        <time>2015-06-01T19:53:45.000Z</time>
      </trkpt>
      <trkpt lat="48.89054" lon="2.39504">
        <ele>65.599998474121</ele>
        <time>2015-06-01T19:53:48.000Z</time>
      </trkpt>
      <trkpt lat="48.89062" lon="2.39498">
        <ele>65.599998474121</ele>
        <time>2015-06-01T19:53:54.000Z</time>
      </trkpt>
      <trkpt lat="48.89071" lon="2.39492">
        <ele>65.800003051758</ele>
        <time>2015-06-01T19:53:58.000Z</time>
      </trkpt>
      <trkpt lat="48.89081" lon="2.3949">
        <ele>65.800003051758</ele>
        <time>2015-06-01T19:54:04.000Z</time>
      </trkpt>
      <trkpt lat="48.89091" lon="2.39487">
        <ele>65.800003051758</ele>
        <time>2015-06-01T19:54:09.000Z</time>
      </trkpt>
      <trkpt lat="48.89103" lon="2.39483">
        <ele>66.400001525879</ele>
        <time>2015-06-01T19:54:14.000Z</time>
      </trkpt>
      <trkpt lat="48.89111" lon="2.39481">
        <ele>66.800003051758</ele>
        <time>2015-06-01T19:54:18.000Z</time>
      </trkpt>
      <trkpt lat="48.89113" lon="2.39481">
        <ele>67</ele>
        <time>2015-06-01T19:54:19.000Z</time>
      </trkpt>
      <trkpt lat="48.89119" lon="2.39468">
        <ele>67.199996948242</ele>
        <time>2015-06-01T19:54:23.000Z</time>
      </trkpt>
      <trkpt lat="48.89119" lon="2.39464">
        <ele>67.400001525879</ele>
        <time>2015-06-01T19:54:24.000Z</time>
      </trkpt>
      <trkpt lat="48.89116" lon="2.39442">
        <ele>67.599998474121</ele>
        <time>2015-06-01T19:54:29.000Z</time>
      </trkpt>
      <trkpt lat="48.89107" lon="2.39432">
        <ele>67.599998474121</ele>
        <time>2015-06-01T19:54:33.000Z</time>
      </trkpt>
      <trkpt lat="48.89102" lon="2.39427">
        <ele>67.599998474121</ele>
        <time>2015-06-01T19:54:36.000Z</time>
      </trkpt>
      <trkpt lat="48.89102" lon="2.39422">
        <ele>67.800003051758</ele>
        <time>2015-06-01T19:54:41.000Z</time>
      </trkpt>
      <trkpt lat="48.89107" lon="2.39425">
        <ele>67.800003051758</ele>
        <time>2015-06-01T19:55:09.000Z</time>
      </trkpt>
      <trkpt lat="48.89106" lon="2.39428">
        <ele>67.800003051758</ele>
        <time>2015-06-01T19:55:15.000Z</time>
      </trkpt>
      <trkpt lat="48.89104" lon="2.39428">
        <ele>67.800003051758</ele>
        <time>2015-06-01T19:55:23.000Z</time>
      </trkpt>
      <trkpt lat="48.89113" lon="2.39421">
        <ele>75</ele>
        <time>2015-06-01T19:57:39.000Z</time>
      </trkpt>
      <trkpt lat="48.89112" lon="2.3942">
        <ele>75.599998474121</ele>
        <time>2015-06-01T19:57:45.000Z</time>
      </trkpt>
      <trkpt lat="48.8912" lon="2.39416">
        <ele>82</ele>
        <time>2015-06-01T20:00:20.000Z</time>
      </trkpt>
      <trkpt lat="48.89123" lon="2.39423">
        <ele>82</ele>
        <time>2015-06-01T20:00:24.000Z</time>
      </trkpt>
      <trkpt lat="48.89125" lon="2.39427">
        <ele>82</ele>
        <time>2015-06-01T20:00:26.000Z</time>
      </trkpt>
      <trkpt lat="48.89124" lon="2.39445">
        <ele>81.800003051758</ele>
        <time>2015-06-01T20:00:31.000Z</time>
      </trkpt>
      <trkpt lat="48.89125" lon="2.39458">
        <ele>81.400001525879</ele>
        <time>2015-06-01T20:00:33.000Z</time>
      </trkpt>
      <trkpt lat="48.89111" lon="2.39472">
        <ele>80.400001525879</ele>
        <time>2015-06-01T20:00:37.000Z</time>
      </trkpt>
      <trkpt lat="48.89098" lon="2.39468">
        <ele>79.800003051758</ele>
        <time>2015-06-01T20:00:40.000Z</time>
      </trkpt>
      <trkpt lat="48.89084" lon="2.39478">
        <ele>78.599998474121</ele>
        <time>2015-06-01T20:00:43.000Z</time>
      </trkpt>
      <trkpt lat="48.89075" lon="2.39477">
        <ele>78</ele>
        <time>2015-06-01T20:00:45.000Z</time>
      </trkpt>
      <trkpt lat="48.89065" lon="2.39477">
        <ele>77</ele>
        <time>2015-06-01T20:00:47.000Z</time>
      </trkpt>
      <trkpt lat="48.89052" lon="2.39484">
        <ele>76</ele>
        <time>2015-06-01T20:00:50.000Z</time>
      </trkpt>
      <trkpt lat="48.8903" lon="2.39503">
        <ele>74.599998474121</ele>
        <time>2015-06-01T20:00:55.000Z</time>
      </trkpt>
      <trkpt lat="48.89025" lon="2.39506">
        <ele>74.199996948242</ele>
        <time>2015-06-01T20:00:56.000Z</time>
      </trkpt>
      <trkpt lat="48.89014" lon="2.39511">
        <ele>73</ele>
        <time>2015-06-01T20:00:59.000Z</time>
      </trkpt>
      <trkpt lat="48.89008" lon="2.39515">
        <ele>72.199996948242</ele>
        <time>2015-06-01T20:01:00.000Z</time>
      </trkpt>
      <trkpt lat="48.88995" lon="2.39531">
        <ele>70.800003051758</ele>
        <time>2015-06-01T20:01:05.000Z</time>
      </trkpt>
      <trkpt lat="48.88992" lon="2.39534">
        <ele>70.400001525879</ele>
        <time>2015-06-01T20:01:06.000Z</time>
      </trkpt>
      <trkpt lat="48.88974" lon="2.39545">
        <ele>68.599998474121</ele>
        <time>2015-06-01T20:01:12.000Z</time>
      </trkpt>
      <trkpt lat="48.88971" lon="2.39547">
        <ele>68.400001525879</ele>
        <time>2015-06-01T20:01:13.000Z</time>
      </trkpt>
      <trkpt lat="48.88966" lon="2.39544">
        <ele>67.400001525879</ele>
        <time>2015-06-01T20:01:16.000Z</time>
      </trkpt>
      <trkpt lat="48.88965" lon="2.39545">
        <ele>65</ele>
        <time>2015-06-01T20:01:36.000Z</time>
      </trkpt>
      <trkpt lat="48.88964" lon="2.39547">
        <ele>64.199996948242</ele>
        <time>2015-06-01T20:01:41.000Z</time>
      </trkpt>
      <trkpt lat="48.88962" lon="2.39547">
        <ele>64</ele>
        <time>2015-06-01T20:01:43.000Z</time>
      </trkpt>
      <trkpt lat="48.88959" lon="2.39544">
        <ele>63.400001525879</ele>
        <time>2015-06-01T20:01:47.000Z</time>
      </trkpt>
      <trkpt lat="48.88962" lon="2.39545">
        <ele>63.400001525879</ele>
        <time>2015-06-01T20:01:48.000Z</time>
      </trkpt>
      <trkpt lat="48.88964" lon="2.39545">
        <ele>63</ele>
        <time>2015-06-01T20:01:55.000Z</time>
      </trkpt>
      <trkpt lat="48.88963" lon="2.39546">
        <ele>62.799999237061</ele>
        <time>2015-06-01T20:02:01.000Z</time>
      </trkpt>
      <trkpt lat="48.88959" lon="2.39544">
        <ele>62.799999237061</ele>
        <time>2015-06-01T20:02:05.000Z</time>
      </trkpt>
      <trkpt lat="48.88952" lon="2.3954">
        <ele>62.599998474121</ele>
        <time>2015-06-01T20:02:13.000Z</time>
      </trkpt>
      <trkpt lat="48.88952" lon="2.3954">
        <ele>62.599998474121</ele>
        <time>2015-06-01T20:02:21.000Z</time>
      </trkpt>
      <trkpt lat="48.88953" lon="2.39542">
        <ele>62.599998474121</ele>
        <time>2015-06-01T20:02:25.000Z</time>
      </trkpt>
      <trkpt lat="48.8896" lon="2.39539">
        <ele>62.599998474121</ele>
        <time>2015-06-01T20:02:30.000Z</time>
      </trkpt>
      <trkpt lat="48.88961" lon="2.39533">
        <ele>62.599998474121</ele>
        <time>2015-06-01T20:02:31.000Z</time>
      </trkpt>
      <trkpt lat="48.88961" lon="2.39523">
        <ele>62.599998474121</ele>
        <time>2015-06-01T20:02:35.000Z</time>
      </trkpt>
      <trkpt lat="48.8895" lon="2.39525">
        <ele>62.599998474121</ele>
        <time>2015-06-01T20:02:40.000Z</time>
      </trkpt>
      <trkpt lat="48.88939" lon="2.39525">
        <ele>62.599998474121</ele>
        <time>2015-06-01T20:02:44.000Z</time>
      </trkpt>
      <trkpt lat="48.88937" lon="2.39529">
        <ele>62.599998474121</ele>
        <time>2015-06-01T20:02:46.000Z</time>
      </trkpt>
      <trkpt lat="48.88936" lon="2.3953">
        <ele>62.599998474121</ele>
        <time>2015-06-01T20:02:48.000Z</time>
      </trkpt>
      <trkpt lat="48.8893" lon="2.39534">
        <ele>61.799999237061</ele>
        <time>2015-06-01T20:03:03.000Z</time>
      </trkpt>
      <trkpt lat="48.88926" lon="2.39526">
        <ele>61.400001525879</ele>
        <time>2015-06-01T20:03:08.000Z</time>
      </trkpt>
      <trkpt lat="48.88922" lon="2.39513">
        <ele>61</ele>
        <time>2015-06-01T20:03:13.000Z</time>
      </trkpt>
      <trkpt lat="48.88912" lon="2.39485">
        <ele>60.799999237061</ele>
        <time>2015-06-01T20:03:21.000Z</time>
      </trkpt>
      <trkpt lat="48.88902" lon="2.3946">
        <ele>60.599998474121</ele>
        <time>2015-06-01T20:03:27.000Z</time>
      </trkpt>
      <trkpt lat="48.88898" lon="2.3944">
        <ele>60.599998474121</ele>
        <time>2015-06-01T20:03:31.000Z</time>
      </trkpt>
      <trkpt lat="48.88897" lon="2.39435">
        <ele>60.599998474121</ele>
        <time>2015-06-01T20:03:32.000Z</time>
      </trkpt>
      <trkpt lat="48.88896" lon="2.39413">
        <ele>60.599998474121</ele>
        <time>2015-06-01T20:03:36.000Z</time>
      </trkpt>
      <trkpt lat="48.88892" lon="2.39402">
        <ele>60.599998474121</ele>
        <time>2015-06-01T20:03:38.000Z</time>
      </trkpt>
      <trkpt lat="48.88886" lon="2.39379">
        <ele>60.599998474121</ele>
        <time>2015-06-01T20:03:42.000Z</time>
      </trkpt>
      <trkpt lat="48.88879" lon="2.39352">
        <ele>59.799999237061</ele>
        <time>2015-06-01T20:03:46.000Z</time>
      </trkpt>
      <trkpt lat="48.88871" lon="2.3932">
        <ele>59.200000762939</ele>
        <time>2015-06-01T20:03:51.000Z</time>
      </trkpt>
      <trkpt lat="48.88866" lon="2.39317">
        <ele>59.200000762939</ele>
        <time>2015-06-01T20:03:54.000Z</time>
      </trkpt>
      <trkpt lat="48.88854" lon="2.39319">
        <ele>58</ele>
        <time>2015-06-01T20:04:01.000Z</time>
      </trkpt>
      <trkpt lat="48.88853" lon="2.3932">
        <ele>57.799999237061</ele>
        <time>2015-06-01T20:04:02.000Z</time>
      </trkpt>
      <trkpt lat="48.88854" lon="2.39323">
        <ele>57.200000762939</ele>
        <time>2015-06-01T20:04:08.000Z</time>
      </trkpt>
      <trkpt lat="48.88854" lon="2.39327">
        <ele>56.799999237061</ele>
        <time>2015-06-01T20:04:13.000Z</time>
      </trkpt>
      <trkpt lat="48.88852" lon="2.39329">
        <ele>56.599998474121</ele>
        <time>2015-06-01T20:04:15.000Z</time>
      </trkpt>
      <trkpt lat="48.88832" lon="2.39333">
        <ele>56.599998474121</ele>
        <time>2015-06-01T20:04:21.000Z</time>
      </trkpt>
      <trkpt lat="48.88812" lon="2.39342">
        <ele>56.400001525879</ele>
        <time>2015-06-01T20:04:26.000Z</time>
      </trkpt>
      <trkpt lat="48.88803" lon="2.39348">
        <ele>56.799999237061</ele>
        <time>2015-06-01T20:04:28.000Z</time>
      </trkpt>
      <trkpt lat="48.88781" lon="2.39356">
        <ele>57.400001525879</ele>
        <time>2015-06-01T20:04:32.000Z</time>
      </trkpt>
      <trkpt lat="48.88767" lon="2.39364">
        <ele>57.599998474121</ele>
        <time>2015-06-01T20:04:36.000Z</time>
      </trkpt>
      <trkpt lat="48.8875" lon="2.39368">
        <ele>58</ele>
        <time>2015-06-01T20:04:41.000Z</time>
      </trkpt>
      <trkpt lat="48.8874" lon="2.39376">
        <ele>58</ele>
        <time>2015-06-01T20:04:45.000Z</time>
      </trkpt>
      <trkpt lat="48.88737" lon="2.39375">
        <ele>58</ele>
        <time>2015-06-01T20:04:46.000Z</time>
      </trkpt>
      <trkpt lat="48.8872" lon="2.39379">
        <ele>59</ele>
        <time>2015-06-01T20:04:52.000Z</time>
      </trkpt>
      <trkpt lat="48.88705" lon="2.39384">
        <ele>59.599998474121</ele>
        <time>2015-06-01T20:04:58.000Z</time>
      </trkpt>
      <trkpt lat="48.88702" lon="2.39384">
        <ele>59.599998474121</ele>
        <time>2015-06-01T20:04:59.000Z</time>
      </trkpt>
      <trkpt lat="48.88691" lon="2.39388">
        <ele>60</ele>
        <time>2015-06-01T20:05:03.000Z</time>
      </trkpt>
      <trkpt lat="48.88675" lon="2.39388">
        <ele>60</ele>
        <time>2015-06-01T20:05:07.000Z</time>
      </trkpt>
      <trkpt lat="48.88663" lon="2.39392">
        <ele>60.799999237061</ele>
        <time>2015-06-01T20:05:12.000Z</time>
      </trkpt>
      <trkpt lat="48.88658" lon="2.39397">
        <ele>61.599998474121</ele>
        <time>2015-06-01T20:05:18.000Z</time>
      </trkpt>
      <trkpt lat="48.88646" lon="2.39403">
        <ele>70.199996948242</ele>
        <time>2015-06-01T20:05:44.000Z</time>
      </trkpt>
      <trkpt lat="48.88639" lon="2.39397">
        <ele>72</ele>
        <time>2015-06-01T20:05:48.000Z</time>
      </trkpt>
      <trkpt lat="48.88636" lon="2.39396">
        <ele>72.800003051758</ele>
        <time>2015-06-01T20:05:49.000Z</time>
      </trkpt>
      <trkpt lat="48.88628" lon="2.39401">
        <ele>74.800003051758</ele>
        <time>2015-06-01T20:05:54.000Z</time>
      </trkpt>
      <trkpt lat="48.88625" lon="2.39399">
        <ele>75.400001525879</ele>
        <time>2015-06-01T20:05:56.000Z</time>
      </trkpt>
      <trkpt lat="48.88601" lon="2.39389">
        <ele>79</ele>
        <time>2015-06-01T20:06:07.000Z</time>
      </trkpt>
      <trkpt lat="48.88587" lon="2.39382">
        <ele>79.800003051758</ele>
        <time>2015-06-01T20:06:13.000Z</time>
      </trkpt>
      <trkpt lat="48.88571" lon="2.39372">
        <ele>80.199996948242</ele>
        <time>2015-06-01T20:06:20.000Z</time>
      </trkpt>
      <trkpt lat="48.88564" lon="2.39364">
        <ele>80.199996948242</ele>
        <time>2015-06-01T20:06:23.000Z</time>
      </trkpt>
      <trkpt lat="48.88553" lon="2.39345">
        <ele>80.400001525879</ele>
        <time>2015-06-01T20:06:27.000Z</time>
      </trkpt>
      <trkpt lat="48.88541" lon="2.39327">
        <ele>80.400001525879</ele>
        <time>2015-06-01T20:06:30.000Z</time>
      </trkpt>
      <trkpt lat="48.88531" lon="2.39311">
        <ele>80.400001525879</ele>
        <time>2015-06-01T20:06:33.000Z</time>
      </trkpt>
      <trkpt lat="48.88511" lon="2.39281">
        <ele>79.800003051758</ele>
        <time>2015-06-01T20:06:38.000Z</time>
      </trkpt>
      <trkpt lat="48.88498" lon="2.39262">
        <ele>79.400001525879</ele>
        <time>2015-06-01T20:06:42.000Z</time>
      </trkpt>
      <trkpt lat="48.88495" lon="2.39257">
        <ele>79.199996948242</ele>
        <time>2015-06-01T20:06:43.000Z</time>
      </trkpt>
      <trkpt lat="48.8849" lon="2.3925">
        <ele>79.199996948242</ele>
        <time>2015-06-01T20:06:45.000Z</time>
      </trkpt>
      <trkpt lat="48.88475" lon="2.39225">
        <ele>78.800003051758</ele>
        <time>2015-06-01T20:06:49.000Z</time>
      </trkpt>
      <trkpt lat="48.88465" lon="2.392">
        <ele>78.400001525879</ele>
        <time>2015-06-01T20:06:52.000Z</time>
      </trkpt>
      <trkpt lat="48.88455" lon="2.39174">
        <ele>77.800003051758</ele>
        <time>2015-06-01T20:06:55.000Z</time>
      </trkpt>
      <trkpt lat="48.88452" lon="2.39166">
        <ele>77.599998474121</ele>
        <time>2015-06-01T20:06:56.000Z</time>
      </trkpt>
      <trkpt lat="48.88442" lon="2.3914">
        <ele>77.400001525879</ele>
        <time>2015-06-01T20:06:59.000Z</time>
      </trkpt>
      <trkpt lat="48.88428" lon="2.39111">
        <ele>77</ele>
        <time>2015-06-01T20:07:02.000Z</time>
      </trkpt>
      <trkpt lat="48.88425" lon="2.39105">
        <ele>77</ele>
        <time>2015-06-01T20:07:03.000Z</time>
      </trkpt>
      <trkpt lat="48.8841" lon="2.39067">
        <ele>76.800003051758</ele>
        <time>2015-06-01T20:07:07.000Z</time>
      </trkpt>
      <trkpt lat="48.88406" lon="2.39057">
        <ele>76.800003051758</ele>
        <time>2015-06-01T20:07:08.000Z</time>
      </trkpt>
      <trkpt lat="48.88401" lon="2.39042">
        <ele>76.599998474121</ele>
        <time>2015-06-01T20:07:10.000Z</time>
      </trkpt>
      <trkpt lat="48.88388" lon="2.39011">
        <ele>76</ele>
        <time>2015-06-01T20:07:14.000Z</time>
      </trkpt>
      <trkpt lat="48.88387" lon="2.39007">
        <ele>75.800003051758</ele>
        <time>2015-06-01T20:07:15.000Z</time>
      </trkpt>
      <trkpt lat="48.88378" lon="2.38984">
        <ele>75.400001525879</ele>
        <time>2015-06-01T20:07:18.000Z</time>
      </trkpt>
      <trkpt lat="48.88372" lon="2.38963">
        <ele>75.199996948242</ele>
        <time>2015-06-01T20:07:21.000Z</time>
      </trkpt>
      <trkpt lat="48.88363" lon="2.38938">
        <ele>75</ele>
        <time>2015-06-01T20:07:24.000Z</time>
      </trkpt>
      <trkpt lat="48.88358" lon="2.38915">
        <ele>74.800003051758</ele>
        <time>2015-06-01T20:07:27.000Z</time>
      </trkpt>
      <trkpt lat="48.88347" lon="2.38879">
        <ele>74.599998474121</ele>
        <time>2015-06-01T20:07:31.000Z</time>
      </trkpt>
      <trkpt lat="48.88343" lon="2.38865">
        <ele>74.599998474121</ele>
        <time>2015-06-01T20:07:33.000Z</time>
      </trkpt>
      <trkpt lat="48.88336" lon="2.38823">
        <ele>74.400001525879</ele>
        <time>2015-06-01T20:07:38.000Z</time>
      </trkpt>
      <trkpt lat="48.88335" lon="2.38818">
        <ele>74.400001525879</ele>
        <time>2015-06-01T20:07:39.000Z</time>
      </trkpt>
      <trkpt lat="48.88332" lon="2.38792">
        <ele>74.400001525879</ele>
        <time>2015-06-01T20:07:43.000Z</time>
      </trkpt>
      <trkpt lat="48.8833" lon="2.3879">
        <ele>74.400001525879</ele>
        <time>2015-06-01T20:07:49.000Z</time>
      </trkpt>
      <trkpt lat="48.88328" lon="2.38791">
        <ele>74.400001525879</ele>
        <time>2015-06-01T20:07:57.000Z</time>
      </trkpt>
      <trkpt lat="48.8832" lon="2.38792">
        <ele>77.400001525879</ele>
        <time>2015-06-01T20:08:21.000Z</time>
      </trkpt>
      <trkpt lat="48.88322" lon="2.38775">
        <ele>78.199996948242</ele>
        <time>2015-06-01T20:08:25.000Z</time>
      </trkpt>
      <trkpt lat="48.88322" lon="2.3877">
        <ele>78.400001525879</ele>
        <time>2015-06-01T20:08:26.000Z</time>
      </trkpt>
      <trkpt lat="48.88322" lon="2.38741">
        <ele>79</ele>
        <time>2015-06-01T20:08:29.000Z</time>
      </trkpt>
      <trkpt lat="48.8832" lon="2.3871">
        <ele>79.599998474121</ele>
        <time>2015-06-01T20:08:33.000Z</time>
      </trkpt>
      <trkpt lat="48.88319" lon="2.38701">
        <ele>79.800003051758</ele>
        <time>2015-06-01T20:08:34.000Z</time>
      </trkpt>
      <trkpt lat="48.88319" lon="2.38695">
        <ele>79.800003051758</ele>
        <time>2015-06-01T20:08:35.000Z</time>
      </trkpt>
      <trkpt lat="48.8832" lon="2.38684">
        <ele>80</ele>
        <time>2015-06-01T20:08:37.000Z</time>
      </trkpt>
      <trkpt lat="48.88317" lon="2.38654">
        <ele>80.400001525879</ele>
        <time>2015-06-01T20:08:43.000Z</time>
      </trkpt>
      <trkpt lat="48.88318" lon="2.38641">
        <ele>80.400001525879</ele>
        <time>2015-06-01T20:08:45.000Z</time>
      </trkpt>
      <trkpt lat="48.88316" lon="2.38606">
        <ele>79.800003051758</ele>
        <time>2015-06-01T20:08:51.000Z</time>
      </trkpt>
      <trkpt lat="48.8831" lon="2.38581">
        <ele>79.400001525879</ele>
        <time>2015-06-01T20:08:56.000Z</time>
      </trkpt>
      <trkpt lat="48.88305" lon="2.38552">
        <ele>79</ele>
        <time>2015-06-01T20:09:01.000Z</time>
      </trkpt>
      <trkpt lat="48.883" lon="2.38531">
        <ele>78.599998474121</ele>
        <time>2015-06-01T20:09:04.000Z</time>
      </trkpt>
      <trkpt lat="48.88297" lon="2.38497">
        <ele>77.800003051758</ele>
        <time>2015-06-01T20:09:08.000Z</time>
      </trkpt>
      <trkpt lat="48.88295" lon="2.3848">
        <ele>77.599998474121</ele>
        <time>2015-06-01T20:09:10.000Z</time>
      </trkpt>
      <trkpt lat="48.88293" lon="2.3847">
        <ele>77.599998474121</ele>
        <time>2015-06-01T20:09:11.000Z</time>
      </trkpt>
      <trkpt lat="48.88288" lon="2.38433">
        <ele>77.199996948242</ele>
        <time>2015-06-01T20:09:15.000Z</time>
      </trkpt>
      <trkpt lat="48.88286" lon="2.38424">
        <ele>77.199996948242</ele>
        <time>2015-06-01T20:09:16.000Z</time>
      </trkpt>
      <trkpt lat="48.88279" lon="2.38395">
        <ele>77</ele>
        <time>2015-06-01T20:09:19.000Z</time>
      </trkpt>
      <trkpt lat="48.88273" lon="2.38363">
        <ele>76.800003051758</ele>
        <time>2015-06-01T20:09:22.000Z</time>
      </trkpt>
      <trkpt lat="48.88265" lon="2.3833">
        <ele>76.400001525879</ele>
        <time>2015-06-01T20:09:25.000Z</time>
      </trkpt>
      <trkpt lat="48.88257" lon="2.38301">
        <ele>75.800003051758</ele>
        <time>2015-06-01T20:09:28.000Z</time>
      </trkpt>
      <trkpt lat="48.88252" lon="2.38283">
        <ele>75.599998474121</ele>
        <time>2015-06-01T20:09:30.000Z</time>
      </trkpt>
      <trkpt lat="48.88246" lon="2.38253">
        <ele>75.199996948242</ele>
        <time>2015-06-01T20:09:34.000Z</time>
      </trkpt>
      <trkpt lat="48.88237" lon="2.38229">
        <ele>74.199996948242</ele>
        <time>2015-06-01T20:09:38.000Z</time>
      </trkpt>
      <trkpt lat="48.88231" lon="2.38218">
        <ele>74</ele>
        <time>2015-06-01T20:09:40.000Z</time>
      </trkpt>
      <trkpt lat="48.88225" lon="2.38201">
        <ele>73.599998474121</ele>
        <time>2015-06-01T20:09:43.000Z</time>
      </trkpt>
      <trkpt lat="48.88223" lon="2.38196">
        <ele>73.400001525879</ele>
        <time>2015-06-01T20:09:44.000Z</time>
      </trkpt>
      <trkpt lat="48.88222" lon="2.38192">
        <ele>73.400001525879</ele>
        <time>2015-06-01T20:09:45.000Z</time>
      </trkpt>
      <trkpt lat="48.88213" lon="2.38178">
        <ele>73</ele>
        <time>2015-06-01T20:09:49.000Z</time>
      </trkpt>
      <trkpt lat="48.88199" lon="2.38158">
        <ele>72</ele>
        <time>2015-06-01T20:09:54.000Z</time>
      </trkpt>
      <trkpt lat="48.88185" lon="2.3814">
        <ele>71.400001525879</ele>
        <time>2015-06-01T20:09:58.000Z</time>
      </trkpt>
      <trkpt lat="48.8818" lon="2.38134">
        <ele>71.400001525879</ele>
        <time>2015-06-01T20:09:59.000Z</time>
      </trkpt>
      <trkpt lat="48.88166" lon="2.38114">
        <ele>71</ele>
        <time>2015-06-01T20:10:03.000Z</time>
      </trkpt>
      <trkpt lat="48.88162" lon="2.3811">
        <ele>71</ele>
        <time>2015-06-01T20:10:04.000Z</time>
      </trkpt>
      <trkpt lat="48.88154" lon="2.381">
        <ele>70.800003051758</ele>
        <time>2015-06-01T20:10:07.000Z</time>
      </trkpt>
      <trkpt lat="48.8815" lon="2.38091">
        <ele>70.800003051758</ele>
        <time>2015-06-01T20:10:09.000Z</time>
      </trkpt>
      <trkpt lat="48.88141" lon="2.38076">
        <ele>70.599998474121</ele>
        <time>2015-06-01T20:10:13.000Z</time>
      </trkpt>
      <trkpt lat="48.88138" lon="2.38067">
        <ele>69.599998474121</ele>
        <time>2015-06-01T20:10:19.000Z</time>
      </trkpt>
      <trkpt lat="48.88139" lon="2.38067">
        <ele>69</ele>
        <time>2015-06-01T20:10:25.000Z</time>
      </trkpt>
      <trkpt lat="48.88136" lon="2.38065">
        <ele>66.400001525879</ele>
        <time>2015-06-01T20:10:52.000Z</time>
      </trkpt>
      <trkpt lat="48.88127" lon="2.38055">
        <ele>66.199996948242</ele>
        <time>2015-06-01T20:10:56.000Z</time>
      </trkpt>
      <trkpt lat="48.88111" lon="2.38039">
        <ele>66.199996948242</ele>
        <time>2015-06-01T20:11:01.000Z</time>
      </trkpt>
      <trkpt lat="48.88097" lon="2.38021">
        <ele>66.199996948242</ele>
        <time>2015-06-01T20:11:05.000Z</time>
      </trkpt>
      <trkpt lat="48.88093" lon="2.38016">
        <ele>66.199996948242</ele>
        <time>2015-06-01T20:11:06.000Z</time>
      </trkpt>
      <trkpt lat="48.88083" lon="2.38002">
        <ele>66.199996948242</ele>
        <time>2015-06-01T20:11:09.000Z</time>
      </trkpt>
      <trkpt lat="48.88064" lon="2.37982">
        <ele>66.199996948242</ele>
        <time>2015-06-01T20:11:14.000Z</time>
      </trkpt>
      <trkpt lat="48.88046" lon="2.37968">
        <ele>66.199996948242</ele>
        <time>2015-06-01T20:11:18.000Z</time>
      </trkpt>
      <trkpt lat="48.88031" lon="2.37954">
        <ele>66.199996948242</ele>
        <time>2015-06-01T20:11:21.000Z</time>
      </trkpt>
      <trkpt lat="48.88021" lon="2.37948">
        <ele>66.199996948242</ele>
        <time>2015-06-01T20:11:23.000Z</time>
      </trkpt>
      <trkpt lat="48.87998" lon="2.37925">
        <ele>66.199996948242</ele>
        <time>2015-06-01T20:11:28.000Z</time>
      </trkpt>
      <trkpt lat="48.87988" lon="2.37918">
        <ele>66.199996948242</ele>
        <time>2015-06-01T20:11:30.000Z</time>
      </trkpt>
      <trkpt lat="48.87978" lon="2.37913">
        <ele>66.199996948242</ele>
        <time>2015-06-01T20:11:32.000Z</time>
      </trkpt>
      <trkpt lat="48.87961" lon="2.37903">
        <ele>66.199996948242</ele>
        <time>2015-06-01T20:11:36.000Z</time>
      </trkpt>
      <trkpt lat="48.87938" lon="2.37891">
        <ele>66.199996948242</ele>
        <time>2015-06-01T20:11:41.000Z</time>
      </trkpt>
      <trkpt lat="48.87934" lon="2.37888">
        <ele>66.199996948242</ele>
        <time>2015-06-01T20:11:42.000Z</time>
      </trkpt>
      <trkpt lat="48.87927" lon="2.37883">
        <ele>66.199996948242</ele>
        <time>2015-06-01T20:11:44.000Z</time>
      </trkpt>
      <trkpt lat="48.8791" lon="2.37869">
        <ele>66.199996948242</ele>
        <time>2015-06-01T20:11:50.000Z</time>
      </trkpt>
      <trkpt lat="48.87895" lon="2.37859">
        <ele>66.199996948242</ele>
        <time>2015-06-01T20:11:56.000Z</time>
      </trkpt>
      <trkpt lat="48.87882" lon="2.37851">
        <ele>67</ele>
        <time>2015-06-01T20:12:01.000Z</time>
      </trkpt>
      <trkpt lat="48.87875" lon="2.37849">
        <ele>67.199996948242</ele>
        <time>2015-06-01T20:12:03.000Z</time>
      </trkpt>
      <trkpt lat="48.87858" lon="2.3784">
        <ele>67.599998474121</ele>
        <time>2015-06-01T20:12:09.000Z</time>
      </trkpt>
      <trkpt lat="48.87845" lon="2.37836">
        <ele>68.599998474121</ele>
        <time>2015-06-01T20:12:13.000Z</time>
      </trkpt>
      <trkpt lat="48.87824" lon="2.37832">
        <ele>69.400001525879</ele>
        <time>2015-06-01T20:12:19.000Z</time>
      </trkpt>
      <trkpt lat="48.87805" lon="2.37834">
        <ele>70</ele>
        <time>2015-06-01T20:12:24.000Z</time>
      </trkpt>
      <trkpt lat="48.87787" lon="2.37833">
        <ele>70.800003051758</ele>
        <time>2015-06-01T20:12:28.000Z</time>
      </trkpt>
      <trkpt lat="48.87765" lon="2.37842">
        <ele>71.599998474121</ele>
        <time>2015-06-01T20:12:34.000Z</time>
      </trkpt>
      <trkpt lat="48.87762" lon="2.37844">
        <ele>71.800003051758</ele>
        <time>2015-06-01T20:12:35.000Z</time>
      </trkpt>
      <trkpt lat="48.87751" lon="2.37849">
        <ele>72</ele>
        <time>2015-06-01T20:12:38.000Z</time>
      </trkpt>
      <trkpt lat="48.87742" lon="2.37856">
        <ele>72.599998474121</ele>
        <time>2015-06-01T20:12:41.000Z</time>
      </trkpt>
      <trkpt lat="48.87728" lon="2.37868">
        <ele>73.400001525879</ele>
        <time>2015-06-01T20:12:46.000Z</time>
      </trkpt>
      <trkpt lat="48.87716" lon="2.37881">
        <ele>74</ele>
        <time>2015-06-01T20:12:50.000Z</time>
      </trkpt>
      <trkpt lat="48.87707" lon="2.3789">
        <ele>74.599998474121</ele>
        <time>2015-06-01T20:12:53.000Z</time>
      </trkpt>
      <trkpt lat="48.87695" lon="2.37906">
        <ele>75.400001525879</ele>
        <time>2015-06-01T20:12:58.000Z</time>
      </trkpt>
      <trkpt lat="48.87681" lon="2.37923">
        <ele>76.599998474121</ele>
        <time>2015-06-01T20:13:03.000Z</time>
      </trkpt>
      <trkpt lat="48.87668" lon="2.37944">
        <ele>77.599998474121</ele>
        <time>2015-06-01T20:13:08.000Z</time>
      </trkpt>
      <trkpt lat="48.87655" lon="2.37963">
        <ele>79</ele>
        <time>2015-06-01T20:13:13.000Z</time>
      </trkpt>
      <trkpt lat="48.87642" lon="2.37985">
        <ele>79.800003051758</ele>
        <time>2015-06-01T20:13:19.000Z</time>
      </trkpt>
      <trkpt lat="48.87636" lon="2.37994">
        <ele>80.199996948242</ele>
        <time>2015-06-01T20:13:23.000Z</time>
      </trkpt>
      <trkpt lat="48.87634" lon="2.37991">
        <ele>80.599998474121</ele>
        <time>2015-06-01T20:13:31.000Z</time>
      </trkpt>
      <trkpt lat="48.87639" lon="2.37991">
        <ele>80.800003051758</ele>
        <time>2015-06-01T20:13:44.000Z</time>
      </trkpt>
      <trkpt lat="48.87642" lon="2.37994">
        <ele>80.800003051758</ele>
        <time>2015-06-01T20:13:49.000Z</time>
      </trkpt>
      <trkpt lat="48.87645" lon="2.37994">
        <ele>80.800003051758</ele>
        <time>2015-06-01T20:13:56.000Z</time>
      </trkpt>
      <trkpt lat="48.87645" lon="2.37998">
        <ele>81</ele>
        <time>2015-06-01T20:14:01.000Z</time>
      </trkpt>
      <trkpt lat="48.87645" lon="2.38">
        <ele>81</ele>
        <time>2015-06-01T20:14:02.000Z</time>
      </trkpt>
      <trkpt lat="48.87642" lon="2.38005">
        <ele>81</ele>
        <time>2015-06-01T20:14:06.000Z</time>
      </trkpt>
      <trkpt lat="48.8764" lon="2.38009">
        <ele>81</ele>
        <time>2015-06-01T20:14:08.000Z</time>
      </trkpt>
      <trkpt lat="48.87641" lon="2.38011">
        <ele>82</ele>
        <time>2015-06-01T20:14:16.000Z</time>
      </trkpt>
      <trkpt lat="48.87639" lon="2.38013">
        <ele>82.599998474121</ele>
        <time>2015-06-01T20:14:23.000Z</time>
      </trkpt>
      <trkpt lat="48.87635" lon="2.38019">
        <ele>83.199996948242</ele>
        <time>2015-06-01T20:14:28.000Z</time>
      </trkpt>
      <trkpt lat="48.87631" lon="2.3803">
        <ele>83.800003051758</ele>
        <time>2015-06-01T20:14:31.000Z</time>
      </trkpt>
      <trkpt lat="48.87626" lon="2.38038">
        <ele>84.199996948242</ele>
        <time>2015-06-01T20:14:34.000Z</time>
      </trkpt>
      <trkpt lat="48.87621" lon="2.3803">
        <ele>86</ele>
        <time>2015-06-01T20:15:27.000Z</time>
      </trkpt>
      <trkpt lat="48.87629" lon="2.38028">
        <ele>88.400001525879</ele>
        <time>2015-06-01T20:15:38.000Z</time>
      </trkpt>
      <trkpt lat="48.87631" lon="2.38026">
        <ele>89.400001525879</ele>
        <time>2015-06-01T20:15:43.000Z</time>
      </trkpt>
      <trkpt lat="48.87633" lon="2.38025">
        <ele>90.800003051758</ele>
        <time>2015-06-01T20:15:48.000Z</time>
      </trkpt>
      <trkpt lat="48.87638" lon="2.3802">
        <ele>91.400001525879</ele>
        <time>2015-06-01T20:15:52.000Z</time>
      </trkpt>
      <trkpt lat="48.8764" lon="2.3802">
        <ele>91.800003051758</ele>
        <time>2015-06-01T20:15:56.000Z</time>
      </trkpt>
      <trkpt lat="48.87641" lon="2.38023">
        <ele>92</ele>
        <time>2015-06-01T20:16:00.000Z</time>
      </trkpt>
      <trkpt lat="48.87636" lon="2.38022">
        <ele>92</ele>
        <time>2015-06-01T20:16:10.000Z</time>
      </trkpt>
      <trkpt lat="48.87635" lon="2.38022">
        <ele>91.199996948242</ele>
        <time>2015-06-01T20:16:17.000Z</time>
      </trkpt>
      <trkpt lat="48.87634" lon="2.3802">
        <ele>90.800003051758</ele>
        <time>2015-06-01T20:16:23.000Z</time>
      </trkpt>
      <trkpt lat="48.8763" lon="2.3802">
        <ele>91.800003051758</ele>
        <time>2015-06-01T20:16:45.000Z</time>
      </trkpt>
      <trkpt lat="48.87628" lon="2.38031">
        <ele>92.199996948242</ele>
        <time>2015-06-01T20:16:57.000Z</time>
      </trkpt>
      <trkpt lat="48.87625" lon="2.38049">
        <ele>92.400001525879</ele>
        <time>2015-06-01T20:17:04.000Z</time>
      </trkpt>
      <trkpt lat="48.87623" lon="2.38064">
        <ele>92.400001525879</ele>
        <time>2015-06-01T20:17:10.000Z</time>
      </trkpt>
      <trkpt lat="48.87618" lon="2.38075">
        <ele>92.400001525879</ele>
        <time>2015-06-01T20:17:15.000Z</time>
      </trkpt>
      <trkpt lat="48.87618" lon="2.38078">
        <ele>92.400001525879</ele>
        <time>2015-06-01T20:17:16.000Z</time>
      </trkpt>
      <trkpt lat="48.87616" lon="2.38087">
        <ele>92.400001525879</ele>
        <time>2015-06-01T20:17:20.000Z</time>
      </trkpt>
      <trkpt lat="48.87612" lon="2.38096">
        <ele>92.400001525879</ele>
        <time>2015-06-01T20:17:24.000Z</time>
      </trkpt>
      <trkpt lat="48.87601" lon="2.38114">
        <ele>92.400001525879</ele>
        <time>2015-06-01T20:17:28.000Z</time>
      </trkpt>
      <trkpt lat="48.8759" lon="2.3814">
        <ele>92.400001525879</ele>
        <time>2015-06-01T20:17:32.000Z</time>
      </trkpt>
      <trkpt lat="48.87587" lon="2.38145">
        <ele>92.400001525879</ele>
        <time>2015-06-01T20:17:33.000Z</time>
      </trkpt>
      <trkpt lat="48.87582" lon="2.38152">
        <ele>92.599998474121</ele>
        <time>2015-06-01T20:17:35.000Z</time>
      </trkpt>
      <trkpt lat="48.87578" lon="2.3816">
        <ele>93</ele>
        <time>2015-06-01T20:17:37.000Z</time>
      </trkpt>
      <trkpt lat="48.87562" lon="2.38186">
        <ele>93.599998474121</ele>
        <time>2015-06-01T20:17:43.000Z</time>
      </trkpt>
      <trkpt lat="48.87547" lon="2.38204">
        <ele>94</ele>
        <time>2015-06-01T20:17:49.000Z</time>
      </trkpt>
      <trkpt lat="48.87537" lon="2.38224">
        <ele>94.199996948242</ele>
        <time>2015-06-01T20:17:54.000Z</time>
      </trkpt>
      <trkpt lat="48.87526" lon="2.38238">
        <ele>94.400001525879</ele>
        <time>2015-06-01T20:17:59.000Z</time>
      </trkpt>
      <trkpt lat="48.87521" lon="2.3824">
        <ele>94.599998474121</ele>
        <time>2015-06-01T20:18:04.000Z</time>
      </trkpt>
      <trkpt lat="48.87518" lon="2.38242">
        <ele>98.199996948242</ele>
        <time>2015-06-01T20:18:26.000Z</time>
      </trkpt>
      <trkpt lat="48.87518" lon="2.38242">
        <ele>98.400001525879</ele>
        <time>2015-06-01T20:18:27.000Z</time>
      </trkpt>
      <trkpt lat="48.87519" lon="2.38243">
        <ele>98.800003051758</ele>
        <time>2015-06-01T20:18:29.000Z</time>
      </trkpt>
      <trkpt lat="48.87511" lon="2.38251">
        <ele>99.599998474121</ele>
        <time>2015-06-01T20:18:35.000Z</time>
      </trkpt>
      <trkpt lat="48.87507" lon="2.38257">
        <ele>100.19999694824</ele>
        <time>2015-06-01T20:18:39.000Z</time>
      </trkpt>
      <trkpt lat="48.87504" lon="2.38266">
        <ele>101</ele>
        <time>2015-06-01T20:18:42.000Z</time>
      </trkpt>
      <trkpt lat="48.87491" lon="2.38283">
        <ele>101.59999847412</ele>
        <time>2015-06-01T20:18:47.000Z</time>
      </trkpt>
      <trkpt lat="48.87477" lon="2.38305">
        <ele>102</ele>
        <time>2015-06-01T20:18:52.000Z</time>
      </trkpt>
      <trkpt lat="48.87474" lon="2.38311">
        <ele>102.19999694824</ele>
        <time>2015-06-01T20:18:53.000Z</time>
      </trkpt>
      <trkpt lat="48.87465" lon="2.38325">
        <ele>102.40000152588</ele>
        <time>2015-06-01T20:18:56.000Z</time>
      </trkpt>
      <trkpt lat="48.87457" lon="2.38334">
        <ele>102.40000152588</ele>
        <time>2015-06-01T20:18:58.000Z</time>
      </trkpt>
      <trkpt lat="48.87442" lon="2.38356">
        <ele>102.59999847412</ele>
        <time>2015-06-01T20:19:02.000Z</time>
      </trkpt>
      <trkpt lat="48.87439" lon="2.38363">
        <ele>102.59999847412</ele>
        <time>2015-06-01T20:19:03.000Z</time>
      </trkpt>
      <trkpt lat="48.87426" lon="2.38386">
        <ele>103</ele>
        <time>2015-06-01T20:19:07.000Z</time>
      </trkpt>
      <trkpt lat="48.87414" lon="2.38414">
        <ele>103.59999847412</ele>
        <time>2015-06-01T20:19:11.000Z</time>
      </trkpt>
      <trkpt lat="48.87412" lon="2.38422">
        <ele>103.80000305176</ele>
        <time>2015-06-01T20:19:12.000Z</time>
      </trkpt>
      <trkpt lat="48.87408" lon="2.38443">
        <ele>104</ele>
        <time>2015-06-01T20:19:15.000Z</time>
      </trkpt>
      <trkpt lat="48.87404" lon="2.38471">
        <ele>104.40000152588</ele>
        <time>2015-06-01T20:19:19.000Z</time>
      </trkpt>
      <trkpt lat="48.87402" lon="2.38488">
        <ele>104.40000152588</ele>
        <time>2015-06-01T20:19:22.000Z</time>
      </trkpt>
      <trkpt lat="48.874" lon="2.38509">
        <ele>104.59999847412</ele>
        <time>2015-06-01T20:19:28.000Z</time>
      </trkpt>
      <trkpt lat="48.874" lon="2.3851">
        <ele>104.59999847412</ele>
        <time>2015-06-01T20:19:29.000Z</time>
      </trkpt>
      <trkpt lat="48.874" lon="2.38511">
        <ele>104.59999847412</ele>
        <time>2015-06-01T20:19:33.000Z</time>
      </trkpt>
      <trkpt lat="48.87401" lon="2.38535">
        <ele>104.80000305176</ele>
        <time>2015-06-01T20:19:39.000Z</time>
      </trkpt>
      <trkpt lat="48.874" lon="2.38552">
        <ele>104.80000305176</ele>
        <time>2015-06-01T20:19:42.000Z</time>
      </trkpt>
      <trkpt lat="48.87395" lon="2.38615">
        <ele>104.80000305176</ele>
        <time>2015-06-01T20:19:51.000Z</time>
      </trkpt>
      <trkpt lat="48.87394" lon="2.38629">
        <ele>104.80000305176</ele>
        <time>2015-06-01T20:19:53.000Z</time>
      </trkpt>
      <trkpt lat="48.87389" lon="2.38656">
        <ele>104.80000305176</ele>
        <time>2015-06-01T20:19:57.000Z</time>
      </trkpt>
      <trkpt lat="48.87387" lon="2.38671">
        <ele>104.80000305176</ele>
        <time>2015-06-01T20:19:59.000Z</time>
      </trkpt>
      <trkpt lat="48.87388" lon="2.38713">
        <ele>104.80000305176</ele>
        <time>2015-06-01T20:20:04.000Z</time>
      </trkpt>
      <trkpt lat="48.87387" lon="2.3872">
        <ele>104.80000305176</ele>
        <time>2015-06-01T20:20:05.000Z</time>
      </trkpt>
      <trkpt lat="48.87386" lon="2.38736">
        <ele>104.80000305176</ele>
        <time>2015-06-01T20:20:07.000Z</time>
      </trkpt>
      <trkpt lat="48.87383" lon="2.38774">
        <ele>104.80000305176</ele>
        <time>2015-06-01T20:20:12.000Z</time>
      </trkpt>
      <trkpt lat="48.8738" lon="2.38798">
        <ele>104.80000305176</ele>
        <time>2015-06-01T20:20:15.000Z</time>
      </trkpt>
      <trkpt lat="48.87378" lon="2.38829">
        <ele>104.80000305176</ele>
        <time>2015-06-01T20:20:19.000Z</time>
      </trkpt>
      <trkpt lat="48.87376" lon="2.38868">
        <ele>104.80000305176</ele>
        <time>2015-06-01T20:20:24.000Z</time>
      </trkpt>
      <trkpt lat="48.87375" lon="2.38876">
        <ele>104.80000305176</ele>
        <time>2015-06-01T20:20:25.000Z</time>
      </trkpt>
      <trkpt lat="48.87373" lon="2.38892">
        <ele>104.80000305176</ele>
        <time>2015-06-01T20:20:27.000Z</time>
      </trkpt>
      <trkpt lat="48.87373" lon="2.38908">
        <ele>104.80000305176</ele>
        <time>2015-06-01T20:20:29.000Z</time>
      </trkpt>
      <trkpt lat="48.87372" lon="2.38938">
        <ele>104.40000152588</ele>
        <time>2015-06-01T20:20:33.000Z</time>
      </trkpt>
      <trkpt lat="48.87371" lon="2.38945">
        <ele>104.19999694824</ele>
        <time>2015-06-01T20:20:34.000Z</time>
      </trkpt>
      <trkpt lat="48.87369" lon="2.38951">
        <ele>104</ele>
        <time>2015-06-01T20:20:35.000Z</time>
      </trkpt>
      <trkpt lat="48.87368" lon="2.38958">
        <ele>104</ele>
        <time>2015-06-01T20:20:36.000Z</time>
      </trkpt>
      <trkpt lat="48.87357" lon="2.38981">
        <ele>103.40000152588</ele>
        <time>2015-06-01T20:20:40.000Z</time>
      </trkpt>
      <trkpt lat="48.87346" lon="2.38999">
        <ele>103.19999694824</ele>
        <time>2015-06-01T20:20:43.000Z</time>
      </trkpt>
      <trkpt lat="48.87325" lon="2.39025">
        <ele>103</ele>
        <time>2015-06-01T20:20:48.000Z</time>
      </trkpt>
      <trkpt lat="48.87313" lon="2.39038">
        <ele>102.80000305176</ele>
        <time>2015-06-01T20:20:51.000Z</time>
      </trkpt>
      <trkpt lat="48.873" lon="2.39061">
        <ele>102.80000305176</ele>
        <time>2015-06-01T20:20:56.000Z</time>
      </trkpt>
      <trkpt lat="48.87298" lon="2.39064">
        <ele>102.80000305176</ele>
        <time>2015-06-01T20:20:57.000Z</time>
      </trkpt>
      <trkpt lat="48.87283" lon="2.39081">
        <ele>102.80000305176</ele>
        <time>2015-06-01T20:21:01.000Z</time>
      </trkpt>
      <trkpt lat="48.87266" lon="2.39104">
        <ele>103.40000152588</ele>
        <time>2015-06-01T20:21:06.000Z</time>
      </trkpt>
      <trkpt lat="48.8726" lon="2.39113">
        <ele>103.59999847412</ele>
        <time>2015-06-01T20:21:08.000Z</time>
      </trkpt>
      <trkpt lat="48.87244" lon="2.39139">
        <ele>104.19999694824</ele>
        <time>2015-06-01T20:21:13.000Z</time>
      </trkpt>
      <trkpt lat="48.8724" lon="2.39143">
        <ele>104.19999694824</ele>
        <time>2015-06-01T20:21:14.000Z</time>
      </trkpt>
      <trkpt lat="48.87226" lon="2.39163">
        <ele>104.40000152588</ele>
        <time>2015-06-01T20:21:18.000Z</time>
      </trkpt>
      <trkpt lat="48.87219" lon="2.39176">
        <ele>104.80000305176</ele>
        <time>2015-06-01T20:21:20.000Z</time>
      </trkpt>
      <trkpt lat="48.87206" lon="2.39198">
        <ele>105.59999847412</ele>
        <time>2015-06-01T20:21:24.000Z</time>
      </trkpt>
      <trkpt lat="48.87191" lon="2.39221">
        <ele>106</ele>
        <time>2015-06-01T20:21:29.000Z</time>
      </trkpt>
      <trkpt lat="48.87179" lon="2.39235">
        <ele>106.80000305176</ele>
        <time>2015-06-01T20:21:33.000Z</time>
      </trkpt>
      <trkpt lat="48.87162" lon="2.39257">
        <ele>107.80000305176</ele>
        <time>2015-06-01T20:21:39.000Z</time>
      </trkpt>
      <trkpt lat="48.87154" lon="2.39268">
        <ele>108.59999847412</ele>
        <time>2015-06-01T20:21:42.000Z</time>
      </trkpt>
      <trkpt lat="48.87146" lon="2.39282">
        <ele>109.40000152588</ele>
        <time>2015-06-01T20:21:46.000Z</time>
      </trkpt>
      <trkpt lat="48.8713" lon="2.39301">
        <ele>110.80000305176</ele>
        <time>2015-06-01T20:21:51.000Z</time>
      </trkpt>
      <trkpt lat="48.8712" lon="2.39312">
        <ele>111.40000152588</ele>
        <time>2015-06-01T20:21:53.000Z</time>
      </trkpt>
      <trkpt lat="48.87107" lon="2.39326">
        <ele>112</ele>
        <time>2015-06-01T20:21:56.000Z</time>
      </trkpt>
      <trkpt lat="48.8709" lon="2.39347">
        <ele>112.40000152588</ele>
        <time>2015-06-01T20:22:00.000Z</time>
      </trkpt>
      <trkpt lat="48.87077" lon="2.3936">
        <ele>112.59999847412</ele>
        <time>2015-06-01T20:22:03.000Z</time>
      </trkpt>
      <trkpt lat="48.87054" lon="2.39382">
        <ele>113</ele>
        <time>2015-06-01T20:22:08.000Z</time>
      </trkpt>
      <trkpt lat="48.8705" lon="2.39387">
        <ele>113</ele>
        <time>2015-06-01T20:22:09.000Z</time>
      </trkpt>
      <trkpt lat="48.87036" lon="2.39407">
        <ele>113.19999694824</ele>
        <time>2015-06-01T20:22:13.000Z</time>
      </trkpt>
      <trkpt lat="48.8703" lon="2.39417">
        <ele>113.19999694824</ele>
        <time>2015-06-01T20:22:15.000Z</time>
      </trkpt>
      <trkpt lat="48.87013" lon="2.39437">
        <ele>113.19999694824</ele>
        <time>2015-06-01T20:22:20.000Z</time>
      </trkpt>
      <trkpt lat="48.87007" lon="2.39439">
        <ele>113.19999694824</ele>
        <time>2015-06-01T20:22:22.000Z</time>
      </trkpt>
      <trkpt lat="48.87005" lon="2.39438">
        <ele>114</ele>
        <time>2015-06-01T20:22:28.000Z</time>
      </trkpt>
      <trkpt lat="48.87005" lon="2.39436">
        <ele>114.59999847412</ele>
        <time>2015-06-01T20:22:32.000Z</time>
      </trkpt>
      <trkpt lat="48.87007" lon="2.39436">
        <ele>115.80000305176</ele>
        <time>2015-06-01T20:22:39.000Z</time>
      </trkpt>
      <trkpt lat="48.87005" lon="2.39436">
        <ele>116.80000305176</ele>
        <time>2015-06-01T20:22:44.000Z</time>
      </trkpt>
      <trkpt lat="48.87001" lon="2.39437">
        <ele>119.80000305176</ele>
        <time>2015-06-01T20:22:55.000Z</time>
      </trkpt>
      <trkpt lat="48.87002" lon="2.39437">
        <ele>122</ele>
        <time>2015-06-01T20:23:04.000Z</time>
      </trkpt>
      <trkpt lat="48.86996" lon="2.39442">
        <ele>123.40000152588</ele>
        <time>2015-06-01T20:23:09.000Z</time>
      </trkpt>
      <trkpt lat="48.86991" lon="2.39449">
        <ele>124.19999694824</ele>
        <time>2015-06-01T20:23:12.000Z</time>
      </trkpt>
      <trkpt lat="48.86987" lon="2.39454">
        <ele>125</ele>
        <time>2015-06-01T20:23:16.000Z</time>
      </trkpt>
      <trkpt lat="48.86989" lon="2.39457">
        <ele>125.80000305176</ele>
        <time>2015-06-01T20:23:25.000Z</time>
      </trkpt>
      <trkpt lat="48.86996" lon="2.39467">
        <ele>128</ele>
        <time>2015-06-01T20:24:01.000Z</time>
      </trkpt>
      <trkpt lat="48.86997" lon="2.39469">
        <ele>129.60000610352</ele>
        <time>2015-06-01T20:24:11.000Z</time>
      </trkpt>
      <trkpt lat="48.86991" lon="2.39477">
        <ele>129.80000305176</ele>
        <time>2015-06-01T20:24:16.000Z</time>
      </trkpt>
      <trkpt lat="48.8699" lon="2.39478">
        <ele>129.80000305176</ele>
        <time>2015-06-01T20:24:17.000Z</time>
      </trkpt>
      <trkpt lat="48.86979" lon="2.39485">
        <ele>130.60000610352</ele>
        <time>2015-06-01T20:24:22.000Z</time>
      </trkpt>
      <trkpt lat="48.86961" lon="2.39496">
        <ele>131.19999694824</ele>
        <time>2015-06-01T20:24:27.000Z</time>
      </trkpt>
      <trkpt lat="48.86943" lon="2.39508">
        <ele>131.60000610352</ele>
        <time>2015-06-01T20:24:31.000Z</time>
      </trkpt>
      <trkpt lat="48.86923" lon="2.39523">
        <ele>131.60000610352</ele>
        <time>2015-06-01T20:24:35.000Z</time>
      </trkpt>
      <trkpt lat="48.86916" lon="2.39527">
        <ele>131.39999389648</ele>
        <time>2015-06-01T20:24:36.000Z</time>
      </trkpt>
      <trkpt lat="48.86896" lon="2.39538">
        <ele>131.19999694824</ele>
        <time>2015-06-01T20:24:39.000Z</time>
      </trkpt>
      <trkpt lat="48.86874" lon="2.3955">
        <ele>130.80000305176</ele>
        <time>2015-06-01T20:24:42.000Z</time>
      </trkpt>
      <trkpt lat="48.86852" lon="2.39566">
        <ele>130.60000610352</ele>
        <time>2015-06-01T20:24:45.000Z</time>
      </trkpt>
      <trkpt lat="48.86837" lon="2.39577">
        <ele>130.60000610352</ele>
        <time>2015-06-01T20:24:47.000Z</time>
      </trkpt>
      <trkpt lat="48.86808" lon="2.39596">
        <ele>129.80000305176</ele>
        <time>2015-06-01T20:24:51.000Z</time>
      </trkpt>
      <trkpt lat="48.86801" lon="2.39601">
        <ele>129.60000610352</ele>
        <time>2015-06-01T20:24:52.000Z</time>
      </trkpt>
      <trkpt lat="48.86789" lon="2.39614">
        <ele>129.39999389648</ele>
        <time>2015-06-01T20:24:54.000Z</time>
      </trkpt>
      <trkpt lat="48.86774" lon="2.39625">
        <ele>129.19999694824</ele>
        <time>2015-06-01T20:24:56.000Z</time>
      </trkpt>
      <trkpt lat="48.86748" lon="2.39649">
        <ele>128.80000305176</ele>
        <time>2015-06-01T20:25:00.000Z</time>
      </trkpt>
      <trkpt lat="48.8674" lon="2.39655">
        <ele>128.60000610352</ele>
        <time>2015-06-01T20:25:01.000Z</time>
      </trkpt>
      <trkpt lat="48.86716" lon="2.39672">
        <ele>128.19999694824</ele>
        <time>2015-06-01T20:25:04.000Z</time>
      </trkpt>
      <trkpt lat="48.86692" lon="2.39689">
        <ele>127.59999847412</ele>
        <time>2015-06-01T20:25:07.000Z</time>
      </trkpt>
      <trkpt lat="48.86669" lon="2.39705">
        <ele>127.19999694824</ele>
        <time>2015-06-01T20:25:10.000Z</time>
      </trkpt>
      <trkpt lat="48.86649" lon="2.39719">
        <ele>126.40000152588</ele>
        <time>2015-06-01T20:25:13.000Z</time>
      </trkpt>
      <trkpt lat="48.86641" lon="2.39723">
        <ele>126.19999694824</ele>
        <time>2015-06-01T20:25:14.000Z</time>
      </trkpt>
      <trkpt lat="48.86629" lon="2.39729">
        <ele>125.59999847412</ele>
        <time>2015-06-01T20:25:16.000Z</time>
      </trkpt>
      <trkpt lat="48.86607" lon="2.39749">
        <ele>124.40000152588</ele>
        <time>2015-06-01T20:25:20.000Z</time>
      </trkpt>
      <trkpt lat="48.86601" lon="2.39754">
        <ele>124.19999694824</ele>
        <time>2015-06-01T20:25:21.000Z</time>
      </trkpt>
      <trkpt lat="48.86584" lon="2.39763">
        <ele>123.19999694824</ele>
        <time>2015-06-01T20:25:24.000Z</time>
      </trkpt>
      <trkpt lat="48.86579" lon="2.39766">
        <ele>122.80000305176</ele>
        <time>2015-06-01T20:25:25.000Z</time>
      </trkpt>
      <trkpt lat="48.86572" lon="2.39771">
        <ele>122.40000152588</ele>
        <time>2015-06-01T20:25:26.000Z</time>
      </trkpt>
      <trkpt lat="48.8656" lon="2.39784">
        <ele>121.80000305176</ele>
        <time>2015-06-01T20:25:28.000Z</time>
      </trkpt>
      <trkpt lat="48.86532" lon="2.39802">
        <ele>120.59999847412</ele>
        <time>2015-06-01T20:25:32.000Z</time>
      </trkpt>
      <trkpt lat="48.8652" lon="2.39808">
        <ele>119.80000305176</ele>
        <time>2015-06-01T20:25:34.000Z</time>
      </trkpt>
      <trkpt lat="48.86499" lon="2.39807">
        <ele>118.40000152588</ele>
        <time>2015-06-01T20:25:38.000Z</time>
      </trkpt>
      <trkpt lat="48.86491" lon="2.39802">
        <ele>116.59999847412</ele>
        <time>2015-06-01T20:25:42.000Z</time>
      </trkpt>
      <trkpt lat="48.86485" lon="2.39805">
        <ele>115.19999694824</ele>
        <time>2015-06-01T20:25:45.000Z</time>
      </trkpt>
      <trkpt lat="48.86483" lon="2.3981">
        <ele>114</ele>
        <time>2015-06-01T20:25:47.000Z</time>
      </trkpt>
      <trkpt lat="48.86483" lon="2.3981">
        <ele>110</ele>
        <time>2015-06-01T20:25:54.000Z</time>
      </trkpt>
      <trkpt lat="48.86486" lon="2.39806">
        <ele>106.19999694824</ele>
        <time>2015-06-01T20:26:00.000Z</time>
      </trkpt>
      <trkpt lat="48.86485" lon="2.3981">
        <ele>101.80000305176</ele>
        <time>2015-06-01T20:26:08.000Z</time>
      </trkpt>
      <trkpt lat="48.86489" lon="2.39813">
        <ele>98.800003051758</ele>
        <time>2015-06-01T20:26:14.000Z</time>
      </trkpt>
      <trkpt lat="48.86489" lon="2.39816">
        <ele>97.800003051758</ele>
        <time>2015-06-01T20:26:17.000Z</time>
      </trkpt>
      <trkpt lat="48.86489" lon="2.39817">
        <ele>94.800003051758</ele>
        <time>2015-06-01T20:26:26.000Z</time>
      </trkpt>
      <trkpt lat="48.86485" lon="2.39831">
        <ele>93.599998474121</ele>
        <time>2015-06-01T20:26:32.000Z</time>
      </trkpt>
      <trkpt lat="48.86479" lon="2.39846">
        <ele>92.599998474121</ele>
        <time>2015-06-01T20:26:37.000Z</time>
      </trkpt>
      <trkpt lat="48.86473" lon="2.39862">
        <ele>91.800003051758</ele>
        <time>2015-06-01T20:26:42.000Z</time>
      </trkpt>
      <trkpt lat="48.86473" lon="2.39866">
        <ele>91.800003051758</ele>
        <time>2015-06-01T20:26:43.000Z</time>
      </trkpt>
      <trkpt lat="48.86475" lon="2.39877">
        <ele>91.599998474121</ele>
        <time>2015-06-01T20:26:46.000Z</time>
      </trkpt>
      <trkpt lat="48.86476" lon="2.3988">
        <ele>91.400001525879</ele>
        <time>2015-06-01T20:26:47.000Z</time>
      </trkpt>
      <trkpt lat="48.86479" lon="2.39894">
        <ele>91.199996948242</ele>
        <time>2015-06-01T20:26:51.000Z</time>
      </trkpt>
      <trkpt lat="48.86479" lon="2.39909">
        <ele>91.199996948242</ele>
        <time>2015-06-01T20:26:55.000Z</time>
      </trkpt>
      <trkpt lat="48.86479" lon="2.39912">
        <ele>91</ele>
        <time>2015-06-01T20:26:56.000Z</time>
      </trkpt>
      <trkpt lat="48.86479" lon="2.39924">
        <ele>90.800003051758</ele>
        <time>2015-06-01T20:26:59.000Z</time>
      </trkpt>
      <trkpt lat="48.86477" lon="2.39944">
        <ele>90</ele>
        <time>2015-06-01T20:27:04.000Z</time>
      </trkpt>
      <trkpt lat="48.86475" lon="2.39953">
        <ele>89.800003051758</ele>
        <time>2015-06-01T20:27:06.000Z</time>
      </trkpt>
      <trkpt lat="48.86478" lon="2.39961">
        <ele>88.800003051758</ele>
        <time>2015-06-01T20:27:11.000Z</time>
      </trkpt>
      <trkpt lat="48.86475" lon="2.39973">
        <ele>88.199996948242</ele>
        <time>2015-06-01T20:27:15.000Z</time>
      </trkpt>
      <trkpt lat="48.86475" lon="2.39976">
        <ele>88</ele>
        <time>2015-06-01T20:27:16.000Z</time>
      </trkpt>
      <trkpt lat="48.8648" lon="2.39981">
        <ele>87.599998474121</ele>
        <time>2015-06-01T20:27:20.000Z</time>
      </trkpt>
      <trkpt lat="48.86481" lon="2.39982">
        <ele>87.599998474121</ele>
        <time>2015-06-01T20:27:21.000Z</time>
      </trkpt>
      <trkpt lat="48.86482" lon="2.39983">
        <ele>87.400001525879</ele>
        <time>2015-06-01T20:27:23.000Z</time>
      </trkpt>
      <trkpt lat="48.86484" lon="2.39985">
        <ele>87.199996948242</ele>
        <time>2015-06-01T20:27:28.000Z</time>
      </trkpt>
      <trkpt lat="48.86485" lon="2.39984">
        <ele>86.800003051758</ele>
        <time>2015-06-01T20:27:46.000Z</time>
      </trkpt>
      <trkpt lat="48.86484" lon="2.39986">
        <ele>86.800003051758</ele>
        <time>2015-06-01T20:27:47.000Z</time>
      </trkpt>
      <trkpt lat="48.86485" lon="2.39988">
        <ele>86.800003051758</ele>
        <time>2015-06-01T20:27:53.000Z</time>
      </trkpt>
      <trkpt lat="48.86484" lon="2.39987">
        <ele>86.800003051758</ele>
        <time>2015-06-01T20:28:01.000Z</time>
      </trkpt>
      <trkpt lat="48.86484" lon="2.39988">
        <ele>86.800003051758</ele>
        <time>2015-06-01T20:28:05.000Z</time>
      </trkpt>
      <trkpt lat="48.86485" lon="2.3999">
        <ele>88</ele>
        <time>2015-06-01T20:28:16.000Z</time>
      </trkpt>
      <trkpt lat="48.86487" lon="2.3999">
        <ele>89.599998474121</ele>
        <time>2015-06-01T20:28:27.000Z</time>
      </trkpt>
      <trkpt lat="48.8649" lon="2.3999">
        <ele>90.599998474121</ele>
        <time>2015-06-01T20:28:32.000Z</time>
      </trkpt>
      <trkpt lat="48.86495" lon="2.39989">
        <ele>91.599998474121</ele>
        <time>2015-06-01T20:28:38.000Z</time>
      </trkpt>
      <trkpt lat="48.86494" lon="2.39984">
        <ele>94.800003051758</ele>
        <time>2015-06-01T20:28:48.000Z</time>
      </trkpt>
      <trkpt lat="48.86494" lon="2.39977">
        <ele>95.599998474121</ele>
        <time>2015-06-01T20:28:52.000Z</time>
      </trkpt>
      <trkpt lat="48.86498" lon="2.39968">
        <ele>97.400001525879</ele>
        <time>2015-06-01T20:28:59.000Z</time>
      </trkpt>
      <trkpt lat="48.86498" lon="2.39967">
        <ele>97.599998474121</ele>
        <time>2015-06-01T20:29:00.000Z</time>
      </trkpt>
      <trkpt lat="48.86498" lon="2.39961">
        <ele>98</ele>
        <time>2015-06-01T20:29:03.000Z</time>
      </trkpt>
      <trkpt lat="48.86498" lon="2.39948">
        <ele>98.599998474121</ele>
        <time>2015-06-01T20:29:08.000Z</time>
      </trkpt>
      <trkpt lat="48.86501" lon="2.39926">
        <ele>98.599998474121</ele>
        <time>2015-06-01T20:29:14.000Z</time>
      </trkpt>
      <trkpt lat="48.86498" lon="2.39916">
        <ele>98.199996948242</ele>
        <time>2015-06-01T20:29:18.000Z</time>
      </trkpt>
      <trkpt lat="48.86497" lon="2.39912">
        <ele>98</ele>
        <time>2015-06-01T20:29:20.000Z</time>
      </trkpt>
      <trkpt lat="48.86498" lon="2.3991">
        <ele>98</ele>
        <time>2015-06-01T20:29:22.000Z</time>
      </trkpt>
      <trkpt lat="48.86499" lon="2.39908">
        <ele>97.800003051758</ele>
        <time>2015-06-01T20:29:24.000Z</time>
      </trkpt>
      <trkpt lat="48.86502" lon="2.39899">
        <ele>97.400001525879</ele>
        <time>2015-06-01T20:29:30.000Z</time>
      </trkpt>
      <trkpt lat="48.865" lon="2.3989">
        <ele>96.599998474121</ele>
        <time>2015-06-01T20:29:35.000Z</time>
      </trkpt>
      <trkpt lat="48.86497" lon="2.39883">
        <ele>96.199996948242</ele>
        <time>2015-06-01T20:29:38.000Z</time>
      </trkpt>
      <trkpt lat="48.86492" lon="2.3988">
        <ele>96.199996948242</ele>
        <time>2015-06-01T20:29:40.000Z</time>
      </trkpt>
      <trkpt lat="48.86486" lon="2.39873">
        <ele>95.800003051758</ele>
        <time>2015-06-01T20:29:44.000Z</time>
      </trkpt>
      <trkpt lat="48.86483" lon="2.39869">
        <ele>95.800003051758</ele>
        <time>2015-06-01T20:29:46.000Z</time>
      </trkpt>
      <trkpt lat="48.8648" lon="2.39866">
        <ele>95.800003051758</ele>
        <time>2015-06-01T20:29:48.000Z</time>
      </trkpt>
      <trkpt lat="48.86472" lon="2.39857">
        <ele>95.599998474121</ele>
        <time>2015-06-01T20:29:53.000Z</time>
      </trkpt>
      <trkpt lat="48.86471" lon="2.39857">
        <ele>95.599998474121</ele>
        <time>2015-06-01T20:29:57.000Z</time>
      </trkpt>
      <trkpt lat="48.86468" lon="2.3986">
        <ele>95.400001525879</ele>
        <time>2015-06-01T20:30:00.000Z</time>
      </trkpt>
      <trkpt lat="48.86458" lon="2.39869">
        <ele>95.400001525879</ele>
        <time>2015-06-01T20:30:05.000Z</time>
      </trkpt>
      <trkpt lat="48.86456" lon="2.3987">
        <ele>95.400001525879</ele>
        <time>2015-06-01T20:30:06.000Z</time>
      </trkpt>
      <trkpt lat="48.86438" lon="2.39882">
        <ele>95.400001525879</ele>
        <time>2015-06-01T20:30:12.000Z</time>
      </trkpt>
      <trkpt lat="48.8642" lon="2.39895">
        <ele>95.400001525879</ele>
        <time>2015-06-01T20:30:17.000Z</time>
      </trkpt>
      <trkpt lat="48.86404" lon="2.39911">
        <ele>95.400001525879</ele>
        <time>2015-06-01T20:30:22.000Z</time>
      </trkpt>
      <trkpt lat="48.86397" lon="2.39918">
        <ele>95.400001525879</ele>
        <time>2015-06-01T20:30:24.000Z</time>
      </trkpt>
      <trkpt lat="48.86382" lon="2.39932">
        <ele>95.400001525879</ele>
        <time>2015-06-01T20:30:28.000Z</time>
      </trkpt>
      <trkpt lat="48.86375" lon="2.3994">
        <ele>95.400001525879</ele>
        <time>2015-06-01T20:30:30.000Z</time>
      </trkpt>
      <trkpt lat="48.86356" lon="2.39959">
        <ele>95.400001525879</ele>
        <time>2015-06-01T20:30:35.000Z</time>
      </trkpt>
      <trkpt lat="48.86352" lon="2.39963">
        <ele>95.599998474121</ele>
        <time>2015-06-01T20:30:36.000Z</time>
      </trkpt>
      <trkpt lat="48.86339" lon="2.39974">
        <ele>96.199996948242</ele>
        <time>2015-06-01T20:30:39.000Z</time>
      </trkpt>
      <trkpt lat="48.86314" lon="2.39989">
        <ele>97.199996948242</ele>
        <time>2015-06-01T20:30:44.000Z</time>
      </trkpt>
      <trkpt lat="48.86308" lon="2.39992">
        <ele>97.599998474121</ele>
        <time>2015-06-01T20:30:45.000Z</time>
      </trkpt>
      <trkpt lat="48.86297" lon="2.39998">
        <ele>98</ele>
        <time>2015-06-01T20:30:47.000Z</time>
      </trkpt>
      <trkpt lat="48.86266" lon="2.40009">
        <ele>99.400001525879</ele>
        <time>2015-06-01T20:30:52.000Z</time>
      </trkpt>
      <trkpt lat="48.86259" lon="2.4001">
        <ele>99.599998474121</ele>
        <time>2015-06-01T20:30:53.000Z</time>
      </trkpt>
      <trkpt lat="48.86229" lon="2.40016">
        <ele>100.40000152588</ele>
        <time>2015-06-01T20:30:57.000Z</time>
      </trkpt>
      <trkpt lat="48.86208" lon="2.40019">
        <ele>100.80000305176</ele>
        <time>2015-06-01T20:31:00.000Z</time>
      </trkpt>
      <trkpt lat="48.86187" lon="2.40023">
        <ele>101</ele>
        <time>2015-06-01T20:31:03.000Z</time>
      </trkpt>
      <trkpt lat="48.86175" lon="2.40025">
        <ele>101.19999694824</ele>
        <time>2015-06-01T20:31:05.000Z</time>
      </trkpt>
      <trkpt lat="48.86164" lon="2.40028">
        <ele>101.40000152588</ele>
        <time>2015-06-01T20:31:07.000Z</time>
      </trkpt>
      <trkpt lat="48.86137" lon="2.40035">
        <ele>101.40000152588</ele>
        <time>2015-06-01T20:31:11.000Z</time>
      </trkpt>
      <trkpt lat="48.86123" lon="2.4004">
        <ele>101.19999694824</ele>
        <time>2015-06-01T20:31:13.000Z</time>
      </trkpt>
      <trkpt lat="48.86095" lon="2.40056">
        <ele>100.59999847412</ele>
        <time>2015-06-01T20:31:17.000Z</time>
      </trkpt>
      <trkpt lat="48.86079" lon="2.40066">
        <ele>100.40000152588</ele>
        <time>2015-06-01T20:31:19.000Z</time>
      </trkpt>
      <trkpt lat="48.86072" lon="2.40071">
        <ele>100</ele>
        <time>2015-06-01T20:31:20.000Z</time>
      </trkpt>
      <trkpt lat="48.86048" lon="2.40086">
        <ele>99.400001525879</ele>
        <time>2015-06-01T20:31:23.000Z</time>
      </trkpt>
      <trkpt lat="48.86039" lon="2.40091">
        <ele>99.199996948242</ele>
        <time>2015-06-01T20:31:24.000Z</time>
      </trkpt>
      <trkpt lat="48.86012" lon="2.40109">
        <ele>98.800003051758</ele>
        <time>2015-06-01T20:31:27.000Z</time>
      </trkpt>
      <trkpt lat="48.85994" lon="2.40124">
        <ele>98.599998474121</ele>
        <time>2015-06-01T20:31:29.000Z</time>
      </trkpt>
      <trkpt lat="48.85977" lon="2.4014">
        <ele>98.400001525879</ele>
        <time>2015-06-01T20:31:31.000Z</time>
      </trkpt>
      <trkpt lat="48.85962" lon="2.40157">
        <ele>98</ele>
        <time>2015-06-01T20:31:33.000Z</time>
      </trkpt>
      <trkpt lat="48.85955" lon="2.40165">
        <ele>97.800003051758</ele>
        <time>2015-06-01T20:31:34.000Z</time>
      </trkpt>
      <trkpt lat="48.85928" lon="2.40199">
        <ele>97</ele>
        <time>2015-06-01T20:31:38.000Z</time>
      </trkpt>
      <trkpt lat="48.8591" lon="2.40223">
        <ele>96.599998474121</ele>
        <time>2015-06-01T20:31:41.000Z</time>
      </trkpt>
      <trkpt lat="48.85903" lon="2.4023">
        <ele>96.400001525879</ele>
        <time>2015-06-01T20:31:42.000Z</time>
      </trkpt>
      <trkpt lat="48.85891" lon="2.40239">
        <ele>96.199996948242</ele>
        <time>2015-06-01T20:31:44.000Z</time>
      </trkpt>
      <trkpt lat="48.85879" lon="2.40252">
        <ele>96</ele>
        <time>2015-06-01T20:31:48.000Z</time>
      </trkpt>
      <trkpt lat="48.8588" lon="2.40251">
        <ele>95.800003051758</ele>
        <time>2015-06-01T20:31:49.000Z</time>
      </trkpt>
      <trkpt lat="48.85881" lon="2.40247">
        <ele>95.199996948242</ele>
        <time>2015-06-01T20:31:51.000Z</time>
      </trkpt>
      <trkpt lat="48.85889" lon="2.40227">
        <ele>94.400001525879</ele>
        <time>2015-06-01T20:31:57.000Z</time>
      </trkpt>
      <trkpt lat="48.85891" lon="2.40222">
        <ele>94.199996948242</ele>
        <time>2015-06-01T20:31:59.000Z</time>
      </trkpt>
      <trkpt lat="48.85897" lon="2.40206">
        <ele>93.800003051758</ele>
        <time>2015-06-01T20:32:05.000Z</time>
      </trkpt>
      <trkpt lat="48.85904" lon="2.4021">
        <ele>93.400001525879</ele>
        <time>2015-06-01T20:32:10.000Z</time>
      </trkpt>
      <trkpt lat="48.85912" lon="2.40222">
        <ele>87.800003051758</ele>
        <time>2015-06-01T20:32:35.000Z</time>
      </trkpt>
      <trkpt lat="48.85902" lon="2.40236">
        <ele>86.800003051758</ele>
        <time>2015-06-01T20:32:40.000Z</time>
      </trkpt>
      <trkpt lat="48.85885" lon="2.40258">
        <ele>86.199996948242</ele>
        <time>2015-06-01T20:32:44.000Z</time>
      </trkpt>
      <trkpt lat="48.8588" lon="2.40263">
        <ele>86</ele>
        <time>2015-06-01T20:32:45.000Z</time>
      </trkpt>
      <trkpt lat="48.85857" lon="2.40293">
        <ele>85.800003051758</ele>
        <time>2015-06-01T20:32:49.000Z</time>
      </trkpt>
      <trkpt lat="48.85848" lon="2.403">
        <ele>85.599998474121</ele>
        <time>2015-06-01T20:32:50.000Z</time>
      </trkpt>
      <trkpt lat="48.85824" lon="2.40322">
        <ele>85.599998474121</ele>
        <time>2015-06-01T20:32:53.000Z</time>
      </trkpt>
      <trkpt lat="48.85803" lon="2.40348">
        <ele>85.400001525879</ele>
        <time>2015-06-01T20:32:56.000Z</time>
      </trkpt>
      <trkpt lat="48.85789" lon="2.40367">
        <ele>85.400001525879</ele>
        <time>2015-06-01T20:32:58.000Z</time>
      </trkpt>
      <trkpt lat="48.85753" lon="2.40404">
        <ele>85.199996948242</ele>
        <time>2015-06-01T20:33:03.000Z</time>
      </trkpt>
      <trkpt lat="48.85729" lon="2.40422">
        <ele>85.199996948242</ele>
        <time>2015-06-01T20:33:06.000Z</time>
      </trkpt>
      <trkpt lat="48.85705" lon="2.4044">
        <ele>85.199996948242</ele>
        <time>2015-06-01T20:33:09.000Z</time>
      </trkpt>
      <trkpt lat="48.85697" lon="2.40445">
        <ele>85.199996948242</ele>
        <time>2015-06-01T20:33:10.000Z</time>
      </trkpt>
      <trkpt lat="48.85674" lon="2.40459">
        <ele>85.199996948242</ele>
        <time>2015-06-01T20:33:13.000Z</time>
      </trkpt>
      <trkpt lat="48.85652" lon="2.40474">
        <ele>85.199996948242</ele>
        <time>2015-06-01T20:33:16.000Z</time>
      </trkpt>
      <trkpt lat="48.85644" lon="2.40478">
        <ele>85.199996948242</ele>
        <time>2015-06-01T20:33:17.000Z</time>
      </trkpt>
      <trkpt lat="48.85622" lon="2.40487">
        <ele>85.199996948242</ele>
        <time>2015-06-01T20:33:20.000Z</time>
      </trkpt>
      <trkpt lat="48.85615" lon="2.40491">
        <ele>85.199996948242</ele>
        <time>2015-06-01T20:33:21.000Z</time>
      </trkpt>
      <trkpt lat="48.85596" lon="2.40503">
        <ele>85.199996948242</ele>
        <time>2015-06-01T20:33:24.000Z</time>
      </trkpt>
      <trkpt lat="48.85573" lon="2.40513">
        <ele>85.199996948242</ele>
        <time>2015-06-01T20:33:27.000Z</time>
      </trkpt>
      <trkpt lat="48.85566" lon="2.40517">
        <ele>85.199996948242</ele>
        <time>2015-06-01T20:33:28.000Z</time>
      </trkpt>
      <trkpt lat="48.85544" lon="2.40526">
        <ele>85.199996948242</ele>
        <time>2015-06-01T20:33:31.000Z</time>
      </trkpt>
      <trkpt lat="48.85537" lon="2.40529">
        <ele>85.199996948242</ele>
        <time>2015-06-01T20:33:32.000Z</time>
      </trkpt>
      <trkpt lat="48.85531" lon="2.40531">
        <ele>85.199996948242</ele>
        <time>2015-06-01T20:33:33.000Z</time>
      </trkpt>
      <trkpt lat="48.85503" lon="2.4054">
        <ele>84.800003051758</ele>
        <time>2015-06-01T20:33:37.000Z</time>
      </trkpt>
      <trkpt lat="48.85484" lon="2.40544">
        <ele>84.199996948242</ele>
        <time>2015-06-01T20:33:40.000Z</time>
      </trkpt>
      <trkpt lat="48.85472" lon="2.40548">
        <ele>84</ele>
        <time>2015-06-01T20:33:42.000Z</time>
      </trkpt>
      <trkpt lat="48.85448" lon="2.40554">
        <ele>83.400001525879</ele>
        <time>2015-06-01T20:33:46.000Z</time>
      </trkpt>
      <trkpt lat="48.85442" lon="2.40556">
        <ele>83</ele>
        <time>2015-06-01T20:33:47.000Z</time>
      </trkpt>
      <trkpt lat="48.85417" lon="2.40566">
        <ele>82.199996948242</ele>
        <time>2015-06-01T20:33:52.000Z</time>
      </trkpt>
      <trkpt lat="48.85398" lon="2.40574">
        <ele>81.599998474121</ele>
        <time>2015-06-01T20:33:55.000Z</time>
      </trkpt>
      <trkpt lat="48.85374" lon="2.40582">
        <ele>80.599998474121</ele>
        <time>2015-06-01T20:33:59.000Z</time>
      </trkpt>
      <trkpt lat="48.85371" lon="2.40583">
        <ele>80.599998474121</ele>
        <time>2015-06-01T20:34:00.000Z</time>
      </trkpt>
      <trkpt lat="48.85362" lon="2.40584">
        <ele>80</ele>
        <time>2015-06-01T20:34:02.000Z</time>
      </trkpt>
      <trkpt lat="48.85354" lon="2.40585">
        <ele>79.400001525879</ele>
        <time>2015-06-01T20:34:04.000Z</time>
      </trkpt>
      <trkpt lat="48.8535" lon="2.40586">
        <ele>79</ele>
        <time>2015-06-01T20:34:05.000Z</time>
      </trkpt>
      <trkpt lat="48.85344" lon="2.40585">
        <ele>78.599998474121</ele>
        <time>2015-06-01T20:34:07.000Z</time>
      </trkpt>
      <trkpt lat="48.85338" lon="2.40581">
        <ele>77.599998474121</ele>
        <time>2015-06-01T20:34:13.000Z</time>
      </trkpt>
      <trkpt lat="48.85331" lon="2.40578">
        <ele>80</ele>
        <time>2015-06-01T20:35:10.000Z</time>
      </trkpt>
      <trkpt lat="48.85321" lon="2.40586">
        <ele>80.800003051758</ele>
        <time>2015-06-01T20:35:15.000Z</time>
      </trkpt>
      <trkpt lat="48.85319" lon="2.40587">
        <ele>81</ele>
        <time>2015-06-01T20:35:16.000Z</time>
      </trkpt>
      <trkpt lat="48.85306" lon="2.40591">
        <ele>81.800003051758</ele>
        <time>2015-06-01T20:35:20.000Z</time>
      </trkpt>
      <trkpt lat="48.85295" lon="2.40595">
        <ele>82.199996948242</ele>
        <time>2015-06-01T20:35:25.000Z</time>
      </trkpt>
      <trkpt lat="48.8528" lon="2.40602">
        <ele>82.599998474121</ele>
        <time>2015-06-01T20:35:30.000Z</time>
      </trkpt>
      <trkpt lat="48.8526" lon="2.4061">
        <ele>82.800003051758</ele>
        <time>2015-06-01T20:35:35.000Z</time>
      </trkpt>
      <trkpt lat="48.85249" lon="2.40615">
        <ele>82.800003051758</ele>
        <time>2015-06-01T20:35:37.000Z</time>
      </trkpt>
      <trkpt lat="48.85225" lon="2.40617">
        <ele>82.800003051758</ele>
        <time>2015-06-01T20:35:41.000Z</time>
      </trkpt>
      <trkpt lat="48.85218" lon="2.40617">
        <ele>82.800003051758</ele>
        <time>2015-06-01T20:35:42.000Z</time>
      </trkpt>
      <trkpt lat="48.85211" lon="2.40617">
        <ele>83</ele>
        <time>2015-06-01T20:35:43.000Z</time>
      </trkpt>
      <trkpt lat="48.85184" lon="2.4062">
        <ele>82.800003051758</ele>
        <time>2015-06-01T20:35:47.000Z</time>
      </trkpt>
      <trkpt lat="48.85177" lon="2.40621">
        <ele>82.599998474121</ele>
        <time>2015-06-01T20:35:48.000Z</time>
      </trkpt>
      <trkpt lat="48.85151" lon="2.40627">
        <ele>82</ele>
        <time>2015-06-01T20:35:52.000Z</time>
      </trkpt>
      <trkpt lat="48.85146" lon="2.40628">
        <ele>82</ele>
        <time>2015-06-01T20:35:53.000Z</time>
      </trkpt>
      <trkpt lat="48.85132" lon="2.4063">
        <ele>81.400001525879</ele>
        <time>2015-06-01T20:35:56.000Z</time>
      </trkpt>
      <trkpt lat="48.85103" lon="2.40631">
        <ele>80.400001525879</ele>
        <time>2015-06-01T20:36:01.000Z</time>
      </trkpt>
      <trkpt lat="48.85081" lon="2.40632">
        <ele>79.199996948242</ele>
        <time>2015-06-01T20:36:05.000Z</time>
      </trkpt>
      <trkpt lat="48.85058" lon="2.40633">
        <ele>77.800003051758</ele>
        <time>2015-06-01T20:36:09.000Z</time>
      </trkpt>
      <trkpt lat="48.85052" lon="2.40633">
        <ele>77.400001525879</ele>
        <time>2015-06-01T20:36:10.000Z</time>
      </trkpt>
      <trkpt lat="48.8504" lon="2.40629">
        <ele>76.400001525879</ele>
        <time>2015-06-01T20:36:13.000Z</time>
      </trkpt>
      <trkpt lat="48.85039" lon="2.40629">
        <ele>73.599998474121</ele>
        <time>2015-06-01T20:36:23.000Z</time>
      </trkpt>
      <trkpt lat="48.8504" lon="2.40629">
        <ele>72.199996948242</ele>
        <time>2015-06-01T20:36:28.000Z</time>
      </trkpt>
      <trkpt lat="48.85035" lon="2.40636">
        <ele>67</ele>
        <time>2015-06-01T20:36:48.000Z</time>
      </trkpt>
      <trkpt lat="48.85021" lon="2.40637">
        <ele>66</ele>
        <time>2015-06-01T20:36:52.000Z</time>
      </trkpt>
      <trkpt lat="48.85006" lon="2.40641">
        <ele>65.199996948242</ele>
        <time>2015-06-01T20:36:56.000Z</time>
      </trkpt>
      <trkpt lat="48.84985" lon="2.40644">
        <ele>64.800003051758</ele>
        <time>2015-06-01T20:37:01.000Z</time>
      </trkpt>
      <trkpt lat="48.84963" lon="2.40649">
        <ele>64.400001525879</ele>
        <time>2015-06-01T20:37:06.000Z</time>
      </trkpt>
      <trkpt lat="48.84958" lon="2.40649">
        <ele>64.400001525879</ele>
        <time>2015-06-01T20:37:07.000Z</time>
      </trkpt>
      <trkpt lat="48.84939" lon="2.40651">
        <ele>64.199996948242</ele>
        <time>2015-06-01T20:37:11.000Z</time>
      </trkpt>
      <trkpt lat="48.84922" lon="2.40652">
        <ele>64.199996948242</ele>
        <time>2015-06-01T20:37:14.000Z</time>
      </trkpt>
      <trkpt lat="48.84907" lon="2.40656">
        <ele>64.199996948242</ele>
        <time>2015-06-01T20:37:17.000Z</time>
      </trkpt>
      <trkpt lat="48.84896" lon="2.40657">
        <ele>64.199996948242</ele>
        <time>2015-06-01T20:37:19.000Z</time>
      </trkpt>
      <trkpt lat="48.84883" lon="2.40658">
        <ele>64.199996948242</ele>
        <time>2015-06-01T20:37:21.000Z</time>
      </trkpt>
      <trkpt lat="48.84855" lon="2.40655">
        <ele>64</ele>
        <time>2015-06-01T20:37:26.000Z</time>
      </trkpt>
      <trkpt lat="48.84834" lon="2.4065">
        <ele>64</ele>
        <time>2015-06-01T20:37:30.000Z</time>
      </trkpt>
      <trkpt lat="48.84815" lon="2.40643">
        <ele>64</ele>
        <time>2015-06-01T20:37:34.000Z</time>
      </trkpt>
      <trkpt lat="48.84806" lon="2.4064">
        <ele>64</ele>
        <time>2015-06-01T20:37:36.000Z</time>
      </trkpt>
      <trkpt lat="48.84785" lon="2.40637">
        <ele>64</ele>
        <time>2015-06-01T20:37:41.000Z</time>
      </trkpt>
      <trkpt lat="48.84782" lon="2.40635">
        <ele>64</ele>
        <time>2015-06-01T20:37:42.000Z</time>
      </trkpt>
      <trkpt lat="48.84774" lon="2.40626">
        <ele>64</ele>
        <time>2015-06-01T20:37:48.000Z</time>
      </trkpt>
      <trkpt lat="48.84775" lon="2.40622">
        <ele>64</ele>
        <time>2015-06-01T20:37:53.000Z</time>
      </trkpt>
      <trkpt lat="48.84775" lon="2.40621">
        <ele>64</ele>
        <time>2015-06-01T20:37:54.000Z</time>
      </trkpt>
      <trkpt lat="48.84777" lon="2.40618">
        <ele>63.799999237061</ele>
        <time>2015-06-01T20:37:57.000Z</time>
      </trkpt>
      <trkpt lat="48.8478" lon="2.40621">
        <ele>63.400001525879</ele>
        <time>2015-06-01T20:38:01.000Z</time>
      </trkpt>
      <trkpt lat="48.84781" lon="2.40624">
        <ele>61.599998474121</ele>
        <time>2015-06-01T20:38:10.000Z</time>
      </trkpt>
      <trkpt lat="48.84781" lon="2.40629">
        <ele>60.200000762939</ele>
        <time>2015-06-01T20:38:30.000Z</time>
      </trkpt>
      <trkpt lat="48.84777" lon="2.40633">
        <ele>60</ele>
        <time>2015-06-01T20:39:14.000Z</time>
      </trkpt>
      <trkpt lat="48.84776" lon="2.40631">
        <ele>60</ele>
        <time>2015-06-01T20:39:15.000Z</time>
      </trkpt>
      <trkpt lat="48.84772" lon="2.40622">
        <ele>60</ele>
        <time>2015-06-01T20:39:19.000Z</time>
      </trkpt>
      <trkpt lat="48.84769" lon="2.40609">
        <ele>60</ele>
        <time>2015-06-01T20:39:25.000Z</time>
      </trkpt>
      <trkpt lat="48.84767" lon="2.40594">
        <ele>60</ele>
        <time>2015-06-01T20:39:30.000Z</time>
      </trkpt>
      <trkpt lat="48.84767" lon="2.40574">
        <ele>59.200000762939</ele>
        <time>2015-06-01T20:39:35.000Z</time>
      </trkpt>
      <trkpt lat="48.8477" lon="2.40547">
        <ele>58.599998474121</ele>
        <time>2015-06-01T20:39:41.000Z</time>
      </trkpt>
      <trkpt lat="48.84771" lon="2.40518">
        <ele>58.200000762939</ele>
        <time>2015-06-01T20:39:46.000Z</time>
      </trkpt>
      <trkpt lat="48.84774" lon="2.40483">
        <ele>57.400001525879</ele>
        <time>2015-06-01T20:39:52.000Z</time>
      </trkpt>
      <trkpt lat="48.84775" lon="2.40453">
        <ele>56.799999237061</ele>
        <time>2015-06-01T20:39:57.000Z</time>
      </trkpt>
      <trkpt lat="48.84776" lon="2.40447">
        <ele>56.599998474121</ele>
        <time>2015-06-01T20:39:58.000Z</time>
      </trkpt>
      <trkpt lat="48.84778" lon="2.40416">
        <ele>56.200000762939</ele>
        <time>2015-06-01T20:40:03.000Z</time>
      </trkpt>
      <trkpt lat="48.8478" lon="2.40392">
        <ele>56.200000762939</ele>
        <time>2015-06-01T20:40:07.000Z</time>
      </trkpt>
      <trkpt lat="48.84782" lon="2.40362">
        <ele>56</ele>
        <time>2015-06-01T20:40:12.000Z</time>
      </trkpt>
      <trkpt lat="48.84783" lon="2.40355">
        <ele>56</ele>
        <time>2015-06-01T20:40:13.000Z</time>
      </trkpt>
      <trkpt lat="48.84786" lon="2.40324">
        <ele>55.799999237061</ele>
        <time>2015-06-01T20:40:18.000Z</time>
      </trkpt>
      <trkpt lat="48.84786" lon="2.40317">
        <ele>55.799999237061</ele>
        <time>2015-06-01T20:40:19.000Z</time>
      </trkpt>
      <trkpt lat="48.84789" lon="2.40286">
        <ele>55.799999237061</ele>
        <time>2015-06-01T20:40:24.000Z</time>
      </trkpt>
      <trkpt lat="48.8479" lon="2.40252">
        <ele>55.799999237061</ele>
        <time>2015-06-01T20:40:29.000Z</time>
      </trkpt>
      <trkpt lat="48.8479" lon="2.40245">
        <ele>55.799999237061</ele>
        <time>2015-06-01T20:40:30.000Z</time>
      </trkpt>
      <trkpt lat="48.84792" lon="2.40224">
        <ele>55.799999237061</ele>
        <time>2015-06-01T20:40:33.000Z</time>
      </trkpt>
      <trkpt lat="48.84792" lon="2.40217">
        <ele>55.799999237061</ele>
        <time>2015-06-01T20:40:34.000Z</time>
      </trkpt>
      <trkpt lat="48.84793" lon="2.40195">
        <ele>55.799999237061</ele>
        <time>2015-06-01T20:40:37.000Z</time>
      </trkpt>
      <trkpt lat="48.84797" lon="2.40162">
        <ele>55.799999237061</ele>
        <time>2015-06-01T20:40:42.000Z</time>
      </trkpt>
      <trkpt lat="48.84796" lon="2.40139">
        <ele>55.799999237061</ele>
        <time>2015-06-01T20:40:46.000Z</time>
      </trkpt>
      <trkpt lat="48.84797" lon="2.40135">
        <ele>55.799999237061</ele>
        <time>2015-06-01T20:40:47.000Z</time>
      </trkpt>
      <trkpt lat="48.84798" lon="2.40129">
        <ele>55.799999237061</ele>
        <time>2015-06-01T20:40:48.000Z</time>
      </trkpt>
      <trkpt lat="48.84801" lon="2.40104">
        <ele>55.799999237061</ele>
        <time>2015-06-01T20:40:53.000Z</time>
      </trkpt>
      <trkpt lat="48.84803" lon="2.40078">
        <ele>55.799999237061</ele>
        <time>2015-06-01T20:40:58.000Z</time>
      </trkpt>
      <trkpt lat="48.84806" lon="2.40055">
        <ele>55.799999237061</ele>
        <time>2015-06-01T20:41:02.000Z</time>
      </trkpt>
      <trkpt lat="48.84808" lon="2.40037">
        <ele>55.799999237061</ele>
        <time>2015-06-01T20:41:05.000Z</time>
      </trkpt>
      <trkpt lat="48.84811" lon="2.40015">
        <ele>55.799999237061</ele>
        <time>2015-06-01T20:41:09.000Z</time>
      </trkpt>
      <trkpt lat="48.8481" lon="2.3999">
        <ele>55.799999237061</ele>
        <time>2015-06-01T20:41:14.000Z</time>
      </trkpt>
      <trkpt lat="48.8481" lon="2.39985">
        <ele>55.799999237061</ele>
        <time>2015-06-01T20:41:15.000Z</time>
      </trkpt>
      <trkpt lat="48.84811" lon="2.39979">
        <ele>55.799999237061</ele>
        <time>2015-06-01T20:41:18.000Z</time>
      </trkpt>
      <trkpt lat="48.84811" lon="2.39978">
        <ele>55.799999237061</ele>
        <time>2015-06-01T20:41:19.000Z</time>
      </trkpt>
      <trkpt lat="48.84812" lon="2.39981">
        <ele>55.799999237061</ele>
        <time>2015-06-01T20:41:30.000Z</time>
      </trkpt>
      <trkpt lat="48.84812" lon="2.39977">
        <ele>55.799999237061</ele>
        <time>2015-06-01T20:41:35.000Z</time>
      </trkpt>
      <trkpt lat="48.84814" lon="2.39956">
        <ele>54.599998474121</ele>
        <time>2015-06-01T20:41:42.000Z</time>
      </trkpt>
      <trkpt lat="48.84819" lon="2.39948">
        <ele>54.200000762939</ele>
        <time>2015-06-01T20:41:46.000Z</time>
      </trkpt>
      <trkpt lat="48.84822" lon="2.39942">
        <ele>54</ele>
        <time>2015-06-01T20:41:50.000Z</time>
      </trkpt>
      <trkpt lat="48.84825" lon="2.39933">
        <ele>53.799999237061</ele>
        <time>2015-06-01T20:41:56.000Z</time>
      </trkpt>
      <trkpt lat="48.84826" lon="2.39931">
        <ele>53.799999237061</ele>
        <time>2015-06-01T20:41:57.000Z</time>
      </trkpt>
      <trkpt lat="48.8483" lon="2.39924">
        <ele>53.799999237061</ele>
        <time>2015-06-01T20:42:00.000Z</time>
      </trkpt>
      <trkpt lat="48.8483" lon="2.39912">
        <ele>53.200000762939</ele>
        <time>2015-06-01T20:42:04.000Z</time>
      </trkpt>
      <trkpt lat="48.84828" lon="2.39909">
        <ele>52.799999237061</ele>
        <time>2015-06-01T20:42:06.000Z</time>
      </trkpt>
      <trkpt lat="48.84823" lon="2.39904">
        <ele>52.400001525879</ele>
        <time>2015-06-01T20:42:11.000Z</time>
      </trkpt>
      <trkpt lat="48.84823" lon="2.39902">
        <ele>52.200000762939</ele>
        <time>2015-06-01T20:42:12.000Z</time>
      </trkpt>
      <trkpt lat="48.84824" lon="2.399">
        <ele>52.200000762939</ele>
        <time>2015-06-01T20:42:13.000Z</time>
      </trkpt>
      <trkpt lat="48.84826" lon="2.39883">
        <ele>52</ele>
        <time>2015-06-01T20:42:19.000Z</time>
      </trkpt>
      <trkpt lat="48.84825" lon="2.39879">
        <ele>51.799999237061</ele>
        <time>2015-06-01T20:42:20.000Z</time>
      </trkpt>
      <trkpt lat="48.84822" lon="2.39858">
        <ele>51.799999237061</ele>
        <time>2015-06-01T20:42:24.000Z</time>
      </trkpt>
      <trkpt lat="48.84824" lon="2.3983">
        <ele>51.599998474121</ele>
        <time>2015-06-01T20:42:29.000Z</time>
      </trkpt>
      <trkpt lat="48.84827" lon="2.398">
        <ele>51.599998474121</ele>
        <time>2015-06-01T20:42:34.000Z</time>
      </trkpt>
      <trkpt lat="48.84829" lon="2.3977">
        <ele>51.599998474121</ele>
        <time>2015-06-01T20:42:40.000Z</time>
      </trkpt>
      <trkpt lat="48.84835" lon="2.3976">
        <ele>51.599998474121</ele>
        <time>2015-06-01T20:42:44.000Z</time>
      </trkpt>
      <trkpt lat="48.8484" lon="2.39756">
        <ele>51.599998474121</ele>
        <time>2015-06-01T20:42:48.000Z</time>
      </trkpt>
      <trkpt lat="48.84843" lon="2.39751">
        <ele>51.599998474121</ele>
        <time>2015-06-01T20:42:53.000Z</time>
      </trkpt>
      <trkpt lat="48.84844" lon="2.3975">
        <ele>51.599998474121</ele>
        <time>2015-06-01T20:42:59.000Z</time>
      </trkpt>
      <trkpt lat="48.84842" lon="2.3975">
        <ele>51.599998474121</ele>
        <time>2015-06-01T20:43:09.000Z</time>
      </trkpt>
      <trkpt lat="48.8484" lon="2.3975">
        <ele>51.599998474121</ele>
        <time>2015-06-01T20:43:15.000Z</time>
      </trkpt>
      <trkpt lat="48.84841" lon="2.39749">
        <ele>51.599998474121</ele>
        <time>2015-06-01T20:43:19.000Z</time>
      </trkpt>
      <trkpt lat="48.8484" lon="2.3975">
        <ele>51.599998474121</ele>
        <time>2015-06-01T20:43:25.000Z</time>
      </trkpt>
      <trkpt lat="48.84839" lon="2.39749">
        <ele>51.599998474121</ele>
        <time>2015-06-01T20:43:30.000Z</time>
      </trkpt>
      <trkpt lat="48.84846" lon="2.39745">
        <ele>51.599998474121</ele>
        <time>2015-06-01T20:44:21.000Z</time>
      </trkpt>
      <trkpt lat="48.84846" lon="2.39726">
        <ele>51.599998474121</ele>
        <time>2015-06-01T20:44:26.000Z</time>
      </trkpt>
      <trkpt lat="48.84845" lon="2.39699">
        <ele>51.599998474121</ele>
        <time>2015-06-01T20:44:32.000Z</time>
      </trkpt>
      <trkpt lat="48.84851" lon="2.39682">
        <ele>51.599998474121</ele>
        <time>2015-06-01T20:44:36.000Z</time>
      </trkpt>
      <trkpt lat="48.84865" lon="2.39664">
        <ele>51.599998474121</ele>
        <time>2015-06-01T20:44:41.000Z</time>
      </trkpt>
      <trkpt lat="48.84877" lon="2.39643">
        <ele>51.599998474121</ele>
        <time>2015-06-01T20:44:46.000Z</time>
      </trkpt>
      <trkpt lat="48.84887" lon="2.39615">
        <ele>51.599998474121</ele>
        <time>2015-06-01T20:44:51.000Z</time>
      </trkpt>
      <trkpt lat="48.84888" lon="2.39608">
        <ele>51.599998474121</ele>
        <time>2015-06-01T20:44:52.000Z</time>
      </trkpt>
      <trkpt lat="48.84889" lon="2.39576">
        <ele>51.599998474121</ele>
        <time>2015-06-01T20:44:57.000Z</time>
      </trkpt>
      <trkpt lat="48.84884" lon="2.39552">
        <ele>51.599998474121</ele>
        <time>2015-06-01T20:45:01.000Z</time>
      </trkpt>
      <trkpt lat="48.8487" lon="2.39527">
        <ele>51.599998474121</ele>
        <time>2015-06-01T20:45:07.000Z</time>
      </trkpt>
      <trkpt lat="48.84857" lon="2.3951">
        <ele>51.599998474121</ele>
        <time>2015-06-01T20:45:12.000Z</time>
      </trkpt>
      <trkpt lat="48.84854" lon="2.39488">
        <ele>51.599998474121</ele>
        <time>2015-06-01T20:45:16.000Z</time>
      </trkpt>
      <trkpt lat="48.84858" lon="2.39456">
        <ele>51.599998474121</ele>
        <time>2015-06-01T20:45:21.000Z</time>
      </trkpt>
      <trkpt lat="48.84861" lon="2.39428">
        <ele>51.599998474121</ele>
        <time>2015-06-01T20:45:25.000Z</time>
      </trkpt>
      <trkpt lat="48.84865" lon="2.39397">
        <ele>51.599998474121</ele>
        <time>2015-06-01T20:45:29.000Z</time>
      </trkpt>
      <trkpt lat="48.8487" lon="2.39364">
        <ele>51.599998474121</ele>
        <time>2015-06-01T20:45:33.000Z</time>
      </trkpt>
      <trkpt lat="48.84874" lon="2.39329">
        <ele>51.599998474121</ele>
        <time>2015-06-01T20:45:37.000Z</time>
      </trkpt>
      <trkpt lat="48.84878" lon="2.39302">
        <ele>51.799999237061</ele>
        <time>2015-06-01T20:45:40.000Z</time>
      </trkpt>
      <trkpt lat="48.84882" lon="2.39274">
        <ele>52.200000762939</ele>
        <time>2015-06-01T20:45:43.000Z</time>
      </trkpt>
      <trkpt lat="48.84887" lon="2.39247">
        <ele>52.599998474121</ele>
        <time>2015-06-01T20:45:46.000Z</time>
      </trkpt>
      <trkpt lat="48.84888" lon="2.39238">
        <ele>52.799999237061</ele>
        <time>2015-06-01T20:45:47.000Z</time>
      </trkpt>
      <trkpt lat="48.84893" lon="2.39214">
        <ele>53</ele>
        <time>2015-06-01T20:45:50.000Z</time>
      </trkpt>
      <trkpt lat="48.84898" lon="2.39176">
        <ele>53.200000762939</ele>
        <time>2015-06-01T20:45:55.000Z</time>
      </trkpt>
      <trkpt lat="48.84899" lon="2.39169">
        <ele>53.200000762939</ele>
        <time>2015-06-01T20:45:56.000Z</time>
      </trkpt>
      <trkpt lat="48.84902" lon="2.39136">
        <ele>53.400001525879</ele>
        <time>2015-06-01T20:46:00.000Z</time>
      </trkpt>
      <trkpt lat="48.84906" lon="2.39111">
        <ele>53.400001525879</ele>
        <time>2015-06-01T20:46:03.000Z</time>
      </trkpt>
      <trkpt lat="48.84911" lon="2.39069">
        <ele>53.599998474121</ele>
        <time>2015-06-01T20:46:08.000Z</time>
      </trkpt>
      <trkpt lat="48.84914" lon="2.39043">
        <ele>53.599998474121</ele>
        <time>2015-06-01T20:46:11.000Z</time>
      </trkpt>
      <trkpt lat="48.84924" lon="2.39015">
        <ele>53.599998474121</ele>
        <time>2015-06-01T20:46:15.000Z</time>
      </trkpt>
      <trkpt lat="48.84926" lon="2.39007">
        <ele>53.599998474121</ele>
        <time>2015-06-01T20:46:16.000Z</time>
      </trkpt>
      <trkpt lat="48.84931" lon="2.38979">
        <ele>53.599998474121</ele>
        <time>2015-06-01T20:46:19.000Z</time>
      </trkpt>
      <trkpt lat="48.84933" lon="2.3897">
        <ele>53.599998474121</ele>
        <time>2015-06-01T20:46:20.000Z</time>
      </trkpt>
      <trkpt lat="48.84936" lon="2.38951">
        <ele>53.799999237061</ele>
        <time>2015-06-01T20:46:22.000Z</time>
      </trkpt>
      <trkpt lat="48.84942" lon="2.38922">
        <ele>54.200000762939</ele>
        <time>2015-06-01T20:46:25.000Z</time>
      </trkpt>
      <trkpt lat="48.84943" lon="2.38913">
        <ele>54.400001525879</ele>
        <time>2015-06-01T20:46:26.000Z</time>
      </trkpt>
      <trkpt lat="48.84948" lon="2.38883">
        <ele>54.799999237061</ele>
        <time>2015-06-01T20:46:29.000Z</time>
      </trkpt>
      <trkpt lat="48.84952" lon="2.38854">
        <ele>55</ele>
        <time>2015-06-01T20:46:32.000Z</time>
      </trkpt>
      <trkpt lat="48.84956" lon="2.38825">
        <ele>55.200000762939</ele>
        <time>2015-06-01T20:46:35.000Z</time>
      </trkpt>
      <trkpt lat="48.84961" lon="2.38798">
        <ele>55.400001525879</ele>
        <time>2015-06-01T20:46:38.000Z</time>
      </trkpt>
      <trkpt lat="48.84964" lon="2.38767">
        <ele>55.400001525879</ele>
        <time>2015-06-01T20:46:41.000Z</time>
      </trkpt>
      <trkpt lat="48.84966" lon="2.38737">
        <ele>55.400001525879</ele>
        <time>2015-06-01T20:46:44.000Z</time>
      </trkpt>
      <trkpt lat="48.8497" lon="2.38709">
        <ele>55.599998474121</ele>
        <time>2015-06-01T20:46:47.000Z</time>
      </trkpt>
      <trkpt lat="48.84974" lon="2.38681">
        <ele>55.599998474121</ele>
        <time>2015-06-01T20:46:50.000Z</time>
      </trkpt>
      <trkpt lat="48.84978" lon="2.38653">
        <ele>55.599998474121</ele>
        <time>2015-06-01T20:46:53.000Z</time>
      </trkpt>
      <trkpt lat="48.84981" lon="2.38626">
        <ele>55.599998474121</ele>
        <time>2015-06-01T20:46:56.000Z</time>
      </trkpt>
      <trkpt lat="48.84985" lon="2.38591">
        <ele>55.599998474121</ele>
        <time>2015-06-01T20:47:00.000Z</time>
      </trkpt>
      <trkpt lat="48.84991" lon="2.38557">
        <ele>55.599998474121</ele>
        <time>2015-06-01T20:47:04.000Z</time>
      </trkpt>
      <trkpt lat="48.84998" lon="2.38523">
        <ele>55.599998474121</ele>
        <time>2015-06-01T20:47:08.000Z</time>
      </trkpt>
      <trkpt lat="48.85002" lon="2.38489">
        <ele>55.599998474121</ele>
        <time>2015-06-01T20:47:12.000Z</time>
      </trkpt>
      <trkpt lat="48.85001" lon="2.38481">
        <ele>55.599998474121</ele>
        <time>2015-06-01T20:47:13.000Z</time>
      </trkpt>
      <trkpt lat="48.85" lon="2.38468">
        <ele>55.599998474121</ele>
        <time>2015-06-01T20:47:15.000Z</time>
      </trkpt>
      <trkpt lat="48.85001" lon="2.38462">
        <ele>55.599998474121</ele>
        <time>2015-06-01T20:47:19.000Z</time>
      </trkpt>
      <trkpt lat="48.85003" lon="2.38459">
        <ele>55.599998474121</ele>
        <time>2015-06-01T20:47:23.000Z</time>
      </trkpt>
      <trkpt lat="48.85006" lon="2.38444">
        <ele>56</ele>
        <time>2015-06-01T20:47:27.000Z</time>
      </trkpt>
      <trkpt lat="48.85011" lon="2.38414">
        <ele>56.599998474121</ele>
        <time>2015-06-01T20:47:31.000Z</time>
      </trkpt>
      <trkpt lat="48.85014" lon="2.38388">
        <ele>56.799999237061</ele>
        <time>2015-06-01T20:47:34.000Z</time>
      </trkpt>
      <trkpt lat="48.85015" lon="2.3836">
        <ele>57.200000762939</ele>
        <time>2015-06-01T20:47:37.000Z</time>
      </trkpt>
      <trkpt lat="48.85019" lon="2.38316">
        <ele>57.400001525879</ele>
        <time>2015-06-01T20:47:41.000Z</time>
      </trkpt>
      <trkpt lat="48.85022" lon="2.38281">
        <ele>57.400001525879</ele>
        <time>2015-06-01T20:47:44.000Z</time>
      </trkpt>
      <trkpt lat="48.85026" lon="2.38246">
        <ele>57.400001525879</ele>
        <time>2015-06-01T20:47:47.000Z</time>
      </trkpt>
      <trkpt lat="48.85029" lon="2.38211">
        <ele>57.599998474121</ele>
        <time>2015-06-01T20:47:50.000Z</time>
      </trkpt>
      <trkpt lat="48.85032" lon="2.38191">
        <ele>57.400001525879</ele>
        <time>2015-06-01T20:47:52.000Z</time>
      </trkpt>
      <trkpt lat="48.85035" lon="2.38173">
        <ele>57</ele>
        <time>2015-06-01T20:47:54.000Z</time>
      </trkpt>
      <trkpt lat="48.85044" lon="2.38097">
        <ele>56.200000762939</ele>
        <time>2015-06-01T20:48:03.000Z</time>
      </trkpt>
      <trkpt lat="48.85046" lon="2.38065">
        <ele>56</ele>
        <time>2015-06-01T20:48:07.000Z</time>
      </trkpt>
      <trkpt lat="48.85046" lon="2.38058">
        <ele>56</ele>
        <time>2015-06-01T20:48:08.000Z</time>
      </trkpt>
      <trkpt lat="48.85046" lon="2.38051">
        <ele>55.799999237061</ele>
        <time>2015-06-01T20:48:09.000Z</time>
      </trkpt>
      <trkpt lat="48.85048" lon="2.38012">
        <ele>55.799999237061</ele>
        <time>2015-06-01T20:48:14.000Z</time>
      </trkpt>
      <trkpt lat="48.85049" lon="2.38004">
        <ele>55.799999237061</ele>
        <time>2015-06-01T20:48:15.000Z</time>
      </trkpt>
      <trkpt lat="48.85054" lon="2.37973">
        <ele>55.799999237061</ele>
        <time>2015-06-01T20:48:19.000Z</time>
      </trkpt>
      <trkpt lat="48.85055" lon="2.37965">
        <ele>55.599998474121</ele>
        <time>2015-06-01T20:48:20.000Z</time>
      </trkpt>
      <trkpt lat="48.8506" lon="2.37936">
        <ele>55.599998474121</ele>
        <time>2015-06-01T20:48:24.000Z</time>
      </trkpt>
      <trkpt lat="48.85062" lon="2.37921">
        <ele>55.599998474121</ele>
        <time>2015-06-01T20:48:26.000Z</time>
      </trkpt>
      <trkpt lat="48.85065" lon="2.37885">
        <ele>55.599998474121</ele>
        <time>2015-06-01T20:48:31.000Z</time>
      </trkpt>
      <trkpt lat="48.85066" lon="2.37878">
        <ele>55.599998474121</ele>
        <time>2015-06-01T20:48:32.000Z</time>
      </trkpt>
      <trkpt lat="48.85073" lon="2.3784">
        <ele>55.599998474121</ele>
        <time>2015-06-01T20:48:38.000Z</time>
      </trkpt>
      <trkpt lat="48.85074" lon="2.37835">
        <ele>55.599998474121</ele>
        <time>2015-06-01T20:48:39.000Z</time>
      </trkpt>
      <trkpt lat="48.85084" lon="2.37799">
        <ele>54.799999237061</ele>
        <time>2015-06-01T20:48:45.000Z</time>
      </trkpt>
      <trkpt lat="48.8509" lon="2.37773">
        <ele>54.400001525879</ele>
        <time>2015-06-01T20:48:49.000Z</time>
      </trkpt>
      <trkpt lat="48.85099" lon="2.37722">
        <ele>53.799999237061</ele>
        <time>2015-06-01T20:48:57.000Z</time>
      </trkpt>
      <trkpt lat="48.85101" lon="2.37711">
        <ele>53.799999237061</ele>
        <time>2015-06-01T20:48:59.000Z</time>
      </trkpt>
      <trkpt lat="48.85112" lon="2.37673">
        <ele>53.599998474121</ele>
        <time>2015-06-01T20:49:05.000Z</time>
      </trkpt>
      <trkpt lat="48.85117" lon="2.3766">
        <ele>53.599998474121</ele>
        <time>2015-06-01T20:49:07.000Z</time>
      </trkpt>
      <trkpt lat="48.85123" lon="2.37641">
        <ele>53.599998474121</ele>
        <time>2015-06-01T20:49:10.000Z</time>
      </trkpt>
      <trkpt lat="48.85125" lon="2.37635">
        <ele>53.599998474121</ele>
        <time>2015-06-01T20:49:11.000Z</time>
      </trkpt>
      <trkpt lat="48.8513" lon="2.37624">
        <ele>53.599998474121</ele>
        <time>2015-06-01T20:49:13.000Z</time>
      </trkpt>
      <trkpt lat="48.85138" lon="2.37592">
        <ele>53.599998474121</ele>
        <time>2015-06-01T20:49:19.000Z</time>
      </trkpt>
      <trkpt lat="48.85145" lon="2.37564">
        <ele>52.799999237061</ele>
        <time>2015-06-01T20:49:24.000Z</time>
      </trkpt>
      <trkpt lat="48.85151" lon="2.37538">
        <ele>52.400001525879</ele>
        <time>2015-06-01T20:49:28.000Z</time>
      </trkpt>
      <trkpt lat="48.85159" lon="2.37505">
        <ele>52</ele>
        <time>2015-06-01T20:49:32.000Z</time>
      </trkpt>
      <trkpt lat="48.85162" lon="2.37497">
        <ele>52</ele>
        <time>2015-06-01T20:49:33.000Z</time>
      </trkpt>
      <trkpt lat="48.8517" lon="2.37461">
        <ele>51.799999237061</ele>
        <time>2015-06-01T20:49:37.000Z</time>
      </trkpt>
      <trkpt lat="48.85173" lon="2.37451">
        <ele>51.799999237061</ele>
        <time>2015-06-01T20:49:38.000Z</time>
      </trkpt>
      <trkpt lat="48.85182" lon="2.37416">
        <ele>51.200000762939</ele>
        <time>2015-06-01T20:49:42.000Z</time>
      </trkpt>
      <trkpt lat="48.85187" lon="2.374">
        <ele>50.799999237061</ele>
        <time>2015-06-01T20:49:44.000Z</time>
      </trkpt>
      <trkpt lat="48.85198" lon="2.37362">
        <ele>50.200000762939</ele>
        <time>2015-06-01T20:49:49.000Z</time>
      </trkpt>
      <trkpt lat="48.85203" lon="2.37336">
        <ele>50</ele>
        <time>2015-06-01T20:49:52.000Z</time>
      </trkpt>
      <trkpt lat="48.85212" lon="2.37302">
        <ele>49.799999237061</ele>
        <time>2015-06-01T20:49:56.000Z</time>
      </trkpt>
      <trkpt lat="48.85215" lon="2.37292">
        <ele>49.799999237061</ele>
        <time>2015-06-01T20:49:57.000Z</time>
      </trkpt>
      <trkpt lat="48.85227" lon="2.37256">
        <ele>49.400001525879</ele>
        <time>2015-06-01T20:50:01.000Z</time>
      </trkpt>
      <trkpt lat="48.8523" lon="2.37247">
        <ele>49.200000762939</ele>
        <time>2015-06-01T20:50:02.000Z</time>
      </trkpt>
      <trkpt lat="48.85239" lon="2.3722">
        <ele>48.599998474121</ele>
        <time>2015-06-01T20:50:05.000Z</time>
      </trkpt>
      <trkpt lat="48.85248" lon="2.37195">
        <ele>48.200000762939</ele>
        <time>2015-06-01T20:50:08.000Z</time>
      </trkpt>
      <trkpt lat="48.85259" lon="2.37166">
        <ele>48</ele>
        <time>2015-06-01T20:50:12.000Z</time>
      </trkpt>
      <trkpt lat="48.85269" lon="2.37142">
        <ele>47.799999237061</ele>
        <time>2015-06-01T20:50:16.000Z</time>
      </trkpt>
      <trkpt lat="48.85281" lon="2.37118">
        <ele>47.599998474121</ele>
        <time>2015-06-01T20:50:20.000Z</time>
      </trkpt>
      <trkpt lat="48.85285" lon="2.37107">
        <ele>47.400001525879</ele>
        <time>2015-06-01T20:50:22.000Z</time>
      </trkpt>
      <trkpt lat="48.85296" lon="2.37082">
        <ele>47.400001525879</ele>
        <time>2015-06-01T20:50:27.000Z</time>
      </trkpt>
      <trkpt lat="48.85305" lon="2.37068">
        <ele>47.400001525879</ele>
        <time>2015-06-01T20:50:30.000Z</time>
      </trkpt>
      <trkpt lat="48.85315" lon="2.37051">
        <ele>47.400001525879</ele>
        <time>2015-06-01T20:50:34.000Z</time>
      </trkpt>
      <trkpt lat="48.85324" lon="2.37039">
        <ele>47.400001525879</ele>
        <time>2015-06-01T20:50:37.000Z</time>
      </trkpt>
      <trkpt lat="48.85337" lon="2.37027">
        <ele>47.200000762939</ele>
        <time>2015-06-01T20:50:42.000Z</time>
      </trkpt>
      <trkpt lat="48.85336" lon="2.37027">
        <ele>47.200000762939</ele>
        <time>2015-06-01T20:50:47.000Z</time>
      </trkpt>
      <trkpt lat="48.85339" lon="2.37028">
        <ele>47.200000762939</ele>
        <time>2015-06-01T20:51:00.000Z</time>
      </trkpt>
      <trkpt lat="48.85339" lon="2.37027">
        <ele>47.200000762939</ele>
        <time>2015-06-01T20:51:01.000Z</time>
      </trkpt>
      <trkpt lat="48.8534" lon="2.37006">
        <ele>47.200000762939</ele>
        <time>2015-06-01T20:51:07.000Z</time>
      </trkpt>
      <trkpt lat="48.85341" lon="2.37003">
        <ele>47.200000762939</ele>
        <time>2015-06-01T20:51:08.000Z</time>
      </trkpt>
      <trkpt lat="48.85345" lon="2.36992">
        <ele>47.200000762939</ele>
        <time>2015-06-01T20:51:13.000Z</time>
      </trkpt>
      <trkpt lat="48.85345" lon="2.3699">
        <ele>47.200000762939</ele>
        <time>2015-06-01T20:51:14.000Z</time>
      </trkpt>
      <trkpt lat="48.85345" lon="2.36988">
        <ele>47.200000762939</ele>
        <time>2015-06-01T20:51:15.000Z</time>
      </trkpt>
      <trkpt lat="48.85348" lon="2.36985">
        <ele>47.200000762939</ele>
        <time>2015-06-01T20:51:19.000Z</time>
      </trkpt>
      <trkpt lat="48.85352" lon="2.36985">
        <ele>47.200000762939</ele>
        <time>2015-06-01T20:51:24.000Z</time>
      </trkpt>
      <trkpt lat="48.85356" lon="2.36974">
        <ele>47.200000762939</ele>
        <time>2015-06-01T20:51:29.000Z</time>
      </trkpt>
      <trkpt lat="48.85358" lon="2.36974">
        <ele>47</ele>
        <time>2015-06-01T20:51:31.000Z</time>
      </trkpt>
      <trkpt lat="48.85358" lon="2.36975">
        <ele>46.200000762939</ele>
        <time>2015-06-01T20:51:36.000Z</time>
      </trkpt>
      <trkpt lat="48.85358" lon="2.36968">
        <ele>45.400001525879</ele>
        <time>2015-06-01T20:51:47.000Z</time>
      </trkpt>
      <trkpt lat="48.85354" lon="2.36966">
        <ele>45.400001525879</ele>
        <time>2015-06-01T20:51:54.000Z</time>
      </trkpt>
      <trkpt lat="48.85353" lon="2.36964">
        <ele>52.599998474121</ele>
        <time>2015-06-01T20:52:37.000Z</time>
      </trkpt>
      <trkpt lat="48.85355" lon="2.36956">
        <ele>53.599998474121</ele>
        <time>2015-06-01T20:52:41.000Z</time>
      </trkpt>
      <trkpt lat="48.85358" lon="2.36943">
        <ele>54.400001525879</ele>
        <time>2015-06-01T20:52:46.000Z</time>
      </trkpt>
      <trkpt lat="48.85359" lon="2.36935">
        <ele>54.599998474121</ele>
        <time>2015-06-01T20:52:49.000Z</time>
      </trkpt>
      <trkpt lat="48.8536" lon="2.3692">
        <ele>55</ele>
        <time>2015-06-01T20:52:55.000Z</time>
      </trkpt>
      <trkpt lat="48.85361" lon="2.36917">
        <ele>55.200000762939</ele>
        <time>2015-06-01T20:53:00.000Z</time>
      </trkpt>
      <trkpt lat="48.85361" lon="2.36915">
        <ele>55.400001525879</ele>
        <time>2015-06-01T20:53:01.000Z</time>
      </trkpt>
      <trkpt lat="48.85362" lon="2.36914">
        <ele>55.400001525879</ele>
        <time>2015-06-01T20:53:09.000Z</time>
      </trkpt>
      <trkpt lat="48.85363" lon="2.36905">
        <ele>55.599998474121</ele>
        <time>2015-06-01T20:53:20.000Z</time>
      </trkpt>
      <trkpt lat="48.85362" lon="2.36901">
        <ele>55.599998474121</ele>
        <time>2015-06-01T20:53:22.000Z</time>
      </trkpt>
      <trkpt lat="48.85362" lon="2.36895">
        <ele>55.599998474121</ele>
        <time>2015-06-01T20:53:26.000Z</time>
      </trkpt>
      <trkpt lat="48.85365" lon="2.3689">
        <ele>55.599998474121</ele>
        <time>2015-06-01T20:53:30.000Z</time>
      </trkpt>
      <trkpt lat="48.85365" lon="2.36891">
        <ele>55.599998474121</ele>
        <time>2015-06-01T20:53:31.000Z</time>
      </trkpt>
      <trkpt lat="48.85365" lon="2.3689">
        <ele>55.599998474121</ele>
        <time>2015-06-01T20:53:39.000Z</time>
      </trkpt>
      <trkpt lat="48.85364" lon="2.36886">
        <ele>55.599998474121</ele>
        <time>2015-06-01T20:53:54.000Z</time>
      </trkpt>
      <trkpt lat="48.85367" lon="2.36873">
        <ele>55.599998474121</ele>
        <time>2015-06-01T20:53:58.000Z</time>
      </trkpt>
      <trkpt lat="48.85371" lon="2.36849">
        <ele>55.599998474121</ele>
        <time>2015-06-01T20:54:03.000Z</time>
      </trkpt>
      <trkpt lat="48.85377" lon="2.36822">
        <ele>54.799999237061</ele>
        <time>2015-06-01T20:54:08.000Z</time>
      </trkpt>
      <trkpt lat="48.85378" lon="2.36799">
        <ele>54.200000762939</ele>
        <time>2015-06-01T20:54:12.000Z</time>
      </trkpt>
      <trkpt lat="48.85381" lon="2.36772">
        <ele>53</ele>
        <time>2015-06-01T20:54:17.000Z</time>
      </trkpt>
      <trkpt lat="48.85381" lon="2.36745">
        <ele>52.400001525879</ele>
        <time>2015-06-01T20:54:22.000Z</time>
      </trkpt>
      <trkpt lat="48.8537" lon="2.36732">
        <ele>51.599998474121</ele>
        <time>2015-06-01T20:54:26.000Z</time>
      </trkpt>
      <trkpt lat="48.85356" lon="2.36722">
        <ele>50.799999237061</ele>
        <time>2015-06-01T20:54:31.000Z</time>
      </trkpt>
      <trkpt lat="48.85351" lon="2.36716">
        <ele>50.400001525879</ele>
        <time>2015-06-01T20:54:33.000Z</time>
      </trkpt>
      <trkpt lat="48.85348" lon="2.36692">
        <ele>50.200000762939</ele>
        <time>2015-06-01T20:54:37.000Z</time>
      </trkpt>
      <trkpt lat="48.85349" lon="2.36686">
        <ele>50</ele>
        <time>2015-06-01T20:54:38.000Z</time>
      </trkpt>
      <trkpt lat="48.85352" lon="2.36652">
        <ele>49.799999237061</ele>
        <time>2015-06-01T20:54:44.000Z</time>
      </trkpt>
      <trkpt lat="48.85363" lon="2.36608">
        <ele>49.599998474121</ele>
        <time>2015-06-01T20:54:53.000Z</time>
      </trkpt>
      <trkpt lat="48.85369" lon="2.36585">
        <ele>49.400001525879</ele>
        <time>2015-06-01T20:54:57.000Z</time>
      </trkpt>
      <trkpt lat="48.85373" lon="2.36567">
        <ele>49.400001525879</ele>
        <time>2015-06-01T20:55:00.000Z</time>
      </trkpt>
      <trkpt lat="48.85383" lon="2.3653">
        <ele>49.400001525879</ele>
        <time>2015-06-01T20:55:06.000Z</time>
      </trkpt>
      <trkpt lat="48.8539" lon="2.36504">
        <ele>49.400001525879</ele>
        <time>2015-06-01T20:55:10.000Z</time>
      </trkpt>
      <trkpt lat="48.85398" lon="2.36477">
        <ele>49.400001525879</ele>
        <time>2015-06-01T20:55:14.000Z</time>
      </trkpt>
      <trkpt lat="48.85404" lon="2.36449">
        <ele>49.400001525879</ele>
        <time>2015-06-01T20:55:18.000Z</time>
      </trkpt>
      <trkpt lat="48.85413" lon="2.3642">
        <ele>49.400001525879</ele>
        <time>2015-06-01T20:55:22.000Z</time>
      </trkpt>
      <trkpt lat="48.85418" lon="2.36399">
        <ele>49.400001525879</ele>
        <time>2015-06-01T20:55:25.000Z</time>
      </trkpt>
      <trkpt lat="48.8543" lon="2.36364">
        <ele>49.400001525879</ele>
        <time>2015-06-01T20:55:30.000Z</time>
      </trkpt>
      <trkpt lat="48.8544" lon="2.36337">
        <ele>49.400001525879</ele>
        <time>2015-06-01T20:55:34.000Z</time>
      </trkpt>
      <trkpt lat="48.85449" lon="2.3631">
        <ele>49.400001525879</ele>
        <time>2015-06-01T20:55:38.000Z</time>
      </trkpt>
      <trkpt lat="48.85452" lon="2.36304">
        <ele>49.400001525879</ele>
        <time>2015-06-01T20:55:39.000Z</time>
      </trkpt>
      <trkpt lat="48.85461" lon="2.36289">
        <ele>49.400001525879</ele>
        <time>2015-06-01T20:55:43.000Z</time>
      </trkpt>
      <trkpt lat="48.85464" lon="2.3628">
        <ele>49.400001525879</ele>
        <time>2015-06-01T20:55:47.000Z</time>
      </trkpt>
      <trkpt lat="48.85472" lon="2.36255">
        <ele>49.400001525879</ele>
        <time>2015-06-01T20:55:51.000Z</time>
      </trkpt>
      <trkpt lat="48.85481" lon="2.36229">
        <ele>49.400001525879</ele>
        <time>2015-06-01T20:55:55.000Z</time>
      </trkpt>
      <trkpt lat="48.85494" lon="2.36197">
        <ele>49.400001525879</ele>
        <time>2015-06-01T20:56:00.000Z</time>
      </trkpt>
      <trkpt lat="48.85504" lon="2.36169">
        <ele>49.400001525879</ele>
        <time>2015-06-01T20:56:04.000Z</time>
      </trkpt>
      <trkpt lat="48.85508" lon="2.36155">
        <ele>49.799999237061</ele>
        <time>2015-06-01T20:56:06.000Z</time>
      </trkpt>
      <trkpt lat="48.85511" lon="2.36134">
        <ele>50.200000762939</ele>
        <time>2015-06-01T20:56:09.000Z</time>
      </trkpt>
      <trkpt lat="48.85518" lon="2.36091">
        <ele>50.799999237061</ele>
        <time>2015-06-01T20:56:14.000Z</time>
      </trkpt>
      <trkpt lat="48.8552" lon="2.36083">
        <ele>50.799999237061</ele>
        <time>2015-06-01T20:56:15.000Z</time>
      </trkpt>
      <trkpt lat="48.85527" lon="2.36057">
        <ele>51</ele>
        <time>2015-06-01T20:56:18.000Z</time>
      </trkpt>
      <trkpt lat="48.85529" lon="2.36048">
        <ele>51</ele>
        <time>2015-06-01T20:56:19.000Z</time>
      </trkpt>
      <trkpt lat="48.85533" lon="2.36034">
        <ele>51.200000762939</ele>
        <time>2015-06-01T20:56:21.000Z</time>
      </trkpt>
      <trkpt lat="48.85537" lon="2.36016">
        <ele>51.200000762939</ele>
        <time>2015-06-01T20:56:25.000Z</time>
      </trkpt>
      <trkpt lat="48.85543" lon="2.35995">
        <ele>51.400001525879</ele>
        <time>2015-06-01T20:56:31.000Z</time>
      </trkpt>
      <trkpt lat="48.85549" lon="2.35974">
        <ele>51.400001525879</ele>
        <time>2015-06-01T20:56:35.000Z</time>
      </trkpt>
      <trkpt lat="48.85555" lon="2.35947">
        <ele>51.400001525879</ele>
        <time>2015-06-01T20:56:39.000Z</time>
      </trkpt>
      <trkpt lat="48.85556" lon="2.3594">
        <ele>51.599998474121</ele>
        <time>2015-06-01T20:56:40.000Z</time>
      </trkpt>
      <trkpt lat="48.8556" lon="2.35927">
        <ele>52</ele>
        <time>2015-06-01T20:56:42.000Z</time>
      </trkpt>
      <trkpt lat="48.85567" lon="2.35904">
        <ele>52.400001525879</ele>
        <time>2015-06-01T20:56:45.000Z</time>
      </trkpt>
      <trkpt lat="48.85572" lon="2.35888">
        <ele>52.599998474121</ele>
        <time>2015-06-01T20:56:47.000Z</time>
      </trkpt>
      <trkpt lat="48.85581" lon="2.35862">
        <ele>52.799999237061</ele>
        <time>2015-06-01T20:56:50.000Z</time>
      </trkpt>
      <trkpt lat="48.85593" lon="2.35826">
        <ele>53</ele>
        <time>2015-06-01T20:56:54.000Z</time>
      </trkpt>
      <trkpt lat="48.85601" lon="2.35802">
        <ele>53.200000762939</ele>
        <time>2015-06-01T20:56:57.000Z</time>
      </trkpt>
      <trkpt lat="48.85602" lon="2.35791">
        <ele>53.200000762939</ele>
        <time>2015-06-01T20:56:58.000Z</time>
      </trkpt>
      <trkpt lat="48.85606" lon="2.35772">
        <ele>53.200000762939</ele>
        <time>2015-06-01T20:57:00.000Z</time>
      </trkpt>
      <trkpt lat="48.85615" lon="2.35733">
        <ele>53.400001525879</ele>
        <time>2015-06-01T20:57:04.000Z</time>
      </trkpt>
      <trkpt lat="48.85619" lon="2.35714">
        <ele>53.400001525879</ele>
        <time>2015-06-01T20:57:06.000Z</time>
      </trkpt>
      <trkpt lat="48.85625" lon="2.35694">
        <ele>53.400001525879</ele>
        <time>2015-06-01T20:57:08.000Z</time>
      </trkpt>
      <trkpt lat="48.85628" lon="2.35676">
        <ele>53.400001525879</ele>
        <time>2015-06-01T20:57:10.000Z</time>
      </trkpt>
      <trkpt lat="48.85636" lon="2.35638">
        <ele>52.599998474121</ele>
        <time>2015-06-01T20:57:15.000Z</time>
      </trkpt>
      <trkpt lat="48.85638" lon="2.35624">
        <ele>52.400001525879</ele>
        <time>2015-06-01T20:57:17.000Z</time>
      </trkpt>
      <trkpt lat="48.85641" lon="2.35611">
        <ele>52.200000762939</ele>
        <time>2015-06-01T20:57:19.000Z</time>
      </trkpt>
      <trkpt lat="48.85645" lon="2.35598">
        <ele>52</ele>
        <time>2015-06-01T20:57:21.000Z</time>
      </trkpt>
      <trkpt lat="48.85653" lon="2.35561">
        <ele>51.799999237061</ele>
        <time>2015-06-01T20:57:27.000Z</time>
      </trkpt>
      <trkpt lat="48.85654" lon="2.35555">
        <ele>51.799999237061</ele>
        <time>2015-06-01T20:57:28.000Z</time>
      </trkpt>
      <trkpt lat="48.8566" lon="2.3553">
        <ele>51.599998474121</ele>
        <time>2015-06-01T20:57:32.000Z</time>
      </trkpt>
      <trkpt lat="48.85666" lon="2.35503">
        <ele>51</ele>
        <time>2015-06-01T20:57:36.000Z</time>
      </trkpt>
      <trkpt lat="48.85672" lon="2.35485">
        <ele>50.599998474121</ele>
        <time>2015-06-01T20:57:39.000Z</time>
      </trkpt>
      <trkpt lat="48.85678" lon="2.35459">
        <ele>50.200000762939</ele>
        <time>2015-06-01T20:57:43.000Z</time>
      </trkpt>
      <trkpt lat="48.85681" lon="2.35448">
        <ele>50</ele>
        <time>2015-06-01T20:57:45.000Z</time>
      </trkpt>
      <trkpt lat="48.85692" lon="2.35413">
        <ele>49.799999237061</ele>
        <time>2015-06-01T20:57:51.000Z</time>
      </trkpt>
      <trkpt lat="48.85698" lon="2.35385">
        <ele>49.599998474121</ele>
        <time>2015-06-01T20:57:56.000Z</time>
      </trkpt>
      <trkpt lat="48.85704" lon="2.35356">
        <ele>49.599998474121</ele>
        <time>2015-06-01T20:58:01.000Z</time>
      </trkpt>
      <trkpt lat="48.85709" lon="2.35329">
        <ele>49.599998474121</ele>
        <time>2015-06-01T20:58:05.000Z</time>
      </trkpt>
      <trkpt lat="48.85711" lon="2.35314">
        <ele>49.400001525879</ele>
        <time>2015-06-01T20:58:07.000Z</time>
      </trkpt>
      <trkpt lat="48.85719" lon="2.35278">
        <ele>49.400001525879</ele>
        <time>2015-06-01T20:58:12.000Z</time>
      </trkpt>
      <trkpt lat="48.85721" lon="2.35272">
        <ele>49.400001525879</ele>
        <time>2015-06-01T20:58:13.000Z</time>
      </trkpt>
      <trkpt lat="48.85723" lon="2.35258">
        <ele>49.400001525879</ele>
        <time>2015-06-01T20:58:15.000Z</time>
      </trkpt>
      <trkpt lat="48.85732" lon="2.35221">
        <ele>49.400001525879</ele>
        <time>2015-06-01T20:58:20.000Z</time>
      </trkpt>
      <trkpt lat="48.85737" lon="2.35191">
        <ele>49.400001525879</ele>
        <time>2015-06-01T20:58:24.000Z</time>
      </trkpt>
      <trkpt lat="48.85742" lon="2.35164">
        <ele>49.400001525879</ele>
        <time>2015-06-01T20:58:28.000Z</time>
      </trkpt>
      <trkpt lat="48.85748" lon="2.35141">
        <ele>49.400001525879</ele>
        <time>2015-06-01T20:58:32.000Z</time>
      </trkpt>
      <trkpt lat="48.8575" lon="2.35136">
        <ele>49.400001525879</ele>
        <time>2015-06-01T20:58:33.000Z</time>
      </trkpt>
      <trkpt lat="48.85756" lon="2.35122">
        <ele>49.400001525879</ele>
        <time>2015-06-01T20:58:37.000Z</time>
      </trkpt>
      <trkpt lat="48.85764" lon="2.35093">
        <ele>49.400001525879</ele>
        <time>2015-06-01T20:58:42.000Z</time>
      </trkpt>
      <trkpt lat="48.8577" lon="2.35064">
        <ele>49.400001525879</ele>
        <time>2015-06-01T20:58:46.000Z</time>
      </trkpt>
      <trkpt lat="48.85773" lon="2.35056">
        <ele>49.400001525879</ele>
        <time>2015-06-01T20:58:47.000Z</time>
      </trkpt>
      <trkpt lat="48.85782" lon="2.35033">
        <ele>49.400001525879</ele>
        <time>2015-06-01T20:58:50.000Z</time>
      </trkpt>
      <trkpt lat="48.85792" lon="2.35">
        <ele>49.400001525879</ele>
        <time>2015-06-01T20:58:55.000Z</time>
      </trkpt>
      <trkpt lat="48.85795" lon="2.34994">
        <ele>49.400001525879</ele>
        <time>2015-06-01T20:58:56.000Z</time>
      </trkpt>
      <trkpt lat="48.85804" lon="2.34971">
        <ele>49.400001525879</ele>
        <time>2015-06-01T20:59:00.000Z</time>
      </trkpt>
      <trkpt lat="48.85815" lon="2.34936">
        <ele>49.599998474121</ele>
        <time>2015-06-01T20:59:06.000Z</time>
      </trkpt>
      <trkpt lat="48.8582" lon="2.34918">
        <ele>50.200000762939</ele>
        <time>2015-06-01T20:59:09.000Z</time>
      </trkpt>
      <trkpt lat="48.85828" lon="2.34893">
        <ele>50.599998474121</ele>
        <time>2015-06-01T20:59:13.000Z</time>
      </trkpt>
      <trkpt lat="48.85838" lon="2.34858">
        <ele>51</ele>
        <time>2015-06-01T20:59:19.000Z</time>
      </trkpt>
      <trkpt lat="48.8584" lon="2.34852">
        <ele>51</ele>
        <time>2015-06-01T20:59:20.000Z</time>
      </trkpt>
      <trkpt lat="48.8584" lon="2.34847">
        <ele>51</ele>
        <time>2015-06-01T20:59:21.000Z</time>
      </trkpt>
      <trkpt lat="48.85847" lon="2.34823">
        <ele>51.200000762939</ele>
        <time>2015-06-01T20:59:27.000Z</time>
      </trkpt>
      <trkpt lat="48.85847" lon="2.34821">
        <ele>51.200000762939</ele>
        <time>2015-06-01T20:59:28.000Z</time>
      </trkpt>
      <trkpt lat="48.85848" lon="2.34819">
        <ele>51.200000762939</ele>
        <time>2015-06-01T20:59:29.000Z</time>
      </trkpt>
      <trkpt lat="48.85853" lon="2.34811">
        <ele>51.400001525879</ele>
        <time>2015-06-01T20:59:33.000Z</time>
      </trkpt>
      <trkpt lat="48.8586" lon="2.34789">
        <ele>51.400001525879</ele>
        <time>2015-06-01T20:59:39.000Z</time>
      </trkpt>
      <trkpt lat="48.85867" lon="2.34772">
        <ele>51.400001525879</ele>
        <time>2015-06-01T20:59:43.000Z</time>
      </trkpt>
      <trkpt lat="48.85874" lon="2.3475">
        <ele>51.400001525879</ele>
        <time>2015-06-01T20:59:48.000Z</time>
      </trkpt>
      <trkpt lat="48.85875" lon="2.34746">
        <ele>51.400001525879</ele>
        <time>2015-06-01T20:59:49.000Z</time>
      </trkpt>
      <trkpt lat="48.85878" lon="2.34739">
        <ele>51.799999237061</ele>
        <time>2015-06-01T20:59:51.000Z</time>
      </trkpt>
      <trkpt lat="48.85896" lon="2.34729">
        <ele>52.799999237061</ele>
        <time>2015-06-01T20:59:57.000Z</time>
      </trkpt>
      <trkpt lat="48.85912" lon="2.34714">
        <ele>54</ele>
        <time>2015-06-01T21:00:02.000Z</time>
      </trkpt>
      <trkpt lat="48.85926" lon="2.34702">
        <ele>55.599998474121</ele>
        <time>2015-06-01T21:00:08.000Z</time>
      </trkpt>
      <trkpt lat="48.85936" lon="2.34702">
        <ele>56.400001525879</ele>
        <time>2015-06-01T21:00:12.000Z</time>
      </trkpt>
      <trkpt lat="48.85938" lon="2.34703">
        <ele>56.799999237061</ele>
        <time>2015-06-01T21:00:13.000Z</time>
      </trkpt>
      <trkpt lat="48.85944" lon="2.34713">
        <ele>58.200000762939</ele>
        <time>2015-06-01T21:00:19.000Z</time>
      </trkpt>
      <trkpt lat="48.85944" lon="2.34715">
        <ele>58.400001525879</ele>
        <time>2015-06-01T21:00:20.000Z</time>
      </trkpt>
      <trkpt lat="48.85944" lon="2.34716">
        <ele>58.799999237061</ele>
        <time>2015-06-01T21:00:21.000Z</time>
      </trkpt>
      <trkpt lat="48.85947" lon="2.34716">
        <ele>60</ele>
        <time>2015-06-01T21:00:25.000Z</time>
      </trkpt>
      <trkpt lat="48.8595" lon="2.34715">
        <ele>61.599998474121</ele>
        <time>2015-06-01T21:00:30.000Z</time>
      </trkpt>
      <trkpt lat="48.85952" lon="2.34715">
        <ele>63</ele>
        <time>2015-06-01T21:00:34.000Z</time>
      </trkpt>
      <trkpt lat="48.85952" lon="2.34715">
        <ele>63.400001525879</ele>
        <time>2015-06-01T21:00:35.000Z</time>
      </trkpt>
      <trkpt lat="48.85956" lon="2.34718">
        <ele>66.199996948242</ele>
        <time>2015-06-01T21:00:44.000Z</time>
      </trkpt>
      <trkpt lat="48.85957" lon="2.34718">
        <ele>66.599998474121</ele>
        <time>2015-06-01T21:00:46.000Z</time>
      </trkpt>
      <trkpt lat="48.86226" lon="2.35063">
        <ele>81.599998474121</ele>
        <time>2015-06-01T21:50:42.000Z</time>
      </trkpt>
      <trkpt lat="48.86238" lon="2.35069">
        <ele>81.599998474121</ele>
        <time>2015-06-01T21:50:45.000Z</time>
      </trkpt>
      <trkpt lat="48.8626" lon="2.35078">
        <ele>81.599998474121</ele>
        <time>2015-06-01T21:50:49.000Z</time>
      </trkpt>
      <trkpt lat="48.86271" lon="2.35082">
        <ele>81.599998474121</ele>
        <time>2015-06-01T21:50:51.000Z</time>
      </trkpt>
      <trkpt lat="48.8629" lon="2.35089">
        <ele>81.599998474121</ele>
        <time>2015-06-01T21:50:55.000Z</time>
      </trkpt>
      <trkpt lat="48.86313" lon="2.351">
        <ele>81.599998474121</ele>
        <time>2015-06-01T21:50:59.000Z</time>
      </trkpt>
      <trkpt lat="48.86329" lon="2.35108">
        <ele>81.599998474121</ele>
        <time>2015-06-01T21:51:03.000Z</time>
      </trkpt>
      <trkpt lat="48.86333" lon="2.35108">
        <ele>81.599998474121</ele>
        <time>2015-06-01T21:51:04.000Z</time>
      </trkpt>
      <trkpt lat="48.86338" lon="2.35109">
        <ele>81.599998474121</ele>
        <time>2015-06-01T21:51:05.000Z</time>
      </trkpt>
      <trkpt lat="48.8636" lon="2.35118">
        <ele>82.199996948242</ele>
        <time>2015-06-01T21:51:10.000Z</time>
      </trkpt>
      <trkpt lat="48.8638" lon="2.35125">
        <ele>82.800003051758</ele>
        <time>2015-06-01T21:51:14.000Z</time>
      </trkpt>
      <trkpt lat="48.86385" lon="2.35128">
        <ele>82.800003051758</ele>
        <time>2015-06-01T21:51:15.000Z</time>
      </trkpt>
      <trkpt lat="48.8641" lon="2.35141">
        <ele>83.400001525879</ele>
        <time>2015-06-01T21:51:20.000Z</time>
      </trkpt>
      <trkpt lat="48.86425" lon="2.35149">
        <ele>84.199996948242</ele>
        <time>2015-06-01T21:51:23.000Z</time>
      </trkpt>
      <trkpt lat="48.86449" lon="2.35168">
        <ele>84.800003051758</ele>
        <time>2015-06-01T21:51:27.000Z</time>
      </trkpt>
      <trkpt lat="48.86462" lon="2.35197">
        <ele>85.199996948242</ele>
        <time>2015-06-01T21:51:32.000Z</time>
      </trkpt>
      <trkpt lat="48.86465" lon="2.35203">
        <ele>85.199996948242</ele>
        <time>2015-06-01T21:51:33.000Z</time>
      </trkpt>
      <trkpt lat="48.86472" lon="2.35215">
        <ele>85.400001525879</ele>
        <time>2015-06-01T21:51:35.000Z</time>
      </trkpt>
      <trkpt lat="48.86478" lon="2.35226">
        <ele>85.599998474121</ele>
        <time>2015-06-01T21:51:37.000Z</time>
      </trkpt>
      <trkpt lat="48.86486" lon="2.35243">
        <ele>85.400001525879</ele>
        <time>2015-06-01T21:51:40.000Z</time>
      </trkpt>
      <trkpt lat="48.8649" lon="2.35271">
        <ele>84.599998474121</ele>
        <time>2015-06-01T21:51:45.000Z</time>
      </trkpt>
      <trkpt lat="48.86494" lon="2.35289">
        <ele>84</ele>
        <time>2015-06-01T21:51:48.000Z</time>
      </trkpt>
      <trkpt lat="48.86494" lon="2.35307">
        <ele>83.400001525879</ele>
        <time>2015-06-01T21:51:51.000Z</time>
      </trkpt>
      <trkpt lat="48.86503" lon="2.3533">
        <ele>81.599998474121</ele>
        <time>2015-06-01T21:51:57.000Z</time>
      </trkpt>
      <trkpt lat="48.86518" lon="2.35347">
        <ele>79.599998474121</ele>
        <time>2015-06-01T21:52:03.000Z</time>
      </trkpt>
      <trkpt lat="48.86535" lon="2.3536">
        <ele>78.599998474121</ele>
        <time>2015-06-01T21:52:09.000Z</time>
      </trkpt>
      <trkpt lat="48.86545" lon="2.35358">
        <ele>77.400001525879</ele>
        <time>2015-06-01T21:52:14.000Z</time>
      </trkpt>
      <trkpt lat="48.86557" lon="2.35356">
        <ele>76.400001525879</ele>
        <time>2015-06-01T21:52:20.000Z</time>
      </trkpt>
      <trkpt lat="48.8656" lon="2.35357">
        <ele>76</ele>
        <time>2015-06-01T21:52:22.000Z</time>
      </trkpt>
      <trkpt lat="48.86562" lon="2.35358">
        <ele>75.800003051758</ele>
        <time>2015-06-01T21:52:25.000Z</time>
      </trkpt>
    </trkseg>
  </trk>
</gpx>